[[{"header":{"parameterUnit":"m.s-1","parameterCategory":1,"la1":30.6,"la2":29.2853,"lo1":-89.7004,"lo2":-87.6739,"dx":0.0162,"dy":0.0183,"nx":112,"ny":82,"refTime":"2022-11-22T18:00:00:Z","depth":0,"parameterNumber":2,"parameterNumberName":"U-component_of_WINDS"},"data":[0.0,0.0,0.0,0.0,0.0,0.0,0.0,0.0,0.0,0.0,0.0,0.0,0.0,0.0,0.0,0.0,0.0,0.0,0.0,0.0,0.0,0.0,0.0,0.0,0.0,0.0,0.0,0.0,0.0,0.0,0.0,0.0,0.0,0.0,0.0,0.0,0.0,0.0,0.0,0.0,0.0,0.0,0.0,0.0,0.0,0.0,0.0,0.0,0.0,0.0,0.0,0.0,0.0,0.0,0.0,0.0,0.0,0.0,0.0,0.0,0.0,0.0,0.0,0.0,0.0,0.0,0.0,0.0,0.0,0.0,0.0,0.0,0.0,0.0,0.0,0.0,0.0,0.0,0.0,0.0,0.0,0.0,0.0,0.0,0.0,0.0,0.0,0.0,0.0,0.0,-0.0262,0.0489,0.1115,0.1309,0.092,0.0984,0.0739,0.0022,0.0,0.0,0.0,0.0,0.0,0.0,0.0,0.0,0.0,0.0,0.0,0.0,0.0,0.0,0.0,0.0,0.0,0.0,0.0,0.0,0.0,0.0,0.0,0.0,0.0,0.0,0.0,0.0,0.0,0.0,0.0,0.0,0.0,0.0,0.0,0.0,0.0,0.0,0.0,0.0,0.0,0.0,0.0,0.0,0.0,0.0,0.0,0.0,0.0,0.0,0.0,0.0,0.0,0.0,0.0,0.0,0.0,0.0,0.0,0.0,0.0,0.0,0.0,0.0,0.0,0.0,0.0,0.0,0.0,0.0,0.0,0.0,0.0,0.0,0.0,0.0,0.0,0.0,0.0,0.0,0.0,0.0,0.0,0.0,0.0,0.0,0.0,0.0,0.0,0.0,0.0,0.0,0.0,0.0,0.0,0.0,0.0,0.0,0.0,0.0,0.0,0.0,0.0,0.0,-0.0549,-0.0029,0.0213,0.0222,-0.0068,0.0181,0.009,-0.0536,0.0,0.0,0.0,0.0,0.0,0.0,0.0,0.0,0.0,0.0,0.0,0.0,0.0,0.0,0.0,0.0,0.0,0.0,0.0,0.0,0.0,0.0,0.0,0.0,0.0,0.0,0.0,0.0,0.0,0.0,0.0,0.0,0.0,0.0,0.0,0.0,0.0,0.0,0.0,0.0,0.0,0.0,0.0,0.0,0.0,0.0,0.0,0.0,0.0,0.0,0.0,0.0,0.0,0.0,0.0,0.0,0.0,0.0,0.0,0.0,0.0,0.0,0.0,0.0,0.0,0.0,0.0,0.0,0.0,0.0,0.0,0.0,0.0,0.0,0.0,0.0,0.0,0.0,0.0,0.0,0.0,0.0,0.0,0.0,0.0,0.0,0.0,0.0,0.0,0.0,0.0,0.0,0.0,0.0,0.0,0.0,0.0,0.0,0.0,0.0,0.0,0.0,0.0,-0.1277,-0.1051,-0.0532,-0.0319,-0.03,-0.0445,-0.0445,-0.0625,-0.1003,-0.0915,0.0,0.0,0.0,0.0,0.0,0.0,0.0,0.0,0.0,0.0,0.0,0.0,0.0,0.0,0.0,0.0,0.0,0.0,0.0,0.0,0.0,0.0,0.0,0.0,0.0,0.0,0.0,0.0,0.0,0.0,0.0,0.0,0.0,0.0,0.0,0.0,0.0,0.0,0.0,0.0,0.0,0.0,0.0,0.0,0.0,0.0,0.0,0.0,0.0,0.0,0.0,0.0,0.0,0.0,0.0,0.0,0.0,0.0,0.0,0.0,0.0,0.0,0.0,0.0,0.0,0.0,0.0,0.0,0.0,0.0,0.0,0.0,0.0,0.0,0.0,0.0,0.0,0.0,0.0,0.0,0.0,0.0,0.0,0.0,0.0,0.0,0.0,0.0,0.0,0.0,0.0,0.0,0.0,0.0,0.0,0.0,0.0,0.0,0.0,0.0,0.0,0.0,-0.1805,-0.168,-0.1246,-0.1041,-0.0992,-0.1088,-0.1176,-0.1326,-0.1601,-0.1588,0.0,0.0,0.0,0.0,0.0,0.0,0.0,0.0,0.0,0.0,0.0,0.0,0.0,0.0,0.0,0.0,0.0,0.0,0.0,0.0,0.0,0.0,0.0,0.0,0.0,0.0,0.0,0.0,0.0,0.0,0.0,0.0,0.0,0.0,0.0,0.0,0.0,0.0,0.0,0.0,0.0,0.0,0.0,0.0,0.0,0.0,0.0,0.0,0.0,0.0,0.0,0.0,0.0,0.0,0.0,0.0,0.0,0.0,0.0,0.0,0.0,0.0,0.0,0.0,0.0,0.0,0.0,0.0,0.0,0.0,0.0,0.0,0.0,0.0,0.0,0.0,0.0,0.0,0.0,0.0,0.0,0.0,0.0,0.0,0.0,0.0,0.0,0.0,0.0,0.0,0.0,0.0,0.0,0.0,0.0,0.0,0.0,0.0,0.0,0.0,0.0,0.0,-0.2644,-0.2559,-0.2388,-0.2308,-0.2337,-0.2541,-0.212,-0.2026,-0.2487,-0.2051,0.0,0.0,0.0,0.0,0.0,0.0,0.0,0.0,0.0,0.0,0.0,0.0,0.0,0.0,0.0,0.0,0.0,0.0,0.0,0.0,0.0,0.0,0.0,0.0,0.0,0.0,0.0,0.0,0.0,0.0,0.0,0.0,0.0,0.0,0.0,0.0,0.0,0.0,0.0,0.0,0.0,0.0,0.0,0.0,0.0,0.0,0.0,0.0,0.0,0.0,0.0,0.0,0.0,0.0,0.0,0.0,0.0,0.0,0.0,0.0,0.0,0.0,0.0,0.0,0.0,0.0,0.0,0.0,0.0,0.0,0.0,0.0,0.0,0.0,0.0,0.0,0.0,0.0,0.0,0.0,0.0,0.0,0.0,0.0,0.0,0.0,0.0,0.0,0.0,0.0,0.0,0.0,0.0,0.0,0.0,0.0,0.0,0.0,0.0,0.0,0.0,0.0,-0.3804,-0.366,-0.3295,-0.3026,-0.2917,-0.3014,-0.267,-0.2511,-0.2648,0.0,0.0,0.0,0.0,0.0,0.0,0.0,0.0,0.0,0.0,0.0,0.0,0.0,0.0,0.0,0.0,0.0,0.0,0.0,0.0,0.0,0.0,0.0,0.0,0.0,0.0,0.0,0.0,0.0,0.0,0.0,0.0,0.0,0.0,0.0,0.0,0.0,0.0,0.0,0.0,0.0,0.0,0.0,0.0,0.0,0.0,0.0,0.0,0.0,0.0,0.0,0.0,0.0,0.0,0.0,0.0,0.0,0.0,0.0,0.0,0.0,0.0,0.0,0.0,0.0,0.0,0.0,0.0,0.0,0.0,0.0,0.0,0.0,0.0,0.0,0.0,0.0,0.0,0.0,0.0,0.0,0.0,0.0,0.0,0.0,0.0,0.0,0.0,0.0,0.0,0.0,0.0,0.0,0.0,0.0,0.0,0.0,0.0,0.0,0.0,0.0,0.0,-0.4984,-0.4843,-0.4644,-0.4117,-0.3799,-0.3654,-0.3769,-0.3546,-0.3468,-0.3612,0.0,0.0,0.0,0.0,0.0,0.0,0.0,0.0,0.0,0.0,0.0,0.0,0.0,0.0,0.0,0.0,0.0,0.0,0.0,0.0,0.0,0.0,0.0,0.0,0.0,0.0,0.0,0.0,0.0,0.0,0.0,0.0,0.0,0.0,0.0,0.0,0.0,0.0,0.0,0.0,0.0,0.0,0.0,0.0,0.0,0.0,0.0,0.0,0.0,0.0,0.0,0.0,0.0,0.0,0.0,0.0,0.0,0.0,0.0,0.0,0.0,0.0,0.0,0.0,0.0,0.0,0.0,0.0,0.0,0.0,0.0,0.0,0.0,0.0,0.0,0.0,0.0,0.0,0.0,0.0,0.0,0.0,0.0,0.0,0.0,0.0,0.0,0.0,0.0,0.0,0.0,0.0,0.0,0.0,0.0,0.0,0.0,0.0,0.0,0.0,0.0,0.0,-0.5978,-0.5723,-0.5397,-0.4863,-0.4646,-0.4648,-0.4982,-0.4829,-0.4969,0.0,0.0,0.0,0.0,0.0,0.0,0.0,0.0,0.0,0.0,0.0,0.0,0.0,0.0,0.0,0.0,0.0,0.0,0.0,0.0,0.0,0.0,0.0,0.0,0.0,0.0,0.0,0.0,0.0,0.0,0.0,0.0,0.0,0.0,0.0,0.0,0.0,0.0,0.0,0.0,0.0,0.0,0.0,0.0,0.0,0.0,0.0,0.0,0.0,0.0,0.0,0.0,0.0,0.0,0.0,0.0,0.0,0.0,0.0,0.0,0.0,0.0,0.0,0.0,0.0,0.0,0.0,0.0,0.0,0.0,0.0,0.0,0.0,0.0,0.0,0.0,0.0,0.0,0.0,0.0,0.0,0.0,0.0,0.0,0.0,0.0,0.0,0.0,0.0,0.0,0.0,0.0,0.0,0.0,0.0,0.0,0.0,0.0,0.0,0.0,0.0,0.0,0.0,-0.6587,-0.6035,-0.5775,-0.5911,-0.5544,-0.5465,-0.5936,-0.5812,-0.576,-0.5936,0.0,0.0,0.0,0.0,0.0,0.0,0.0,0.0,0.0,0.0,0.0,0.0,0.0,0.0,0.0,0.0,0.0,0.0,0.0,0.0,0.0,0.0,0.0,0.0,0.0,0.0,0.0,0.0,0.0,0.0,0.0,0.0,0.0,0.0,0.0,0.0,0.0,0.0,0.0,0.0,0.0,0.0,0.0,0.0,0.0,0.0,0.0,0.0,0.0,0.0,0.0,0.0,0.0,0.0,0.0,0.0,0.0,0.0,0.0,0.0,0.0,0.0,0.0,0.0,0.0,0.0,0.0,0.0,0.0,0.0,0.0,0.0,0.0,0.0,0.0,0.0,0.0,0.0,0.0,0.0,0.0,0.0,0.0,0.0,0.0,0.0,0.0,0.0,0.0,0.0,0.0,0.0,0.0,0.0,0.0,0.0,0.0,0.0,0.0,0.0,0.0,0.0,-0.6963,-0.6499,-0.6357,-0.6469,-0.6249,-0.6285,-0.6804,-0.6708,-0.6687,-0.6842,0.0,0.0,0.0,0.0,0.0,0.0,0.0,0.0,0.0,0.0,0.0,0.0,0.0,0.0,0.0,0.0,0.0,0.0,0.0,0.0,0.0,0.0,0.0,0.0,0.0,0.0,0.0,0.0,0.0,0.0,0.0,0.0,0.0,0.0,0.0,0.0,0.0,0.0,0.0,0.0,0.0,0.0,0.0,0.0,0.0,0.0,0.0,0.0,0.0,0.0,0.0,0.0,0.0,0.0,0.0,0.0,0.0,0.0,0.0,0.0,0.0,0.0,0.0,0.0,0.0,0.0,0.0,0.0,0.0,0.0,0.0,0.0,0.0,0.0,0.0,0.0,0.0,0.0,0.0,0.0,0.0,0.0,0.0,0.0,0.0,0.0,0.0,0.0,0.0,0.0,0.0,0.0,0.0,0.0,0.0,0.0,0.0,0.0,0.0,0.0,0.0,0.0,-0.7418,-0.7326,-0.7272,-0.6898,-0.6975,-0.7173,-0.7563,-0.7651,-0.7797,-0.8154,0.0,0.0,0.0,0.0,0.0,0.0,0.0,0.0,0.0,0.0,0.0,0.0,0.0,0.0,0.0,0.0,0.0,0.0,0.0,0.0,0.0,0.0,0.0,0.0,0.0,0.0,0.0,0.0,0.0,0.0,0.0,0.0,0.0,0.0,0.0,0.0,0.0,0.0,0.0,0.0,0.0,0.0,0.0,0.0,0.0,0.0,0.0,0.0,0.0,0.0,0.0,0.0,0.0,0.0,0.0,0.0,0.0,0.0,0.0,0.0,-1.2287,-0.7773,0.0,0.0,0.0,0.0,0.0,0.0,0.0,0.0,0.0,0.0,0.0,0.0,0.0,0.0,0.0,0.0,0.0,0.0,0.0,0.0,0.0,0.0,0.0,0.0,0.0,0.0,0.0,0.0,0.0,0.0,0.0,0.0,0.0,0.0,0.0,0.0,0.0,0.0,0.0,0.0,-0.9627,-0.956,-0.9421,-0.8924,-0.8772,-0.8584,-0.8396,-0.9072,-0.9546,-0.9571,-0.9681,0.0,0.0,0.0,0.0,0.0,0.0,0.0,0.0,0.0,0.0,0.0,0.0,0.0,0.0,0.0,0.0,0.0,0.0,0.0,0.0,0.0,0.0,0.0,0.0,0.0,0.0,0.0,0.0,0.0,0.0,0.0,0.0,0.0,0.0,0.0,0.0,0.0,0.0,0.0,0.0,0.0,0.0,0.0,0.0,0.0,0.0,0.0,0.0,0.0,0.0,0.0,0.0,0.0,0.0,0.0,0.0,0.0,0.0,0.0,-1.9435,-1.4769,0.0,0.0,0.0,0.0,0.0,0.0,0.0,0.0,0.0,0.0,0.0,0.0,0.0,0.0,0.0,0.0,0.0,0.0,0.0,0.0,0.0,0.0,0.0,0.0,0.0,0.0,0.0,0.0,0.0,0.0,0.0,0.0,0.0,0.0,0.0,0.0,0.0,0.0,0.0,0.0,-1.0527,-1.0552,-1.0495,-1.0109,-0.9786,-0.968,-0.9974,-1.0106,-1.0325,-1.08,-1.0936,0.0,0.0,0.0,0.0,0.0,0.0,0.0,0.0,0.0,0.0,0.0,0.0,0.0,0.0,0.0,0.0,0.0,0.0,0.0,0.0,0.0,0.0,0.0,0.0,0.0,0.0,0.0,0.0,0.0,0.0,0.0,0.0,0.0,0.0,0.0,0.0,0.0,0.0,0.0,0.0,0.0,0.0,0.0,0.0,0.0,0.0,0.0,0.0,0.0,0.0,0.0,0.0,0.0,-2.7264,-2.8044,-2.814,-2.9709,-3.0719,-3.1087,-2.8615,-2.4456,-1.9308,-1.7528,0.0,0.0,0.0,0.0,0.0,0.0,0.0,0.0,0.0,0.0,0.0,0.0,0.0,0.0,0.0,0.0,0.0,0.0,0.0,0.0,0.0,0.0,-1.4801,-2.1079,-2.1283,-1.9673,-1.8529,0.0,0.0,0.0,0.0,0.0,0.0,0.0,0.0,0.0,0.0,0.0,-1.128,-1.1423,-1.1431,-1.1116,-1.073,-1.0786,-1.1528,-1.1079,-1.112,-1.1931,-1.2179,-1.1991,0.0,0.0,0.0,0.0,0.0,0.0,0.0,0.0,0.0,0.0,0.0,0.0,0.0,0.0,0.0,0.0,0.0,0.0,0.0,0.0,0.0,0.0,0.0,0.0,0.0,0.0,0.0,0.0,0.0,0.0,0.0,0.0,-2.1514,-1.6778,0.0,0.0,0.0,0.0,0.0,0.0,0.0,0.0,0.0,0.0,0.0,0.0,0.0,-2.697,-2.7063,-2.8301,-2.8927,-2.8935,-3.3203,-3.5213,-3.5391,-3.9658,-4.1626,-4.1693,-4.1296,0.0,-2.5715,-2.1541,0.0,0.0,0.0,0.0,0.0,0.0,0.0,0.0,0.0,0.0,0.0,0.0,0.0,0.0,0.0,0.0,0.0,0.0,0.0,0.0,0.0,0.0,-1.6633,-2.2341,-2.2399,-2.091,-1.9925,-1.8773,-1.759,-1.6646,-1.6043,-1.5395,0.0,0.0,0.0,0.0,0.0,0.0,-1.336,-1.3581,-1.3479,-1.2681,-1.2537,-1.2323,-1.1891,-1.2549,-1.303,-1.316,-1.3363,-1.3455,-1.3404,-1.27,0.0,0.0,0.0,0.0,0.0,0.0,0.0,0.0,0.0,0.0,0.0,0.0,0.0,0.0,0.0,0.0,0.0,0.0,0.0,0.0,0.0,0.0,0.0,0.0,0.0,0.0,0.0,0.0,0.0,-1.7722,-1.9227,-1.4938,-1.6843,-1.6768,0.0,0.0,0.0,0.0,0.0,0.0,0.0,0.0,0.0,-2.4734,-2.9755,-3.2634,-3.2981,-3.5982,-3.7687,-3.8199,-4.0759,-4.2257,-4.2804,-4.5388,-4.6592,-4.6599,-4.6094,-4.2871,-3.7527,-3.1429,-2.6654,-2.2965,0.0,0.0,0.0,0.0,-1.7866,-1.7773,-1.7263,-1.7168,-1.7165,-1.655,0.0,0.0,0.0,0.0,0.0,0.0,0.0,-1.0498,-1.5526,-1.7673,-1.9587,-2.3797,-2.3528,-2.2045,-2.1152,-2.01,-1.8889,-1.7368,-1.6975,-1.6605,-1.5679,-1.5,0.0,0.0,0.0,-1.4183,-1.4105,-1.4259,-1.4198,-1.3798,-1.3369,-1.3249,-1.3567,-1.3509,-1.3702,-1.4273,-1.4418,-1.4499,-1.4481,-1.3671,-1.3251,0.0,0.0,0.0,0.0,0.0,0.0,0.0,0.0,0.0,0.0,0.0,0.0,0.0,0.0,0.0,0.0,0.0,0.0,0.0,0.0,0.0,0.0,0.0,0.0,0.0,0.0,0.0,0.0,-1.7575,-1.9605,-1.4712,-1.8062,-1.9198,0.0,0.0,0.0,0.0,0.0,0.0,-2.3675,-2.7735,-3.0506,-3.1546,-3.591,-3.8461,-3.8934,-4.2494,-4.4603,-4.5241,-4.5897,-4.6543,-4.7177,-4.7861,-4.8184,-4.8192,-4.7537,-4.6914,-4.577,-3.9122,-3.3996,-3.017,-2.8541,-2.7434,-2.6636,-2.6347,-2.6352,-2.6354,-2.5513,-2.5679,-2.6047,-2.4601,-2.3826,-2.3211,-2.1978,0.0,0.0,0.0,0.0,-1.478,-1.8209,-2.0131,-2.1962,-2.4924,-2.4521,-2.3152,-2.205,-2.1299,-2.016,-1.7949,-1.7658,-1.7483,-1.6592,-1.5891,0.0,-1.5563,-1.4903,-1.4412,-1.4508,-1.4558,-1.4584,-1.4573,-1.4036,-1.404,-1.4912,-1.4327,-1.4242,-1.5005,-1.5312,-1.5446,-1.542,-1.5036,-1.4763,-1.4635,0.0,0.0,0.0,0.0,0.0,0.0,0.0,0.0,0.0,0.0,0.0,0.0,0.0,0.0,0.0,0.0,0.0,0.0,0.0,0.0,0.0,0.0,0.0,0.0,0.0,0.0,0.0,0.0,0.0,-2.0497,-2.388,0.0,0.0,0.0,0.0,-2.6916,-2.7491,-2.8032,-2.8889,-3.4167,-3.7219,-3.7297,-4.2662,-4.5585,-4.5607,-4.592,-4.6098,-4.6137,-4.6196,-4.6215,-4.6265,-4.6396,-4.6448,-4.642,-4.6362,-4.6328,-4.5897,-4.0614,-3.719,-3.4811,-3.0704,-2.8413,-2.7334,-2.643,-2.661,-2.7226,-2.6284,-2.652,-2.7161,-2.6185,-2.4806,-2.3494,-2.3394,-2.2155,0.0,0.0,-1.9351,-1.928,-2.3192,-2.3337,-2.2997,-2.5319,-2.5286,-2.4241,-2.2449,-2.213,-2.1379,-1.8601,-1.7965,-1.7643,-1.689,0.0,-1.587,-1.5789,-1.5254,-1.4833,-1.4784,-1.4799,-1.4844,-1.4947,-1.4882,-1.4935,-1.5171,-1.5124,-1.5149,-1.5173,-1.5981,-1.6448,-1.6532,-1.7193,-1.7284,-1.6566,-1.655,0.0,0.0,0.0,0.0,0.0,0.0,0.0,0.0,0.0,0.0,0.0,0.0,0.0,0.0,0.0,0.0,0.0,0.0,0.0,0.0,0.0,0.0,0.0,0.0,0.0,0.0,0.0,0.0,-2.4473,-2.8627,0.0,-2.5725,-2.6285,-2.756,-2.9101,-3.3121,-3.5357,-3.5055,-4.0617,-4.3545,-4.2974,-4.5493,-4.6829,-4.6879,-4.7447,-4.801,-4.8584,-4.8639,-4.8943,-4.951,-5.0126,-5.0421,-5.0403,-4.9834,-4.9568,-4.9375,-4.6426,-4.4121,-4.2313,-4.0745,-3.9877,-3.9429,-3.9044,-3.9089,-3.9108,-3.7639,-3.7654,-3.8083,-3.6581,-3.4577,-3.2255,-2.959,-2.7975,-2.6307,-2.2488,-2.2953,-2.4618,-2.496,-2.5778,-2.6637,-2.688,-2.6304,-2.5256,-2.3563,-2.3209,-2.2602,-2.0674,-2.0146,-1.9763,-1.8875,-1.7713,-1.7122,-1.7653,-1.6641,-1.5994,-1.6468,-1.6118,-1.5861,-1.59,-1.5976,-1.6021,-1.6072,-1.656,-1.6882,-1.691,-1.7235,-1.7634,-1.8183,-1.8042,-1.8052,-1.8371,-1.7836,-1.7373,0.0,0.0,0.0,0.0,0.0,0.0,0.0,0.0,0.0,0.0,0.0,0.0,0.0,0.0,0.0,0.0,0.0,0.0,0.0,0.0,0.0,0.0,0.0,0.0,0.0,-2.4624,-2.8411,-2.7418,-3.1806,-3.3877,-3.1177,-3.1917,-3.3169,-3.4652,-3.9022,-4.1462,-4.1147,-4.522,-4.7323,-4.6745,-4.7301,-4.7624,-4.7663,-4.8305,-4.8871,-4.9443,-4.9518,-4.9837,-5.0438,-5.1062,-5.1369,-5.1362,-5.0757,-5.0537,-5.0428,-4.9335,-4.8233,-4.7165,-4.7117,-4.7041,-4.6894,-4.628,-4.618,-4.6123,-4.4395,-4.3866,-4.3781,-4.2279,-4.0431,-3.8235,-3.5206,-3.3631,-3.2047,-2.7555,-2.7853,-2.9163,-2.7772,-2.8369,-2.9088,-2.8249,-2.7408,-2.6427,-2.5077,-2.4279,-2.3475,-2.2213,-2.157,-2.0944,-2.0098,-1.8892,-1.8198,-1.8826,-1.7703,-1.7026,-1.7528,-1.7185,-1.691,-1.6891,-1.699,-1.7013,-1.7008,-1.7522,-1.7836,-1.7909,-1.8187,-1.8618,-1.9122,-1.8938,-1.898,-1.9252,-1.8711,-1.8398,-1.8359,0.0,0.0,0.0,0.0,0.0,0.0,0.0,0.0,0.0,0.0,0.0,0.0,0.0,0.0,0.0,0.0,0.0,0.0,0.0,0.0,0.0,0.0,0.0,-2.0508,-2.8464,-3.3163,-2.9703,-3.3679,-3.6756,-3.6875,-3.6875,-3.8917,-4.3981,-4.5201,-4.6026,-4.687,-4.7846,-4.8321,-4.8292,-4.84,-4.8445,-4.8435,-4.8593,-4.8618,-4.858,-4.8688,-4.8769,-4.8837,-4.8894,-4.8935,-4.8971,-4.8962,-4.8951,-4.8928,-4.8944,-4.8983,-4.8975,-4.886,-4.8743,-4.8507,-4.6813,-4.6659,-4.7007,-4.5347,-4.4124,-4.3183,-4.2357,-4.1401,-4.0453,-3.9615,-3.8715,-3.7623,-3.5888,-3.4208,-3.2697,-3.1853,-3.097,-3.0136,-2.9297,-2.8471,-2.7692,-2.6898,-2.5445,-2.4022,-2.3107,-2.209,-2.1166,-2.0463,-1.9641,-1.9075,-1.9152,-1.8462,0.0,-1.7897,-1.7946,-1.7964,-1.7965,-1.7967,-1.7968,-1.789,-1.7929,-1.8006,-1.8008,-1.8867,-1.9334,-1.929,-2.0077,-2.0116,-1.9247,-1.9241,-1.9238,-1.9278,0.0,0.0,0.0,0.0,0.0,0.0,0.0,0.0,0.0,0.0,0.0,0.0,0.0,0.0,0.0,0.0,0.0,0.0,0.0,0.0,0.0,-2.5876,-3.053,-3.0966,-3.3749,-3.6234,-3.7734,-3.9648,-4.0908,-4.1131,-4.1672,-4.3181,-4.5935,-4.6914,-4.7509,-4.7758,-4.8623,-4.8834,-4.827,-4.8861,-4.9219,-4.9251,-4.9984,-5.035,-5.0377,-5.1023,-5.1381,-5.1491,-5.2805,-5.3081,-5.248,-5.2567,-5.2198,-5.1584,-5.0973,-5.0703,-5.0581,-4.9309,-4.8806,-4.8723,-4.8195,-4.728,-4.6279,-4.5809,-4.4649,-4.3435,-4.3775,-4.2473,-4.0692,-4.0398,-3.929,-3.7771,-3.6023,-3.5213,-3.4326,-3.2232,-3.1549,-3.1041,-2.9573,-2.8603,-2.7753,-2.6955,-2.6412,-2.5658,-2.4202,-2.3685,-2.3032,-2.1566,-2.0573,-2.025,-2.0943,-1.978,-1.9046,-1.9684,-1.9766,-1.9803,-1.9803,-1.9793,-1.9788,-1.9759,-1.9788,-2.0053,-2.0679,-2.0952,-2.1106,-2.1093,-2.1301,-2.103,-2.016,-2.0158,-2.0416,0.0,0.0,0.0,0.0,0.0,0.0,0.0,0.0,0.0,0.0,0.0,0.0,0.0,0.0,0.0,0.0,0.0,0.0,0.0,0.0,0.0,0.0,-3.0005,-3.5753,-3.8473,-3.9039,-4.0021,-4.2465,-4.3521,-4.4281,-4.484,-4.5337,-4.6066,-4.7164,-4.8028,-4.8508,-4.8528,-4.9373,-4.9643,-4.9201,-5.0046,-5.0545,-5.0653,-5.1531,-5.2005,-5.2074,-5.2627,-5.2926,-5.3001,-5.408,-5.4315,-5.3844,-5.3891,-5.3649,-5.3166,-5.2683,-5.2264,-5.1796,0.0,0.0,0.0,0.0,-4.834,-4.6989,-4.6258,-4.5354,-4.4439,-4.4172,-4.2854,-4.1313,-4.0881,-3.9824,-3.8496,-3.7096,-3.6168,-3.5222,-3.3354,-3.2367,-3.1551,-3.0203,-2.8942,-2.7957,-2.7502,-2.6516,-2.5478,-2.4518,-2.4331,0.0,-2.2524,-2.1273,-2.0735,-2.1641,-2.0937,-2.0583,-2.1431,-2.1535,-2.1525,-2.1525,-2.1535,-2.1558,-2.1527,-2.1523,0.0,0.0,0.0,-2.2154,-2.1753,-2.1757,0.0,0.0,0.0,-2.142,-2.2194,-2.2194,0.0,0.0,-2.0789,-2.107,0.0,0.0,0.0,0.0,0.0,0.0,0.0,0.0,0.0,0.0,0.0,0.0,0.0,0.0,0.0,0.0,-3.3502,-3.8838,-4.3132,-4.355,-4.3727,-4.4572,-4.5382,-4.6353,-4.7503,-4.748,-4.7579,-4.7996,-4.8624,-4.9121,-4.9357,-5.0144,0.0,0.0,0.0,-5.2068,-5.2221,-5.3008,-5.3374,-5.3391,-5.3639,-5.3751,-5.3754,-5.3909,-5.3958,-5.3963,-5.3955,-5.3931,-5.3904,-5.3947,-5.3544,-5.2734,-5.1787,-5.141,-5.1291,-5.0346,-4.9478,-4.8536,-4.6892,0.0,0.0,-4.4344,-4.3218,-4.2364,-4.1489,-4.049,-3.9442,-3.8743,-3.723,-3.5706,-3.4986,-3.3573,-3.2085,-3.1198,-2.9649,-2.8338,-2.8212,-2.6392,-2.4683,-2.4569,-2.4528,-2.4278,-2.3495,-2.2021,-2.1162,-2.184,-2.1935,-2.2193,-2.2898,-2.3062,-2.3109,-2.3021,-2.3081,0.0,-2.3156,-2.3043,-2.303,-2.3173,-2.3165,-2.2827,-2.2161,-2.2034,-2.195,-2.1956,-2.1983,-2.2314,-2.3037,-2.3037,-2.3086,-2.3179,-2.3043,-2.2991,0.0,0.0,0.0,0.0,0.0,0.0,0.0,0.0,0.0,0.0,0.0,0.0,0.0,0.0,0.0,-2.9603,-3.6759,-4.2258,-4.3277,-4.4173,-4.4705,-4.4616,-4.4218,-4.4587,-4.629,-4.5835,-4.6364,-4.8538,-4.8891,-4.9625,-5.1047,-5.1346,-5.1798,-5.2516,-5.2708,-5.285,-5.2992,-5.3128,-5.3281,-5.343,-5.4188,0.0,-5.4667,-5.537,-5.541,-5.4858,-5.485,-5.4507,-5.3884,-5.391,-5.3834,-5.359,-5.2021,-5.1401,-5.1297,-5.0336,-4.9886,-4.959,-4.8538,-4.7751,-4.7159,-4.6753,-4.5593,-4.4355,-4.4145,-4.2035,0.0,-4.0322,-3.8726,-3.6865,-3.6729,-3.5382,-3.3873,-3.3083,-3.1033,-2.9054,-2.8436,-2.7849,-2.7054,-2.571,-2.5382,-2.5317,-2.5068,-2.4239,-2.3408,-2.2909,-2.2765,-2.2731,-2.291,-2.3531,-2.3928,-2.3891,-2.3883,-2.4146,-2.4778,-2.3597,-2.345,-2.4833,-2.4262,-2.4146,-2.4662,-2.4006,-2.3659,-2.3659,-2.3659,-2.3697,-2.3852,-2.3852,-2.4237,-2.4885,-2.3474,-2.2856,0.0,0.0,0.0,0.0,0.0,0.0,0.0,0.0,0.0,0.0,0.0,-2.0004,-2.1796,0.0,-3.1504,-3.3008,-3.874,-4.3251,-4.3798,-4.4485,-4.4967,-4.5019,-4.5068,-4.5697,-4.7148,-4.7326,-4.792,-4.925,-4.977,-5.0366,-5.1254,-5.1763,-5.2285,-5.2853,-5.3298,-5.3598,-5.3772,-5.4139,-5.4416,-5.4555,-5.5498,-5.5995,-5.6084,-5.6552,-5.6587,-5.6253,-5.5874,-5.5501,-5.51,-5.4729,-5.4623,-5.453,-5.32,-5.244,-5.1982,-5.1479,-5.1023,-5.0541,-4.9644,-4.8779,-4.8032,-4.7579,-4.63,-4.4904,-4.4897,-4.3059,-4.0987,-4.0987,-3.9468,-3.7648,-3.6777,-3.558,-3.4426,-3.3589,-3.1757,-3.0039,-2.9638,-2.8837,-2.7835,-2.6563,-2.6557,-2.6515,-2.5614,-2.5786,-2.5631,-2.4432,-2.3831,-2.379,-2.4593,-2.4709,-2.4838,-2.5216,-2.5254,-2.5408,-2.5831,-2.5101,-2.5187,-2.6456,-2.5746,-2.5486,-2.5918,-2.5543,-2.512,-2.4707,-2.4707,-2.4899,-2.5332,-2.5322,-2.5746,-2.6554,-2.5244,-2.4399,0.0,0.0,0.0,0.0,0.0,0.0,0.0,-2.0585,-2.1697,-2.5593,-2.6481,-2.7103,-2.8773,-3.261,-3.5713,-3.6243,-4.0216,-4.3534,-4.4196,-4.4675,-4.5068,-4.5499,-4.6284,-4.7282,-4.8523,-4.9155,-4.9608,-4.991,-5.0581,-5.1101,-5.1441,-5.2238,-5.2797,-5.3148,-5.3875,-5.4358,-5.4479,-5.5155,-5.5531,-5.5682,-5.6655,-5.7101,-5.7178,-5.7478,-5.7544,-5.7327,-5.6614,-5.6353,-5.6359,-5.5783,-5.5524,-5.5465,-5.4764,-5.3944,-5.3146,-5.2757,-5.2181,-5.1466,-5.0569,-4.9698,-4.8833,-4.8002,-4.6688,-4.5367,-4.5011,-4.3836,-4.2393,-4.1529,-4.0057,-3.8432,-3.7009,-3.581,-3.4764,-3.4058,-3.2414,-3.0962,-3.0806,-2.9523,-2.8168,-2.7284,-2.7559,-2.7563,-2.6318,-2.7036,-2.7225,-2.5639,-2.5042,-2.5197,-2.6327,-2.5987,-2.5914,-2.6517,-2.6606,-2.6606,-2.6593,-2.6809,-2.7127,-2.7612,-2.706,-2.6776,-2.6972,-2.6956,-2.6661,-2.6009,-2.597,-2.6239,-2.6798,-2.6738,-2.7136,-2.798,-2.7217,-2.64,-1.6079,-1.8251,-2.1691,-2.0733,-2.3337,-2.6125,0.0,-2.6257,-2.6896,-2.7908,-2.8234,-2.8812,-3.0428,-3.4028,-3.6905,-3.7497,-4.1505,-4.4438,-4.3992,-4.4771,-4.5513,-4.5736,-4.6264,-4.7298,-4.9021,-4.8677,-4.8902,-5.0391,-5.0734,-5.1541,-5.305,-5.3375,-5.3936,-5.4724,-5.4922,-5.5042,-5.5174,-5.5326,-5.5437,-5.5547,-5.6609,-5.7058,-5.704,-5.795,-5.7967,-5.7295,-5.6589,-5.6336,-5.6398,-5.6371,-5.6361,-5.6347,-5.6263,-5.5731,-5.4802,-5.3273,-5.2635,-5.2436,-5.1538,-5.0679,-4.9817,-4.8951,-4.806,-4.7009,-4.5476,-4.4315,-4.3351,-4.2493,-4.0972,-3.9607,-3.9414,-3.7614,-3.581,-3.5669,-3.3687,-3.1621,-3.0788,-2.9846,-2.8891,-2.795,-2.7817,-2.7988,-2.851,-2.808,-2.716,-2.5553,-2.6442,-2.7063,-2.6477,-2.695,-2.7331,-2.7281,-2.739,-2.7418,-2.7319,-2.8061,-2.8241,-2.7476,-2.747,-2.7815,-2.8602,-2.864,-2.855,-2.8408,-2.8408,-2.8093,-2.7485,-2.7485,-2.7878,-2.8698,-2.857,-2.7763,-2.7317,-2.6359,-2.5905,-2.7998,-3.0072,-3.1448,-3.0996,-3.1311,-3.2333,-3.4721,-3.519,-3.5565,-3.6917,-3.8713,-4.027,-4.1192,-4.324,-4.4807,-4.5204,-4.5698,-4.6339,-4.7012,-4.7352,-4.7753,-4.8319,-4.8982,-4.965,-5.0355,-5.1424,-5.2386,-5.3128,-5.3779,-5.4547,-5.551,-5.5632,-5.5978,-5.6559,-5.6643,-5.6752,-5.6856,-5.7862,-5.8342,-5.8412,-5.8929,-5.8742,-5.802,-5.731,-5.7055,-5.7037,-5.6573,-5.6433,-5.6485,-5.6514,-5.6302,-5.5809,-5.4099,-5.3154,-5.2565,-5.1704,-5.0842,-4.9944,-4.9124,-4.827,-4.7377,-4.6124,-4.4799,-4.3514,-4.2656,-4.1133,-3.9569,-3.8541,-3.751,-3.6551,-3.5982,-3.4581,-3.313,-3.2201,-3.1274,-3.0248,-2.8856,-2.8871,-2.9078,-2.8872,-2.9298,-2.9254,-2.8023,-2.7698,-2.7774,-2.8297,-2.7812,-2.7752,-2.8584,-2.8348,-2.8509,-2.9427,-2.8985,-2.8714,-2.8866,-2.8457,-2.8601,-2.9437,-2.9505,-2.9718,-3.0127,-3.0127,-3.0219,-3.038,-3.0371,-3.056,-3.095,-3.0392,-2.9785,-3.1906,-3.0819,-2.9682,-3.3352,-3.5281,-3.6119,-3.5563,-3.5752,-3.6833,-3.9512,-4.0037,-4.0341,-4.1341,-4.1877,-4.2541,-4.364,-4.4163,-4.4804,-4.5889,-4.6212,-4.6783,-4.8047,-4.8275,-4.837,-4.8384,-4.9416,-5.0267,-5.0749,-5.2046,-5.2899,-5.3194,-5.4158,-5.5044,-5.5747,-5.6172,-5.6677,-5.7384,-5.7476,-5.7558,-5.77,-5.8623,-5.9178,-5.9306,-5.9511,-5.9318,-5.8874,-5.8125,-5.7712,-5.7521,-5.6897,-5.6573,-5.6449,-5.6478,-5.6464,-5.6294,-5.484,-5.3789,-5.2928,-5.2066,-5.1206,-5.0308,-4.9491,-4.8633,-4.7734,-4.6601,-4.5234,-4.3786,-4.2687,-4.1275,-3.978,-3.8259,-3.7531,-3.6988,-3.6267,-3.5204,-3.411,-3.3153,-3.2223,-3.1098,-2.964,-2.9875,-3.0121,-2.9428,-3.0461,-3.1204,-3.0735,-2.9544,-2.8952,-2.9657,-2.8871,-2.8743,-3.0133,-2.9795,-2.9869,-3.0847,-2.9868,-2.9358,-2.9808,-2.9485,-2.9557,-3.0158,-3.044,-3.0856,-3.1427,-3.1409,-3.1709,-3.2368,-3.2335,-3.2448,-3.2745,-3.2088,-3.1882,-2.299,-2.6805,-3.0548,-3.341,-3.7041,-3.9815,-3.9394,-3.9547,-3.9781,-3.985,-4.012,-4.0539,-4.1291,-4.1812,-4.2479,-4.3353,-4.3875,-4.4481,-4.5453,-4.574,-4.6525,-4.8424,-4.8684,-4.9061,-5.0003,-4.9756,-5.0218,-5.1919,-5.2264,-5.2827,-5.372,-5.4875,-5.5507,-5.5507,-5.6472,-5.7024,-5.7125,-5.7154,-5.7283,-5.7544,-5.8394,-5.893,-5.9109,-5.9393,-5.9605,-5.9707,-5.891,-5.818,-5.7518,-5.756,-5.7041,-5.6325,-5.6368,-5.6394,-5.6285,-5.5477,-5.4658,-5.3822,-5.2962,-5.2103,-5.1203,-5.0337,-4.9475,-4.8421,-4.6703,-4.5594,-4.4514,-4.2783,-4.1662,-4.0726,-3.9768,-3.8305,-3.7044,-3.6897,-3.5554,-3.4044,-3.3031,-3.2063,-3.1119,-3.0152,-3.0464,-3.0904,-3.0922,-3.1562,-3.2289,-3.2997,-3.2334,-3.125,-2.9776,-3.0206,-3.0951,-3.1832,-3.1927,-3.157,-3.0781,-3.071,-3.0412,-2.9663,-3.0338,-3.0809,-3.0977,-3.1713,-3.2165,-3.226,-3.2203,-3.2222,-3.2297,-3.2317,-3.2713,-3.3468,-3.343,-3.3823,-2.762,-3.0977,-3.4245,-3.8223,-3.9675,-4.0036,-3.9935,-3.99,-3.9933,-4.002,-3.8569,-3.7538,-3.8445,-3.9312,-4.0168,-4.1172,-4.3599,-4.5761,-4.6777,-4.7027,-4.7571,-4.8959,-4.9159,-4.9621,-5.0724,-5.086,-5.1146,-5.1736,-5.2459,-5.3289,-5.434,-5.4754,-5.5503,-5.6699,-5.7267,-5.7791,-5.8353,-5.8573,-5.8782,-5.8981,-5.9498,-5.9798,-5.995,-6.0188,-6.0358,-6.0393,-5.9649,-5.9186,-5.8927,-5.7838,-5.7271,-5.7055,-5.652,-5.6349,-5.6355,-5.6098,-5.5503,-5.4591,-5.3175,-5.2081,-5.1219,-5.0356,-4.9484,-4.8532,-4.7362,-4.5591,-4.389,-4.3272,-4.2043,-4.0719,-3.9772,-3.8612,-3.7537,-3.6845,-3.6142,-3.5337,-3.4331,-3.3752,-3.3184,-3.2255,-3.1757,-3.1486,-3.1406,-3.2113,-3.3111,-3.4303,-3.3412,-3.2232,-3.1051,-3.1184,-3.1667,-3.2437,-3.2112,-3.1935,-3.2218,-3.1712,-3.1325,-3.115,-3.1395,-3.1549,-3.1611,-3.1934,-3.2405,-3.2947,-3.2906,-3.3168,-3.374,-3.3693,-3.3843,-3.4233,-3.4191,-3.4599,-3.1458,-3.4062,-3.6241,-4.0254,-4.095,-4.0527,-4.0104,-4.0205,-4.027,-3.9952,-3.7546,-3.565,-3.6278,-3.6233,-3.6392,-3.7308,-3.9769,-4.2455,-4.5077,-4.525,-4.6214,-4.921,-4.9363,-4.9758,-5.1191,-5.1499,-5.1692,-5.1916,-5.3156,-5.4063,-5.4533,-5.5133,-5.6029,-5.7154,-5.7813,-5.8381,-5.8865,-5.9177,-5.94,-5.9578,-5.9944,-6.0159,-6.0313,-6.0506,-6.066,-6.0781,-6.0294,-5.9956,-5.9669,-5.8644,-5.7882,-5.7373,-5.69,-5.6586,-5.6378,-5.6398,-5.5861,-5.4935,-5.3585,-5.2506,-5.1564,-5.0426,-4.9471,-4.8553,-4.7642,-4.5788,-4.3886,-4.353,-4.2364,-4.1059,-4.0101,-3.9122,-3.8137,-3.7194,-3.6587,-3.5969,-3.4944,-3.463,-3.4233,-3.3254,-3.2804,-3.2501,-3.2379,-3.3276,-3.4328,-3.5284,-3.4375,-3.3386,-3.2882,-3.2354,-3.2416,-3.3471,-3.3165,-3.313,-3.3697,-3.3229,-3.2847,-3.2692,-3.2655,-3.2701,-3.2769,-3.2836,-3.3141,-3.3665,-3.362,-3.4008,-3.4876,-3.4721,-3.4931,-3.531,-3.5264,-3.5562,-3.3957,-3.5848,-3.6761,-3.9658,-4.1,-4.1307,-4.0256,-4.0627,-4.0881,-3.9597,-3.6952,-3.4792,-3.4587,-3.2872,-3.174,-3.243,-3.3468,-3.5974,-4.1185,-4.1352,-4.3239,-4.9412,-4.9372,-4.9578,-5.1479,-5.1779,-5.2028,-5.2572,-5.4173,-5.4848,-5.4326,-5.5904,-5.6882,-5.6919,-5.8079,-5.8693,-5.873,-5.8977,-5.9213,-5.944,-5.9832,-6.0064,-6.0182,-6.0361,-6.0583,-6.0834,-6.0796,-6.0365,-5.9742,-5.9765,-5.8858,-5.7443,-5.7459,-5.7028,-5.6382,-5.6403,-5.5819,-5.4941,-5.4139,-5.3321,-5.2317,-5.0597,-4.942,-4.8516,-4.7709,-4.613,-4.442,-4.3582,-4.264,-4.1677,-4.0793,-3.9813,-3.8852,-3.7888,-3.6939,-3.5969,-3.4969,-3.4667,-3.433,-3.3385,-3.361,-3.3944,-3.3835,-3.4907,-3.5872,-3.6006,-3.5254,-3.4739,-3.4971,-3.367,-3.3303,-3.488,-3.5036,-3.5092,-3.511,-3.511,-3.4897,-3.4252,-3.4164,-3.4215,-3.4413,-3.4389,-3.445,-3.4568,-3.4559,-3.4883,-3.5603,-3.5553,-3.5899,-3.6604,-3.6604,-3.6705,-3.5835,-3.7997,-3.9988,-4.1542,-4.1596,-4.1409,-4.1644,-4.1774,-4.0988,-3.7781,-3.4831,-3.1903,-2.8913,-3.083,-3.2958,-3.3127,-3.8722,-4.3757,-4.5864,-4.6679,-4.7931,-5.0347,-5.0506,-5.0786,-5.147,-5.2588,-5.3119,-5.2767,-5.3374,-5.4303,-5.5486,-5.597,-5.6587,-5.7397,-5.7804,-5.8382,-5.9062,-6.0189,-6.0895,-6.1014,-6.1392,-6.1571,-6.1671,-6.1191,-6.1111,-6.1277,-6.0774,-6.0495,-6.0339,-5.9734,-5.9353,-5.8974,-5.7735,-5.7257,-5.7105,-5.647,-5.6096,-5.576,-5.4865,-5.3612,-5.2251,-5.1127,-4.9718,-4.8438,-4.8192,-4.6447,-4.4457,-4.4182,-4.2988,-4.1646,-4.1356,-4.0024,-3.8727,-3.8416,-3.7565,-3.6836,-3.697,-3.6329,-3.5818,-3.6033,-3.5599,-3.5254,-3.5351,-3.5525,-3.5933,-3.6708,-3.5833,-3.5231,-3.5483,-3.4643,-3.4388,-3.5405,-3.5514,-3.5606,-3.582,-3.5732,-3.5688,-3.5662,-3.5717,-3.5745,-3.5836,-3.6535,-3.6885,-3.6912,-3.7461,-3.7572,-3.7219,-3.7165,-3.6915,-3.6599,-3.6599,-3.696,-3.7997,-3.9711,-4.1078,-4.1409,-4.1444,-4.1008,-3.9434,-3.9203,-3.814,-3.4052,-3.0711,-2.7917,-2.5846,-2.8178,-3.0595,-3.1092,-3.6907,-4.2361,-4.5207,-4.5882,-4.7292,-5.0643,-5.0474,-5.062,-5.1969,-5.2533,-5.2976,-5.3531,-5.4258,-5.4948,-5.5707,-5.6169,-5.6717,-5.7388,-5.7631,-5.827,-5.9265,-6.058,-6.1326,-6.1367,-6.1806,-6.2033,-6.214,-6.186,-6.1673,-6.1535,-6.1162,-6.0824,-6.0546,-6.0112,-5.9773,-5.9507,-5.8585,-5.7891,-5.7334,-5.6846,-5.642,-5.5994,-5.5056,-5.3894,-5.2578,-5.1354,-5.0046,-4.8787,-4.8037,-4.6684,-4.5274,-4.4453,-4.3443,-4.2508,-4.2006,-4.1016,-4.0019,-3.9513,-3.8864,-3.8302,-3.8095,-3.7521,-3.7124,-3.7341,-3.6666,-3.6204,-3.663,-3.6532,-3.6716,-3.7644,-3.6932,-3.6434,-3.693,-3.5741,-3.5163,-3.6085,-3.6158,-3.6399,-3.7046,-3.7025,-3.7202,-3.768,-3.7418,-3.7411,-3.7875,-3.8037,-3.8014,-3.7766,-3.8153,-3.819,-3.771,-3.7681,-3.7616,-3.7505,-3.7505,-3.7792,-3.9974,-4.0858,-4.0987,-4.0573,-4.1,-4.0443,-3.6272,-3.5598,-3.4496,-2.9773,-2.6352,-2.4153,-2.3935,-2.5258,-2.6977,-2.8665,-3.2747,-3.7578,-4.291,-4.3268,-4.5014,-5.0445,-4.9815,-4.9999,-5.2462,-5.2056,-5.2358,-5.4253,-5.5532,-5.6043,-5.5544,-5.6417,-5.6984,-5.7138,-5.7753,-5.848,-5.9495,-6.0744,-6.1403,-6.1447,-6.1868,-6.2183,-6.2409,-6.244,-6.2184,-6.1658,-6.1573,-6.1162,-6.0506,-6.0533,-6.0163,-5.9547,-5.955,-5.8641,-5.7352,-5.7288,-5.6708,-5.5861,-5.5088,-5.4146,-5.305,-5.1537,-5.0378,-4.9247,-4.7615,-4.6896,-4.6299,-4.4592,-4.3933,-4.3551,-4.2631,-4.2184,-4.1724,-4.0756,-4.0304,-3.981,-3.8907,-3.8489,-3.8176,-3.7863,-3.7148,-3.6898,-3.7685,-3.7646,-3.782,-3.8679,-3.8176,-3.7925,-3.8714,-3.6898,-3.5897,-3.6852,-3.6928,-3.739,-3.8413,-3.8492,-3.8888,-3.9747,-3.913,-3.9053,-3.991,-3.9287,-3.8683,-3.8132,-3.8132,-3.8066,-3.7927,-3.7927,-3.8235,-3.8841,-3.8841,-3.8909,-4.0275,-4.0631,-4.0995,-4.1137,-4.1359,-4.0631,-3.7527,-3.6694,-3.4622,-2.7594,-2.5589,-2.4088,-2.0786,-2.3122,-2.6994,-3.145,-3.6289,-4.125,-4.6505,-4.7959,-4.8924,-5.0022,-5.0057,-5.0414,-5.1616,-5.2091,-5.2775,-5.3836,-5.4828,-5.5636,-5.6039,-5.6311,-5.6653,-5.7036,-5.8507,-5.9525,-6.0066,-6.1871,-6.2928,-6.3193,-6.3419,-6.3671,-6.3873,-6.3199,-6.2597,-6.205,-6.1435,-6.0773,-6.0137,-6.0294,-6.036,-6.0265,-5.9588,-5.885,-5.8004,-5.7292,-5.6521,-5.5827,-5.5594,-5.4513,-5.3031,-5.205,-5.0606,-4.9066,-4.8066,-4.7116,-4.6138,-4.5118,-4.418,-4.3379,-4.3058,-4.2305,-4.1613,-4.1297,-4.0529,-3.991,-4.0193,-3.9373,-3.8437,-3.7757,-3.7433,-3.7502,-3.8282,-3.8312,-3.8522,-3.938,-3.9297,-3.9181,-3.9443,-3.8107,-3.7256,-3.7542,-3.8079,-3.8581,-3.8941,-3.9481,-3.9949,-4.0346,-4.0271,-4.034,-4.0623,-4.0544,-4.0463,-4.0349,-4.0386,-4.0125,-3.9491,-3.9491,-3.9502,-3.9516,-3.9516,-3.9849,-4.0528,-4.068,-4.0831,-4.0929,-4.0798,-3.9406,-3.4326,-3.2785,-3.0377,-2.3069,-2.1194,-2.0287,-1.8623,-2.1796,-2.5648,-2.8759,-3.5392,-4.1199,-4.4247,-4.7386,-4.9607,-5.0163,-4.9889,-5.0266,-5.2054,-5.1974,-5.2482,-5.4079,-5.4661,-5.5209,-5.5901,-5.6328,-5.6653,-5.6984,-5.8296,-5.9118,-5.937,-6.1374,-6.2472,-6.266,-6.3424,-6.391,-6.4166,-6.3343,-6.2749,-6.2281,-6.1444,-6.0709,-6.0038,-6.0167,-6.0226,-6.0199,-5.9496,-5.8782,-5.8035,-5.7302,-5.6477,-5.5703,-5.5682,-5.4501,-5.2938,-5.2449,-5.1185,-4.9576,-4.8226,-4.7357,-4.6531,-4.518,-4.4384,-4.3857,-4.3573,-4.3095,-4.2612,-4.232,-4.1393,-4.0492,-4.0237,-3.9289,-3.8486,-3.8483,-3.8082,-3.8113,-3.9434,-3.9211,-3.9171,-4.0035,-4.0488,-4.0729,-4.0729,-4.0618,-4.0103,-3.8818,-3.8993,-3.9358,-3.966,-3.9944,-4.0378,-4.1071,-4.1107,-4.1361,-4.1941,-4.1648,-4.1209,-4.0876,-4.0876,-4.0544,-3.9735,-4.0174,-4.0324,-4.0258,-4.0258,-4.0477,-4.0285,-4.0625,-4.0597,-4.0329,-4.0201,-3.8219,-3.0975,-2.8869,-2.6394,-1.919,-1.7207,-1.6836,-1.7187,-2.0166,-2.3262,-2.5327,-3.2057,-3.8038,-4.0979,-4.4936,-4.8183,-5.0051,-4.9542,-4.9955,-5.2443,-5.1749,-5.2115,-5.4264,-5.4689,-5.5088,-5.5636,-5.6126,-5.6546,-5.6829,-5.7778,-5.8332,-5.8573,-6.0541,-6.1643,-6.1835,-6.3012,-6.3736,-6.4,-6.3263,-6.2673,-6.2211,-6.141,-6.0676,-6.0007,-6.0038,-5.9954,-5.9726,-5.9311,-5.8513,-5.757,-5.7175,-5.6368,-5.5508,-5.5508,-5.4302,-5.2805,-5.2679,-5.1585,-4.9977,-4.8157,-4.7403,-4.6825,-4.4974,-4.4317,-4.414,-4.3865,-4.3664,-4.3461,-4.2958,-4.2145,-4.1185,-4.0202,-3.9287,-3.8802,-3.9217,-3.8706,-3.8699,-4.0243,-3.9997,-3.9814,-4.0594,-4.1446,-4.1974,-4.193,-4.2776,-4.2617,-4.0694,-4.0247,-4.0202,-4.0372,-4.0477,-4.0912,-4.1829,-4.1827,-4.2226,-4.3248,-4.2522,-4.1905,-4.1468,-4.1286,-4.0886,-4.0302,-4.0921,-4.1249,-4.1249,-4.1249,-4.1249,-3.8738,-3.9924,-4.0363,-3.9665,-3.991,-3.8219,-3.0461,-2.8636,-2.6338,-1.844,-1.6777,-1.6675,-1.6777,-1.7466,-1.9568,-2.4402,-2.6584,-3.0784,-3.9787,-4.201,-4.4308,-4.8626,-4.9052,-4.9752,-5.1629,-5.141,-5.2085,-5.4072,-5.4791,-5.5297,-5.5694,-5.5729,-5.5993,-5.6437,-5.7388,-5.8052,-5.8383,-6.0441,-6.1545,-6.1835,-6.2919,-6.3557,-6.3786,-6.3051,-6.2436,-6.1807,-6.1202,-6.0443,-5.9647,-5.9918,-5.9526,-5.8774,-5.891,-5.8061,-5.6728,-5.6728,-5.6154,-5.5326,-5.5236,-5.4025,-5.252,-5.2437,-5.1326,-4.9682,-4.7791,-4.7043,-4.6443,-4.4426,-4.3758,-4.3631,-4.3426,-4.3286,-4.3031,-4.2573,-4.2221,-4.176,-4.0771,-4.0227,-3.9844,-3.9385,-3.9041,-3.9129,-4.0097,-4.0332,-4.0578,-4.1091,-4.1939,-4.2463,-4.2335,-4.3139,-4.357,-4.336,-4.2423,-4.1624,-4.0989,-4.1558,-4.2073,-4.2501,-4.2501,-4.2904,-4.3776,-4.309,-4.2982,-4.3595,-4.291,-4.2515,-4.2519,-4.2591,-4.2627,-4.2701,-4.2701,-4.2701,-3.8023,-3.9054,-3.9153,-3.9324,-3.7796,-3.4872,-2.9685,-2.6533,-2.3066,-1.7115,-1.5742,-1.5566,-1.5566,-1.5918,-1.7071,-1.9624,-2.331,-2.7347,-3.1609,-3.5535,-3.9571,-4.3932,-4.4669,-4.6389,-5.0511,-5.0924,-5.1761,-5.3881,-5.4523,-5.4896,-5.5157,-5.5602,-5.5914,-5.6253,-5.6814,-5.7227,-5.7557,-5.8987,-6.009,-6.086,-6.1908,-6.2632,-6.2947,-6.2178,-6.1525,-6.0902,-6.0191,-5.9776,-5.9545,-5.965,-5.9261,-5.8494,-5.819,-5.7434,-5.6387,-5.5988,-5.5568,-5.5195,-5.5075,-5.3898,-5.2352,-5.2205,-5.0953,-4.9205,-4.7541,-4.684,-4.6259,-4.4304,-4.366,-4.3529,-4.3178,-4.2482,-4.1851,-4.1658,-4.1375,-4.1054,-4.0567,-4.0228,-3.9901,-3.9712,-3.943,-3.9582,-4.0561,-4.1174,-4.1418,-4.1244,-4.2753,-4.3519,-4.2532,-4.3663,-4.4178,-4.3139,-4.2738,-4.2467,-4.2278,-4.2101,-4.2376,-4.3171,-4.3171,-4.3611,-4.452,-4.38,-4.3548,-4.3836,-4.3592,-4.3159,-4.2652,-4.3235,-4.3274,-4.2842,-4.2765,-4.2804,-3.6344,-3.8063,-3.8901,-3.9289,-3.66,-3.2821,-2.909,-2.4926,-2.058,-1.6159,-1.4883,-1.459,-1.459,-1.5039,-1.5664,-1.6406,-2.0416,-2.41,-2.6031,-3.0287,-3.4765,-3.9066,-3.9922,-4.2385,-4.8084,-5.0357,-5.2201,-5.3849,-5.4342,-5.4598,-5.4856,-5.5434,-5.5777,-5.5914,-5.6273,-5.6707,-5.7241,-5.8347,-5.9452,-6.0505,-6.1349,-6.1976,-6.2287,-6.1348,-6.0733,-6.0297,-5.9514,-5.929,-5.9401,-5.9248,-5.8713,-5.7985,-5.7346,-5.6603,-5.5835,-5.5396,-5.5102,-5.4962,-5.4882,-5.3513,-5.1744,-5.1813,-5.0418,-4.8464,-4.7105,-4.6563,-4.6038,-4.4039,-4.3391,-4.3177,-4.2592,-4.192,-4.1314,-4.0943,-4.08,-4.0788,-4.0866,-4.0446,-4.0193,-4.0447,-4.0169,-4.0178,-4.1207,-4.1856,-4.2077,-4.1487,-4.3062,-4.3791,-4.2471,-4.3847,-4.4467,-4.3336,-4.3325,-4.3289,-4.3068,-4.275,-4.2951,-4.3793,-4.387,-4.427,-4.5179,-4.4797,-4.4474,-4.439,-4.452,-4.4124,-4.3171,-4.3868,-4.384,-4.3048,-4.2969,-4.3156,-3.3096,-3.6994,-4.0167,-3.9563,-3.6823,-3.3139,-2.8789,-2.4334,-1.9901,-1.5699,-1.4434,-1.4087,-1.4087,-1.4844,-1.5547,-1.6056,-1.7546,-2.0393,-2.5377,-2.74,-3.0103,-3.4723,-3.5609,-3.8161,-4.4007,-4.9872,-5.355,-5.398,-5.4346,-5.4667,-5.4992,-5.5157,-5.5279,-5.5507,-5.5914,-5.6664,-5.7782,-5.8969,-6.0134,-6.1193,-6.1594,-6.1871,-6.1976,-6.0704,-6.0129,-6.0054,-5.9514,-5.929,-5.9178,-5.8643,-5.7884,-5.6949,-5.6343,-5.564,-5.492,-5.4971,-5.4874,-5.4692,-5.4533,-5.2719,-5.0538,-5.1295,-4.9743,-4.7418,-4.6428,-4.61,-4.5625,-4.3541,-4.2729,-4.239,-4.1403,-4.1599,-4.1747,-4.0499,-4.0707,-4.1325,-4.1885,-4.1194,-4.0788,-4.1788,-4.1292,-4.0968,-4.1822,-4.2202,-4.2298,-4.2009,-4.2763,-4.3019,-4.2127,-4.3469,-4.4555,-4.4655,-4.4655,-4.4209,-4.3004,-4.3511,-4.4025,-4.4387,-4.452,-4.4963,-4.5749,-4.604,-4.6083,-4.5784,-4.604,-4.5645,-4.4607,-4.4693,-4.4384,-4.3596,-4.3755,-4.4232,-2.801,-2.9971,-3.1204,-3.1149,-2.8471,-2.5444,-2.3898,-2.0261,-1.6669,-1.4727,-1.4004,-1.3789,-1.4029,-1.4355,-1.498,-1.6309,-1.748,-1.8946,-2.1121,-2.5203,-2.9489,-3.3692,-4.0589,-4.5905,-4.8142,-5.095,-5.287,-5.3382,-5.3652,-5.3983,-5.4303,-5.4592,-5.4965,-5.5507,-5.5799,-5.6624,-5.8123,-5.8483,-5.9434,-6.1038,-6.0847,-6.0834,-6.1024,-6.027,-5.9621,-5.9111,-5.8974,-5.8902,-5.8945,-5.8278,-5.7528,-5.6739,-5.612,-5.539,-5.4635,-5.4667,-5.4565,-5.4434,-5.4265,-5.2447,-5.0222,-5.0341,-4.8569,-4.6177,-4.5076,-4.526,-4.5443,-4.3391,-4.2889,-4.2852,-4.1985,-4.1732,-4.149,-4.1021,-4.0516,-4.0331,-4.0982,-4.0803,-4.0603,-4.1023,-4.1214,-4.1439,-4.1827,-4.2821,-4.3338,-4.2687,-4.3423,-4.363,-4.2737,-4.3331,-4.3791,-4.3742,-4.4376,-4.476,-4.4554,-4.4144,-4.4226,-4.4997,-4.5214,-4.5401,-4.565,-4.5864,-4.5658,-4.4999,-4.5129,-4.4814,-4.3906,-4.4485,-4.4628,-4.4293,-4.4504,-4.4689,-2.3945,-2.6124,-2.7391,-2.751,-2.4678,-2.1799,-2.1633,-1.813,-1.4785,-1.4184,-1.3672,-1.3398,-1.3828,-1.397,-1.4593,-1.623,-1.7344,-1.8899,-2.1452,-2.5243,-2.9351,-3.3585,-4.1761,-4.7258,-4.7692,-5.0517,-5.252,-5.3179,-5.3315,-5.3551,-5.3817,-5.4239,-5.4683,-5.5148,-5.5706,-5.6481,-5.7438,-5.843,-5.9437,-6.0461,-6.0295,-6.0139,-6.0083,-5.9501,-5.9005,-5.8572,-5.8656,-5.8591,0.0,-5.76,-5.6893,-5.6107,-5.5463,-5.4856,-5.4405,-5.4405,-5.43,-5.4161,-5.3981,-5.1974,-4.9492,-4.96,-4.7531,-4.4885,-4.3989,-4.4029,-4.4183,-4.3099,-4.291,-4.2891,-4.2255,-4.189,-4.1545,-4.1081,-4.0444,-4.0165,-4.0857,-4.069,-4.0607,-4.1187,-4.146,-4.1783,-4.2313,-4.3357,-4.4009,-4.3751,-4.3993,-4.401,-4.3426,-4.3561,-4.3712,-4.3662,-4.4505,-4.5242,-4.5536,-4.5032,-4.501,-4.5658,-4.5552,-4.5503,-4.5513,-4.541,-4.5142,-4.4555,-4.4729,-4.4521,-4.3971,-4.4478,-4.465,-4.4607,-4.5058,-4.5244,0.0,-2.4473,-2.7207,-2.7177,-2.423,-2.1331,-2.1177,-1.7522,0.0,-1.4126,-1.3535,-1.3105,-1.3516,-1.3945,-1.4648,-1.5937,-1.7227,-1.9871,-2.5211,-2.7499,-3.0391,-3.5021,-4.0425,-4.3899,-4.411,-4.9067,-5.252,-5.311,-5.3315,-5.3382,-5.3518,-5.4145,-5.4494,-5.4494,-5.5706,-5.6253,-5.6085,-5.8589,-5.9763,-5.9579,-5.9903,-5.9798,-5.9171,-5.8629,-5.8393,-5.8393,-5.8609,-5.8211,-5.7435,-5.6815,-5.6033,-5.5175,-5.4462,-5.4161,-5.4161,-5.4125,-5.4017,-5.3833,-5.3641,-5.1261,-4.8414,-4.8689,-4.654,-4.3709,-4.3287,-4.2633,-4.2143,-4.2555,-4.2693,-4.2614,-4.2272,-4.2175,-4.1954,-4.0988,-4.0603,-4.0641,-4.124,-4.0866,-4.0747,-4.2049,-4.197,-4.2125,-4.322,-4.3883,-4.4437,-4.5015,-4.4574,-4.4181,-4.4215,-4.4199,-4.4216,-4.4354,-4.501,-4.5581,-4.606,-4.599,-4.604,-4.6189,-4.5738,-4.5458,-4.5446,-4.5045,-4.4777,-4.468,-4.4793,-4.4757,-4.4574,-4.4626,-4.467,-4.4741,-4.5534,-4.5891,-1.6107,0.0,-1.9255,-1.8968,-1.8157,-1.7337,0.0,-1.5678,-1.4629,-1.4629,-1.4219,-1.3965,-1.4414,-1.4824,-1.5547,-1.6855,-1.7871,-2.0308,-2.5642,-3.2562,-3.885,-4.345,-4.6085,-4.7621,-4.7934,-5.0388,-5.2053,-5.2449,-5.2834,-5.3179,-5.3484,-5.3883,-5.4239,-5.4494,-5.5294,-5.5764,-5.5936,-5.6992,-5.816,-5.942,-5.9154,-5.9005,-5.9029,-5.8364,-5.8215,-5.8393,-5.8437,-5.7999,-5.7223,-5.654,-5.5686,-5.4791,-5.4205,-5.387,-5.3757,-5.368,-5.36,-5.3404,-5.3072,-5.0775,-4.7692,-4.5462,-4.4341,-4.3754,-4.3512,-4.2622,-4.1744,-4.152,-4.2181,-4.297,-4.2737,-4.2586,-4.2398,-4.2091,-4.1104,-4.0341,-4.0965,-4.112,-4.1307,-4.1991,-4.2678,-4.3212,-4.3498,-4.4606,-4.5589,-4.5946,-4.5417,-4.5142,-4.5692,-4.4975,-4.4595,-4.5131,-4.5442,-4.5996,-4.6879,-4.6253,-4.5939,-4.6189,-4.6724,-4.6786,-4.6187,-4.6258,-4.6234,-4.6141,-4.563,-4.5356,-4.522,-4.5275,-4.5685,-4.629,-4.6468,-4.6621,-1.4082,-1.5,-1.582,-1.5781,-1.5762,-1.5703,-1.5469,-1.5078,-1.4785,-1.4785,-1.459,-1.4661,-1.5543,-1.6209,-1.7205,-1.8678,-2.0923,-2.4259,-2.9268,-3.5311,-4.0416,-4.3548,-4.5363,-4.7038,-4.8887,-5.0253,-5.1401,-5.2203,-5.259,-5.2972,-5.3484,-5.3685,-5.3883,-5.4014,-5.4683,-5.5234,-5.5706,-5.6273,-5.7084,-5.816,-5.8404,-5.8405,-5.8239,-5.7993,-5.7997,-5.8179,-5.7899,-5.7309,-5.6498,-5.5821,-5.497,-5.4109,-5.3748,-5.3563,-5.3444,-5.3322,-5.3198,-5.3023,-5.2717,-5.0552,-4.7375,-4.4494,-4.3627,-4.3602,-4.3162,-4.2383,-4.1579,-4.167,-4.1918,-4.2296,-4.2482,-4.2445,-4.2343,-4.2056,-4.1545,-4.1136,-4.11,-4.1474,-4.1948,-4.2421,-4.2807,-4.326,-4.3864,-4.4461,-4.5171,-4.6097,-4.5549,-4.5432,-4.6206,-4.544,-4.5079,-4.575,-4.6047,-4.6517,-4.7439,-4.7126,-4.6986,-4.7241,-4.7412,-4.7371,-4.6998,-4.6389,-4.6047,-4.6,-4.5976,-4.5906,-4.5859,-4.5999,-4.6258,-4.6637,-4.6731,-4.6778,-1.3574,-1.4522,-1.5437,-1.5345,-1.5371,-1.543,-1.5663,-1.5349,-1.5113,-1.5399,-1.5362,-1.5709,-1.6977,-1.7943,-1.92,-2.0899,-2.5271,-2.9968,-3.4357,-3.7566,-3.9923,-4.1177,-4.2901,-4.5201,-4.8291,-4.9466,-5.0652,-5.1894,-5.2312,-5.2731,-5.328,-5.3416,-5.3484,-5.3551,-5.4209,-5.4807,-5.5507,-5.6106,-5.6492,-5.6689,-5.7706,-5.7876,-5.7388,-5.7583,-5.781,-5.7914,-5.7198,-5.6434,-5.5662,-5.4907,-5.4137,-5.3359,-5.3277,-5.3235,-5.3235,-5.303,-5.2857,-5.268,-5.1963,-5.008,-4.7448,-4.4751,-4.3798,-4.3592,-4.2925,-4.217,-4.1696,-4.2204,-4.1779,-4.1235,-4.1769,-4.2004,-4.2011,-4.156,-4.1794,-4.2025,-4.1485,-4.1943,-4.2564,-4.3026,-4.3002,-4.32,-4.4148,-4.4215,-4.4572,-4.5917,-4.5542,-4.546,-4.6378,-4.5829,-4.5623,-4.6433,-4.668,-4.7133,-4.8003,-4.8062,-4.8242,-4.8644,-4.7994,-4.7553,-4.7597,-4.6469,-4.5729,-4.5482,-4.6187,-4.6504,-4.635,-4.6495,-4.6495,-4.6447,-4.6779,-4.6862,-1.3848,-1.6218,-1.7942,-1.5509,-1.5156,-1.5683,-1.6846,-1.6495,-1.6437,-1.8217,-1.8029,-1.7917,-1.932,-2.0025,-2.0902,-2.2502,-2.9351,-3.5507,-3.8514,-4.2347,-4.5019,-4.5342,-4.6093,-4.6795,-4.7525,-4.9102,-5.0204,-5.0408,-5.1619,-5.2378,-5.2449,-5.3144,-5.3618,-5.3915,-5.4303,-5.4807,-5.5507,-5.6106,-5.6383,-5.6437,-5.6867,-5.7129,-5.7239,-5.7289,-5.7437,-5.7594,-5.6839,-5.6035,-5.5231,-5.4561,-5.3756,-5.2893,-5.3023,-5.298,-5.285,-5.2463,-5.2408,-5.219,-4.9578,-4.86,-4.7994,-4.506,-4.4389,-4.4653,-4.4047,-4.3113,-4.2242,-4.171,-4.1243,-4.0869,-4.0809,-4.1166,-4.1544,-4.1577,-4.1533,-4.1654,-4.2185,-4.2612,-4.3026,-4.3623,-4.4307,-4.474,-4.453,-4.5351,-4.6109,-4.6101,-4.5908,-4.6113,-4.7146,-4.6618,-4.6467,-4.7403,-4.7472,-4.7893,-4.8855,-4.8429,-4.8432,-4.9291,-4.8697,-4.8115,-4.7632,-4.792,-4.7533,-4.6257,-4.69,-4.692,-4.6204,-4.6253,-4.635,-4.659,-4.7201,-4.7568,-1.3691,-1.577,-1.7791,-1.7545,-1.9205,-2.1103,-2.1945,-2.151,-2.1082,-2.1671,-2.1306,-2.1038,-2.151,-2.3034,-2.5676,-3.0189,-3.351,-3.632,-3.8609,-4.0185,-4.1465,-4.2327,-4.3337,-4.4708,-4.6901,-4.8423,-4.9489,-5.0066,-5.1263,-5.2092,-5.2307,-5.2903,-5.3416,-5.3751,-5.408,-5.4303,-5.4465,-5.5413,-5.6085,-5.6383,-5.6546,-5.676,-5.7087,-5.7138,-5.712,-5.689,-5.6088,-5.5239,-5.4391,-5.3726,-5.3089,-5.2627,-5.2761,-5.2672,-5.249,-5.2114,-5.1835,-5.1422,-4.9513,-4.8435,-4.7696,-4.576,-4.492,-4.4519,-4.3981,-4.3215,-4.2377,-4.1989,-4.1153,-4.0403,-4.0458,-4.0934,-4.1409,-4.1577,-4.2152,-4.2601,-4.2617,-4.3065,-4.3714,-4.4331,-4.4549,-4.4792,-4.5462,-4.5428,-4.5452,-4.592,-4.5954,-4.6147,-4.6735,-4.6893,-4.7292,-4.8161,-4.8321,-4.8631,-4.9504,-4.9451,-4.9253,-4.9013,-4.8679,-4.8205,-4.7533,-4.7799,-4.7448,-4.6337,-4.6555,-4.68,-4.6871,-4.6871,-4.7131,-4.7703,-4.8055,-4.8296,-1.3633,-1.5749,-1.8324,-2.0128,-2.2443,-2.4605,-2.6042,-2.5468,-2.4662,-2.4873,-2.4654,-2.4377,-2.415,-2.635,-3.0134,-3.614,-3.6734,-3.7162,-3.9235,-3.9138,-3.9263,-4.0355,-4.145,-4.3265,-4.6126,-4.7511,-4.8583,-4.9586,-5.0709,-5.1605,-5.2092,-5.2624,-5.2941,-5.2943,-5.3311,-5.3645,-5.3751,-5.4503,-5.5344,-5.6273,-5.6328,-5.6546,-5.6881,-5.7036,-5.6754,-5.62,-5.5447,-5.4553,-5.3614,-5.2954,-5.2536,-5.2315,-5.2408,-5.2304,-5.2018,-5.1722,-5.128,-5.077,-4.9746,-4.8543,-4.7339,-4.6136,-4.5048,-4.4121,-4.3595,-4.3053,-4.2532,-4.2386,-4.1566,-4.0672,-4.0568,-4.0998,-4.1502,-4.1674,-4.2609,-4.3403,-4.2924,-4.3481,-4.4178,-4.477,-4.4764,-4.5109,-4.6286,-4.5648,-4.5327,-4.6225,-4.6214,-4.6329,-4.7009,-4.742,-4.806,-4.8953,-4.9114,-4.9286,-4.9758,-4.9985,-4.9742,-4.8767,-4.8661,-4.824,-4.7432,-4.7573,-4.7467,-4.7046,-4.7222,-4.7538,-4.7924,-4.7975,-4.8221,-4.8643,-4.8886,-4.9058,-1.3984,-1.7678,-2.1664,-2.2692,-2.1713,-2.1609,-2.5869,-2.5054,-2.4247,-2.7268,-2.7756,-2.7714,-2.7796,-2.9688,-3.2283,-3.5246,-3.8042,-4.0713,-4.3158,-4.4123,-4.4541,-4.4237,-4.4579,-4.5007,-4.5278,-4.6455,-4.7553,-4.8254,-4.9701,-5.0823,-5.154,-5.2053,-5.2051,-5.1462,-5.1899,-5.2864,-5.4431,-5.3625,-5.4077,-5.5901,-5.6106,-5.6328,-5.6653,-5.676,-5.6397,-5.5605,-5.5135,-5.4339,-5.3266,-5.2618,-5.2246,-5.2102,-5.2005,-5.1708,-5.1367,-5.128,-5.0964,-5.048,-4.9437,-4.8342,-4.7283,-4.5872,-4.4725,-4.3772,-4.3295,-4.3019,-4.2834,-4.2615,-4.2488,-4.2223,-4.1362,-4.1442,-4.1787,-4.1933,-4.2583,-4.3174,-4.329,-4.385,-4.4438,-4.4809,-4.5748,-4.6444,-4.6495,-4.6898,-4.7301,-4.7673,-4.7158,-4.731,-4.9061,-4.8685,-4.8699,-4.978,-4.9907,-4.9689,-4.9111,-4.9243,-4.9373,-4.9431,-4.8925,-4.824,-4.7432,-4.8099,-4.8802,-4.9434,-5.0171,-5.0206,-4.9504,-4.9696,-4.9395,-4.871,-4.9466,-4.9818,-1.6074,-1.9908,-2.3672,-2.4274,-2.5342,-2.7024,-3.0216,-2.983,-2.9398,-3.1352,-3.1116,-3.0576,-3.071,-3.2625,-3.4641,-3.6133,-3.9147,-4.1564,-4.2218,-4.3259,-4.3957,-4.3801,-4.4189,-4.4496,-4.4799,-4.6096,-4.7236,-4.7965,-4.9235,-5.039,-5.1317,-5.1835,-5.1872,-5.1254,-5.1833,-5.2496,-5.3122,-5.3197,-5.4061,-5.5648,-5.5742,-5.5993,-5.6492,-5.6045,-5.547,-5.4799,-5.4093,-5.3288,-5.2386,-5.2064,-5.1858,-5.1708,-5.1505,-5.1263,-5.107,-5.0803,-5.0418,-4.9861,-4.8815,-4.7715,-4.6558,-4.5343,-4.4311,-4.3476,-4.3052,-4.3193,-4.3361,-4.3298,-4.3428,-4.3363,-4.232,-4.2158,-4.2353,-4.2537,-4.2733,-4.3121,-4.3764,-4.4216,-4.4739,-4.5755,-4.6447,-4.7005,-4.7613,-4.7818,-4.8082,-4.8517,-4.8219,-4.8376,-4.9342,-4.9231,-4.9316,-4.9918,-5.0424,-5.0621,-5.0449,-5.1014,-5.129,-5.0914,-4.9853,-4.9363,-4.9574,-4.9855,-5.0136,-5.0417,-5.0241,-5.0241,-5.0452,-4.9978,-4.989,-5.0048,-5.0418,-5.0559,-1.7332,-2.0617,-2.3787,-2.4915,-2.7164,-2.9789,-3.2377,-3.2324,-3.2126,-3.3656,-3.3321,-3.2906,-3.341,-3.4826,-3.6194,-3.6926,-3.9808,-4.1835,-4.1249,-4.2491,-4.3329,-4.317,-4.3536,-4.4004,-4.4419,-4.5578,-4.6622,-4.7391,-4.869,-4.9769,-5.0736,-5.141,-5.1448,-5.0846,-5.1362,-5.1562,-5.1417,-5.2272,-5.3356,-5.4765,-5.5069,-5.5449,-5.5881,-5.5401,-5.4687,-5.3754,-5.3304,-5.2573,-5.1708,-5.1571,-5.1418,-5.1158,-5.1034,-5.0838,-5.0694,-5.0397,-4.9999,-4.9521,-4.8711,-4.7443,-4.6085,-4.5308,-4.4207,-4.3178,-4.316,-4.333,-4.3621,-4.3975,-4.4257,-4.4281,-4.3621,-4.317,-4.2975,-4.3455,-4.3388,-4.3516,-4.4327,-4.4814,-4.5304,-4.6419,-4.688,-4.7404,-4.8256,-4.8292,-4.8456,-4.9198,-4.8967,-4.9125,-5.0059,-4.9778,-4.9692,-5.0263,-5.1011,-5.1519,-5.1543,-5.224,-5.2532,-5.237,-5.1584,-5.1134,-5.1224,-5.147,-5.161,-5.161,-5.124,-5.1134,-5.1259,-5.0697,-5.0592,-5.0873,-5.0927,-5.1016,-1.7386,-1.9516,-2.1903,-2.4563,-2.6402,-2.837,-3.134,-3.132,-3.1346,-3.3644,-3.4164,-3.4574,-3.5873,-3.6316,-3.6753,-3.7486,-4.0081,-4.1761,-4.1126,-4.2491,-4.3409,-4.2769,-4.325,-4.3801,-4.4266,-4.4874,-4.5528,-4.6441,-4.7766,-4.8839,-4.9737,-5.0704,-5.0815,-4.9944,-5.0017,-4.9925,-4.962,-5.0683,-5.1813,-5.3107,-5.4143,-5.472,-5.4768,-5.5043,-5.4189,-5.252,-5.2901,-5.2422,-5.1298,-5.1228,-5.0964,-5.0585,-5.0585,-5.0453,-5.0171,-4.9999,-4.9708,-4.9411,-4.9107,-4.7698,-4.6029,-4.5844,-4.4355,-4.2716,-4.3492,-4.3492,-4.3451,-4.4687,-4.4999,-4.5069,-4.524,-4.4388,-4.3686,-4.4789,-4.4496,-4.4266,-4.5145,-4.5767,-4.6224,-4.6552,-4.7111,-4.7671,-4.8098,-4.8261,-4.8592,-4.9749,-4.9274,-4.9497,-5.1458,-5.0427,-4.9932,-5.0986,-5.1804,-5.2218,-5.2218,-5.2373,-5.2805,-5.3567,-5.3938,-5.3474,-5.2102,-5.2769,-5.319,-5.319,-5.3812,-5.3427,-5.2032,-5.2032,-5.1645,-5.0908,-5.107,-5.1051,-1.9727,-2.3732,-2.7182,-2.7186,-2.9905,-3.2527,-3.2447,-3.1879,-3.188,-3.3802,-3.4654,-3.5182,-3.531,-3.6322,-3.7137,-3.7182,-3.9527,-4.1156,-4.0665,-4.1942,-4.2769,-4.2281,-4.2688,-4.317,-4.3566,-4.4343,-4.5153,-4.5988,-4.7466,-4.869,-4.9512,-5.0144,-5.0148,-4.9524,-4.9417,-4.9726,-5.0325,-5.0919,-5.2149,-5.4086,-5.3839,-5.4027,-5.4394,-5.3979,-5.3313,-5.2431,-5.167,-5.1264,-5.1141,-5.0784,-5.0509,-5.0285,-5.0057,-4.9884,-4.9649,-4.9195,-4.8951,-4.8568,-4.7091,-4.6208,-4.5524,-4.4158,-4.352,-4.317,-4.3233,-4.3667,-4.411,-4.4661,-4.5096,-4.553,-4.6366,-4.5585,-4.4701,-4.5368,-4.5271,-4.5336,-4.625,-4.6386,-4.6454,-4.7111,-4.8001,-4.8696,-4.8928,-4.9859,-5.0593,-5.0623,-5.0486,-5.0413,-5.0725,-5.0946,-5.1206,-5.1691,-5.2379,-5.2888,-5.3046,-5.3714,-5.4191,-5.4433,-5.4704,-5.443,-5.3509,-5.38,-5.366,-5.2984,-5.3287,-5.3182,-5.2634,-5.2783,-5.2734,-5.2523,-5.2993,-5.3239,-2.2175,-2.5902,-2.9017,-2.9909,-3.1994,-3.358,-3.2849,-3.2545,-3.2774,-3.3954,-3.4879,-3.5608,-3.6,-3.6785,-3.7551,-3.7897,-3.937,-4.0312,-3.9741,-4.0924,-4.1738,-4.141,-4.2024,-4.2659,-4.325,-4.3957,-4.468,-4.531,-4.6649,-4.7795,-4.8795,-4.916,-4.9264,-4.903,-4.8772,-4.889,-4.9393,-5.0424,-5.1488,-5.2711,-5.3009,-5.3107,-5.3021,-5.2739,-5.2312,-5.1649,-5.0829,-5.0509,-5.0564,-5.0228,-4.9827,-4.9412,-4.9453,-4.918,-4.87,-4.8601,-4.8386,-4.79,-4.6683,-4.5766,-4.5016,-4.4172,-4.3491,-4.3129,-4.35,-4.3882,-4.4423,-4.4849,-4.5258,-4.5594,-4.637,-4.6348,-4.6207,-4.6454,-4.6039,-4.5745,-4.673,-4.7001,-4.7169,-4.7662,-4.859,-4.9389,-4.9491,-5.0357,-5.0958,-5.0926,-5.1292,-5.1586,-5.1401,-5.2106,-5.2575,-5.2551,-5.3169,-5.3616,-5.3839,-5.4316,-5.4655,-5.4655,-5.493,-5.4704,-5.3938,-5.436,-5.4209,-5.3265,-5.3381,-5.3416,-5.3265,-5.3381,-5.3614,-5.3929,-5.4325,-5.4594,-2.443,-2.6666,-2.8764,-3.243,-3.2948,-3.2617,-3.2723,-3.3184,-3.3759,-3.4086,-3.4788,-3.583,-3.7382,-3.7473,-3.7784,-3.9128,-3.9431,-3.9266,-3.8625,-3.9653,-4.0453,-4.051,-4.141,-4.2333,-4.309,-4.3645,-4.4112,-4.4496,-4.557,-4.6711,-4.7719,-4.7977,-4.8275,-4.8537,-4.811,-4.7814,-4.7503,-4.9459,-5.0259,-5.0045,-5.1813,-5.209,-5.1055,-5.1489,-5.1242,-5.0341,-5.0171,-5.0057,-4.9825,-4.9708,-4.9026,-4.8116,-4.8802,-4.8388,-4.7445,-4.8152,-4.7934,-4.7337,-4.7174,-4.5958,-4.4519,-4.4994,-4.3981,-4.2911,-4.4024,-4.4247,-4.4289,-4.5164,-4.5352,-4.5395,-4.5593,-4.6645,-4.7712,-4.7718,-4.6737,-4.6104,-4.6957,-4.7572,-4.8129,-4.8302,-4.9136,-4.9838,-5.001,-5.0215,-5.0523,-5.0861,-5.1997,-5.2833,-5.3028,-5.3741,-5.4042,-5.3639,-5.3994,-5.4372,-5.4529,-5.4494,-5.4529,-5.4598,-5.4821,-5.4606,-5.3948,-5.4739,-5.473,-5.3783,-5.3982,-5.4052,-5.3992,-5.4061,-5.4539,-5.5235,-5.5392,-5.5488,-2.4202,-2.8115,-3.1758,-3.2711,-3.3458,-3.3745,-3.2694,-3.2793,-3.3178,-3.3698,-3.4061,-3.4941,-3.7091,-3.7198,-3.7434,-3.8882,-3.9057,-3.9053,-3.9224,-3.9939,-4.0513,-4.0605,-4.1281,-4.1951,-4.2281,-4.2981,-4.3615,-4.4004,-4.5417,-4.6416,-4.6799,-4.7173,-4.7467,-4.7686,-4.7367,-4.759,-4.8528,-4.9326,-5.0092,-5.0947,-5.1011,-5.0958,-5.072,-5.108,-5.0725,-4.9825,-4.9825,-4.9649,-4.935,-4.9229,-4.8606,-4.772,-4.8245,-4.7858,-4.7038,-4.7473,-4.7504,-4.7004,-4.5597,-4.4814,-4.4359,-4.3639,-4.3363,-4.3364,-4.3966,-4.4297,-4.4538,-4.4993,-4.5129,-4.4954,-4.4291,-4.5223,-4.6487,-4.7585,-4.7882,-4.7951,-4.8472,-4.8524,-4.8763,-4.9329,-5.0222,-5.0909,-5.0768,-5.1512,-5.2227,-5.2571,-5.3551,-5.4228,-5.4464,-5.5111,-5.5416,-5.4995,-5.5063,-5.4991,-5.4563,-5.4494,-5.477,-5.5357,-5.5519,-5.579,-5.6111,-5.5425,-5.4583,-5.3662,-5.4965,-5.5591,-5.5466,-5.6217,-5.669,-5.699,-5.7457,-5.7898,-2.5263,-2.8622,-3.1546,-3.306,-3.3839,-3.3913,-3.2647,-3.271,-3.3033,-3.3396,-3.3785,-3.4651,-3.6811,-3.681,-3.7009,-3.8444,-3.8265,-3.8069,-3.8145,-3.8468,-3.9003,-3.9732,-4.0461,-4.1274,-4.2087,-4.2739,-4.3299,-4.3615,-4.4602,-4.5403,-4.5866,-4.6041,-4.6307,-4.6803,-4.6574,-4.6775,-4.7756,-4.8521,-4.9193,-4.9687,-4.9852,-4.9907,-4.9869,-5.0172,-5.0026,-4.9471,-4.9471,-4.929,-4.8951,-4.8798,-4.8034,-4.6943,-4.7602,-4.7045,-4.6061,-4.6743,-4.6892,-4.6486,-4.5186,-4.4596,-4.4325,-4.356,-4.3403,-4.3521,-4.3908,-4.4143,-4.4343,-4.4723,-4.498,-4.5254,-4.5846,-4.5939,-4.6013,-4.674,-4.7046,-4.7499,-4.8723,-4.8763,-4.8803,-4.9538,-5.0648,-5.1421,-5.1454,-5.2373,-5.3461,-5.4448,-5.4828,-5.5108,-5.5451,-5.5792,-5.5758,-5.5025,-5.5266,-5.5163,-5.4563,-5.4775,-5.509,-5.5598,-5.5977,-5.6357,-5.6771,-5.6522,-5.5963,-5.5139,-5.6027,-5.6616,-5.6867,-5.7508,-5.802,-5.8368,-5.8851,-5.9155,-2.5855,-2.8357,-3.0394,-3.3482,-3.4069,-3.3646,-3.2715,-3.2779,-3.3095,-3.333,-3.3862,-3.4777,-3.6556,-3.6529,-3.6722,-3.7924,-3.7443,-3.685,-3.6726,-3.6768,-3.7318,-3.8585,-3.9532,-4.0542,-4.1913,-4.2548,-4.2871,-4.2912,-4.3585,-4.417,-4.483,-4.4894,-4.5273,-4.6059,-4.5856,-4.608,-4.6652,-4.7545,-4.806,-4.8001,-4.8761,-4.9053,-4.8923,-4.9168,-4.929,-4.9168,-4.9046,-4.8861,-4.8576,-4.8483,-4.7554,-4.6234,-4.6881,-4.6192,-4.5081,-4.6168,-4.6333,-4.5913,-4.5056,-4.4551,-4.4184,-4.3696,-4.3538,-4.353,-4.3852,-4.4048,-4.4217,-4.4481,-4.4909,-4.5835,-4.8202,-4.7684,-4.6392,-4.5918,-4.5823,-4.6453,-4.8885,-4.902,-4.8871,-4.9746,-5.0896,-5.1884,-5.2178,-5.3235,-5.4528,-5.585,-5.5761,-5.5744,-5.6269,-5.6303,-5.5962,-5.509,-5.5537,-5.5541,-5.4913,-5.5365,-5.5713,-5.5947,-5.6466,-5.6879,-5.7185,-5.7771,-5.7805,-5.7251,-5.7348,-5.7659,-5.8183,-5.8481,-5.8894,-5.9386,-5.9683,-5.9814,-2.3374,-2.695,-3.1071,-3.406,-3.3943,-3.3022,-3.2867,-3.3095,-3.3421,-3.3824,-3.4159,-3.4812,-3.6388,-3.6458,-3.6577,-3.7519,-3.695,-3.6488,-3.6824,-3.6825,-3.7098,-3.82,-3.9229,-4.0067,-4.065,-4.155,-4.1966,-4.1733,-4.2921,-4.3512,-4.3106,-4.4219,-4.5129,-4.5594,-4.5709,-4.6152,-4.6892,-4.6989,-4.74,-4.8001,-4.8327,-4.852,-4.8547,-4.861,-4.8798,-4.8984,-4.8547,-4.8292,-4.8292,-4.8131,-4.7436,-4.6411,-4.6116,-4.5503,-4.4883,-4.5891,-4.608,-4.5642,-4.4345,-4.3858,-4.3758,-4.2952,-4.2947,-4.3335,-4.3852,-4.4382,-4.4716,-4.4217,-4.4886,-4.6456,-4.9014,-4.9568,-4.8762,-4.6392,-4.5823,-4.6739,-5.0176,-5.0269,-4.996,-5.0801,-5.1932,-5.286,-5.3122,-5.4542,-5.5529,-5.5314,-5.5861,-5.652,-5.6947,-5.7087,-5.7227,-5.7192,-5.7395,-5.7221,-5.6331,-5.6466,-5.6842,-5.726,-5.7567,-5.8047,-5.8702,-5.8806,-5.8908,-5.894,-5.9007,-5.9143,-5.938,-5.938,-5.9547,-5.9714,-5.9814,-5.9879,-2.4383,-2.7937,-3.1189,-3.4086,-3.3783,-3.2764,-3.2959,-3.3186,-3.3354,-3.3686,-3.4126,-3.4861,-3.6307,-3.6172,-3.6139,-3.709,-3.6559,-3.6033,-3.6225,-3.6117,-3.6416,-3.7593,-3.8226,-3.8943,-3.9882,-4.0891,-4.1477,-4.1397,-4.2465,-4.3021,-4.291,-4.362,-4.4266,-4.4799,-4.5024,-4.528,-4.5655,-4.6071,-4.6684,-4.7537,-4.777,-4.8098,-4.8356,-4.8163,-4.8163,-4.8453,-4.8292,-4.7801,-4.7177,-4.7111,-4.6485,-4.5497,-4.5408,-4.5114,-4.4817,-4.5642,-4.5864,-4.5697,-4.4849,-4.4059,-4.3366,-4.2867,-4.3046,-4.3516,-4.3554,-4.4048,-4.467,-4.476,-4.5344,-4.6427,-4.8593,-4.9178,-4.8979,-4.8229,-4.9299,-5.0422,-5.0466,-5.0168,-5.0214,-5.1317,-5.2408,-5.3362,-5.3923,-5.4999,-5.5879,-5.6244,-5.666,-5.6814,-5.6503,-5.7289,-5.743,-5.6438,-5.7123,-5.7329,-5.6707,-5.6883,-5.726,-5.7739,-5.8187,-5.8565,-5.9012,-5.9012,-5.9149,-5.9453,-5.9386,-5.9386,-5.9621,-5.9652,-5.9748,-5.9779,-5.9943,-6.0008,-2.4809,-2.7671,-2.9699,-3.3005,-3.3142,-3.2602,-3.313,-3.3306,-3.3465,-3.366,-3.4013,-3.4679,-3.595,-3.5554,-3.5339,-3.6179,-3.5782,-3.5332,-3.5251,-3.5305,-3.571,-3.6796,-3.7259,-3.7942,-3.9064,-3.9986,-4.0683,-4.0844,-4.1748,-4.2372,-4.2583,-4.3081,-4.3645,-4.4343,-4.451,-4.4682,-4.4938,-4.5611,-4.6294,-4.7098,-4.737,-4.7605,-4.8033,-4.7704,-4.7638,-4.777,-4.7638,-4.7111,-4.629,-4.5898,-4.5407,-4.4945,-4.5066,-4.4915,-4.4756,-4.5412,-4.5573,-4.5499,-4.5278,-4.4475,-4.3521,-4.3166,-4.3364,-4.3596,-4.3329,-4.3838,-4.4518,-4.4706,-4.5604,-4.6802,-4.8275,-4.8604,-4.8852,-4.9661,-5.2049,-5.3344,-5.0532,-5.0089,-5.0653,-5.2104,-5.295,-5.3757,-5.4618,-5.5421,-5.617,-5.688,-5.7022,-5.6908,-5.6535,-5.7525,-5.7837,-5.6748,-5.7603,-5.8117,-5.7775,-5.7912,-5.8118,-5.8427,-5.8703,-5.8909,-5.9012,-5.9012,-5.9149,-5.9621,-5.9453,-5.9453,-5.9753,-5.9814,-5.9879,-5.9879,-6.0218,-6.0282,-2.2712,-2.4257,-2.5691,-3.0097,-3.1719,-3.2466,-3.3357,-3.3746,-3.3885,-3.3994,-3.3991,-3.4151,-3.4781,-3.454,-3.4304,-3.4348,-3.4332,-3.4179,-3.4018,-3.4658,-3.5249,-3.5764,-3.6687,-3.756,-3.799,-3.8795,-3.9325,-3.9325,-4.0464,-4.1295,-4.1427,-4.2654,-4.3723,-4.4572,-4.4551,-4.4934,-4.5714,-4.612,-4.6468,-4.6892,-4.6961,-4.7167,-4.7537,-4.7335,-4.7235,-4.7202,-4.6348,-4.609,-4.5994,-4.4461,-4.4432,-4.5277,-4.5231,-4.4962,-4.4631,-4.5098,-4.498,-4.4723,-4.5055,-4.4918,-4.4479,-4.3974,-4.3615,-4.3329,-4.3329,-4.4088,-4.4871,-4.3738,-4.5574,-4.8042,-4.8521,-4.8604,-4.8852,-4.9661,-5.2049,-5.3344,-5.0532,-5.0557,-5.1664,-5.3455,-5.3825,-5.424,-5.5379,-5.615,-5.6568,-5.6311,-5.6285,-5.6633,-5.7712,-5.8065,-5.8681,-5.9973,-6.0579,-6.0686,-6.0506,-6.0249,-6.0012,-5.9766,-5.9254,-5.9012,-5.9012,-5.9012,-5.9149,-5.9621,-5.9621,-5.9718,-6.0107,-6.0107,-6.0107,-6.0107,-6.0879,-6.0809,-2.2154,-2.3365,-2.4601,-2.8702,-3.0272,-3.1142,-3.2513,-3.3287,-3.3813,-3.4052,-3.402,-3.3899,-3.3889,-3.3729,-3.3845,-3.4481,-3.4126,-3.3855,-3.3975,-3.4541,-3.4921,-3.5059,-3.5656,-3.6443,-3.7476,-3.7942,-3.8573,-3.9562,-4.0406,-4.1076,-4.1397,-4.2254,-4.301,-4.3723,-4.3364,-4.3577,-4.4382,-4.4583,-4.5228,-4.6512,-4.6233,-4.6604,-4.7566,-4.664,-4.6302,-4.6454,-4.5565,-4.5346,-4.5691,-4.4385,-4.3584,-4.3299,-4.4039,-4.4123,-4.3879,-4.4572,-4.4723,-4.4648,-4.4723,-4.5507,-4.629,-4.6124,-4.5957,-4.5723,-4.4855,-4.4907,-4.4989,-4.3658,-4.5327,-4.7709,-4.8469,-4.8604,-4.9149,-5.1165,-5.295,-5.3818,-5.2807,-5.3245,-5.379,-5.3526,-5.413,-5.4755,-5.5325,-5.6139,-5.6734,-5.688,-5.7323,-5.7674,-5.7842,-5.8801,-5.9485,-5.9701,-6.0143,-6.0563,-6.0891,-6.0617,-6.0625,-6.0768,-6.0563,-6.0496,-6.0496,-6.0496,-6.0393,-6.0352,-6.0804,-6.0761,-6.0107,-6.0633,-6.0879,-6.0879,-6.1652,-6.1827,-2.0916,-2.2112,-2.3478,-2.6544,-2.8418,-2.9941,-3.1544,-3.2597,-3.3361,-3.383,-3.3813,-3.3536,-3.3086,-3.2891,-3.305,-3.3823,-3.3463,-3.3238,-3.3643,-3.421,-3.459,-3.4564,-3.5219,-3.6008,-3.6687,-3.7232,-3.7914,-3.8899,-3.9487,-4.0153,-4.0895,-4.1638,-4.2305,-4.2839,-4.2604,-4.2773,-4.3519,-4.3841,-4.4622,-4.5738,-4.5432,-4.5805,-4.6767,-4.5773,-4.5559,-4.6032,-4.493,-4.4749,-4.5107,-4.3959,-4.3132,-4.2564,-4.3395,-4.3502,-4.3409,-4.4035,-4.4374,-4.4419,-4.4572,-4.5799,-4.7309,-4.7309,-4.7309,-4.713,-4.6232,-4.5963,-4.6047,-4.6411,-4.7045,-4.788,-4.8438,-4.9281,-5.0537,-5.2622,-5.3671,-5.4103,-5.4103,-5.4749,-5.515,-5.4211,-5.4724,-5.5509,-5.5973,-5.6591,-5.7299,-5.784,-5.8184,-5.8547,-5.8849,-5.9802,-6.0385,-6.0333,-6.0664,-6.1011,-6.1497,-6.1366,-6.1341,-6.1559,-6.139,-6.1185,-6.0944,-6.1222,-6.1155,-6.0734,-6.1568,-6.1599,-6.0779,-6.1406,-6.1652,-6.1687,-6.2424,-6.2775,0.0,0.0,0.0,-2.3519,-2.6186,-2.8898,-3.045,-3.1591,-3.253,-3.3381,-3.3378,-3.3059,-3.2461,-3.2055,-3.1904,-3.2368,-3.2254,-3.229,-3.2854,-3.356,-3.4147,-3.4397,-3.5482,-3.6114,-3.571,-3.6687,-3.7289,-3.7289,-3.7693,-3.8592,-3.9785,-4.0866,-4.1528,-4.1897,-4.2273,-4.2738,-4.3293,-4.4142,-4.4622,-4.4646,-4.4685,-4.4897,-4.5277,-4.4827,-4.5168,-4.6017,-4.4622,-4.4164,-4.4297,-4.3211,-4.2994,-4.3205,-4.3196,-4.3227,-4.3329,-4.3675,-4.3862,-4.4018,-4.4542,-4.5779,-4.7309,-4.7309,-4.7309,-4.7309,-4.7309,-4.7222,-4.8022,-5.1662,-5.0759,-4.8696,-4.8727,-5.0728,-5.2966,-5.3844,-5.4103,-5.4103,-5.4103,-5.4813,-5.5539,-5.5474,-5.5799,-5.6461,-5.739,-5.7681,-5.815,-5.9085,-5.8775,-5.9041,-6.0718,-6.092,-6.1301,-6.2313,-6.2381,-6.2459,-6.2693,-6.2426,-6.2204,-6.2204,-6.1593,-6.0978,-6.0289,-6.1155,-6.1398,-6.0769,-6.1774,-6.2226,-6.2156,-6.2357,-6.2424,-6.2459,-6.3267,-6.3618,-1.8864,0.0,0.0,0.0,0.0,0.0,-2.8479,-2.987,-3.0991,-3.2122,-3.2079,-3.1882,-3.1943,-3.1294,-3.1033,-3.1966,-3.2117,-3.2184,-3.2389,-3.3199,-3.381,-3.3894,-3.4386,-3.4989,-3.5838,-3.5871,-3.6307,-3.7234,-3.7693,-3.8286,-3.8932,-4.0421,-4.1077,-4.0646,-4.1624,-4.2274,-4.2652,-4.3468,-4.3944,-4.4008,-4.3827,-4.4173,-4.489,-4.4141,-4.4306,-4.5258,-4.4688,-4.4123,-4.3556,-4.3013,-4.3137,-4.3563,-4.3344,-4.3021,-4.2799,-4.304,-4.3588,-4.4303,-4.5247,-4.5903,-4.6432,-4.7048,-4.7309,-4.7222,-4.6491,-4.6343,-4.714,-5.1498,-5.1647,-5.0655,-5.1379,-5.2144,-5.2966,-5.3844,-5.4103,-5.3931,-5.3233,-5.5915,-5.8227,-5.7191,-5.7297,-5.7691,-5.797,-5.8327,-5.8747,-5.9106,-5.9643,-6.0214,-6.0852,-6.1357,-6.1874,-6.2347,-6.2189,-6.2268,-6.2649,-6.2207,-6.2021,-6.2204,-6.1593,-6.1461,-6.1841,-6.2228,-6.2369,-6.237,-6.3241,-6.3415,-6.2995,-6.3199,-6.3199,-6.3063,-6.3971,-6.4425,-1.9317,-1.9689,-2.0323,-2.1164,0.0,0.0,-2.7257,-2.8782,-3.0226,-3.208,-3.2006,-3.1692,-3.1766,-3.1211,-3.0881,-3.136,-3.1706,-3.2104,-3.2406,-3.2928,-3.33,-3.33,-3.393,-3.4536,-3.4978,-3.5402,-3.5871,-3.6389,-3.6982,-3.7653,-3.8539,-3.9159,-3.9567,-3.9867,-4.0554,-4.1262,-4.1953,-4.253,-4.2904,-4.3137,-4.2776,-4.3051,-4.385,-4.3372,-4.3687,-4.451,-4.445,-4.3854,-4.291,-4.2737,-4.2917,-4.3145,-4.3001,-4.2718,-4.231,-4.2637,-4.3166,-4.4024,-4.5142,-4.5665,-4.5985,-4.6521,-4.6961,-4.7135,-4.6135,-4.6164,-4.7229,-5.0621,-5.1598,-5.1637,-5.1817,-5.2273,-5.2966,-5.3844,-5.4103,-5.4159,-5.4329,-5.7195,-5.9457,-5.8648,-5.8535,-5.8674,-5.8674,-5.9004,-5.9463,-5.9923,-6.0378,-6.0784,-6.1165,-6.1648,-6.2076,-6.2381,-6.2189,-6.2189,-6.2537,-6.2055,-6.1934,-6.2501,-6.2002,-6.1907,-6.2461,-6.3026,-6.3169,-6.2856,-6.3833,-6.4078,-6.3764,-6.3902,-6.3902,-6.3868,-6.4462,-6.4706,-2.0135,-2.0288,-2.0737,-2.0797,-2.2113,0.0,-2.6281,-2.7791,-2.9427,-3.2048,-3.1945,-3.1475,-3.1406,-3.1178,-3.0824,-3.0527,-3.1087,-3.1776,-3.2536,-3.2624,-3.2624,-3.271,-3.3665,-3.4084,-3.3572,-3.4905,-3.5538,-3.5032,-3.5871,-3.7023,-3.8346,-3.7515,-3.7796,-3.9314,-3.9361,-3.9988,-4.1232,-4.1505,-4.1775,-4.2023,-4.1587,-4.1792,-4.2509,-4.2613,-4.3205,-4.3957,-4.3957,-4.3469,-4.2462,-4.2435,-4.2347,-4.2354,-4.2291,-4.2228,-4.1951,-4.2228,-4.2698,-4.3485,-4.4558,-4.5346,-4.5895,-4.5895,-4.6609,-4.7227,-4.6283,-4.6609,-4.7695,-4.964,-5.1181,-5.2002,-5.1061,-5.1787,-5.2966,-5.3844,-5.4324,-5.4977,-5.6619,-5.8427,-5.9716,-5.9716,-5.9545,-5.9428,-5.9428,-5.9762,-6.0357,-6.102,-6.085,-6.0973,-6.1609,-6.1837,-6.211,-6.2381,-6.2189,-6.2076,-6.2381,-6.2004,-6.2055,-6.2966,-6.2576,-6.2488,-6.2737,-6.3757,-6.3935,-6.3167,-6.4078,-6.4533,-6.4533,-6.4463,-6.4498,-6.4706,-6.4706,-6.4706,-2.1748,-2.1006,-2.0827,-2.1365,-2.1784,0.0,-2.3951,-2.4912,-2.5993,-2.7729,-2.7682,-2.7697,-2.8782,-2.8551,-2.852,-2.9554,-2.9772,-3.0415,-3.2072,-3.2137,-3.2222,-3.2559,-3.2422,-3.2414,-3.2636,-3.3616,-3.4311,-3.4393,-3.5625,-3.6619,-3.7046,-3.7353,-3.7813,-3.8489,-3.8486,-3.9083,-4.0461,-4.0973,-4.1085,-4.0724,-4.0825,-4.1389,-4.2322,-4.2206,-4.2999,-4.4388,-4.324,-4.2874,-4.3072,-4.2031,-4.1724,-4.1883,-4.1855,-4.1785,-4.1785,-4.1647,-4.231,-4.3458,-4.4356,-4.5169,-4.5895,-4.5895,-4.6774,-4.757,-4.717,-4.7135,-4.7935,-5.0757,-5.191,-5.2155,-5.1788,-5.2242,-5.2966,-5.3844,-5.5809,-5.7611,-5.7963,-5.8882,-5.9716,-5.9716,-5.9849,-6.001,-6.0181,-6.0436,-6.067,-6.1086,-6.1201,-6.1298,-6.1513,-6.1709,-6.1951,-6.2381,-6.2189,-6.2076,-6.2381,-6.2402,-6.2634,-6.3,-6.309,-6.3411,-6.4255,-6.4797,-6.5329,-6.5743,-6.5473,-6.5372,-6.5372,-6.4601,-6.4393,-6.4706,-6.4706,-6.4706,-2.2776,-2.1934,-2.1605,-2.1276,-2.1455,0.0,0.0,-2.3707,-2.4757,-2.6732,-2.6672,-2.6641,-2.7856,-2.7671,-2.7546,-2.8347,-2.8786,-2.9449,-3.0608,-3.107,-3.1422,-3.1506,-3.1505,-3.1574,-3.1818,-3.2639,-3.3436,-3.4068,-3.4944,-3.5526,-3.5802,-3.6263,-3.6803,-3.7317,-3.7453,-3.7968,-3.9112,-3.9249,-3.9372,-3.955,-3.9875,-4.0604,-4.1686,-4.1881,-4.2455,-4.3145,-4.2947,-4.2414,-4.1696,-4.1674,-4.1463,-4.1215,-4.1526,-4.1535,-4.1396,-4.1738,-4.2453,-4.3426,-4.4325,-4.5167,-4.5953,-4.6388,-4.7148,-4.7829,-4.791,-4.8328,-4.9193,-5.0758,-5.1698,-5.2155,-5.2002,-5.2336,-5.2966,-5.3844,-5.6252,-5.8274,-5.8274,-5.9004,-5.9716,-5.9716,-5.9804,-5.9979,-6.0292,-6.0548,-6.0802,-6.1035,-6.1252,-6.1417,-6.1467,-6.1695,-6.1951,-6.2381,-6.2268,-6.2268,-6.2381,-6.2459,-6.2785,-6.3358,-6.3623,-6.4118,-6.5069,-6.559,-6.6168,-6.6659,-6.6241,-6.6104,-6.6211,-6.5755,-6.5232,-6.4706,-6.4706,-6.4917,-2.4125,-2.3251,-2.2772,-2.1575,-2.1575,-2.2008,0.0,0.0,0.0,-2.6013,-2.5885,-2.5758,-2.6857,-2.666,-2.6482,-2.6883,-2.7512,-2.8083,-2.8401,-2.931,-3.005,-3.0351,-3.0676,-3.0918,-3.1101,-3.187,-3.2752,-3.3892,-3.4287,-3.451,-3.4594,-3.5072,-3.553,-3.6062,-3.623,-3.671,-3.748,-3.7476,-3.7755,-3.8399,-3.89,-3.9758,-4.0961,-4.1428,-4.165,-4.1568,-4.2287,-4.1676,-4.0213,-4.1179,-4.1198,-4.0818,-4.1417,-4.1339,-4.1086,-4.191,-4.2651,-4.3338,-4.4263,-4.5075,-4.5921,-4.6853,-4.7503,-4.8038,-4.8669,-4.961,-5.0397,-5.0789,-5.1547,-5.2215,-5.2063,-5.2367,-5.2966,-5.3844,-5.6252,-5.8274,-5.8274,-5.9004,-5.9716,-5.9716,-5.9716,-5.9804,-6.0271,-6.0496,-6.0717,-6.0969,-6.1219,-6.1368,-6.1401,-6.1647,-6.203,-6.2381,-6.2381,-6.2448,-6.2584,-6.2719,-6.3204,-6.4268,-6.4596,-6.5172,-6.6023,-6.6595,-6.7004,-6.7298,-6.7012,-6.6907,-6.7088,-6.6913,-6.6249,-6.5162,-6.5022,-6.5268,-2.6971,-2.5285,-2.4208,-2.346,-2.2921,-2.2455,-2.1929,0.0,-2.2723,-2.2404,0.0,-2.2601,-2.3855,0.0,0.0,-2.4746,-2.5277,-2.5538,-2.5434,-2.6271,-2.7718,-2.989,-3.0033,-2.9971,-2.9971,-3.1214,-3.2522,-3.3625,-3.4118,-3.4135,-3.3574,-3.4224,-3.4644,-3.4816,-3.4994,-3.5345,-3.5821,-3.6453,-3.7082,-3.7682,-3.8119,-3.9073,-4.041,-4.0448,-4.0683,-4.086,-4.0217,-4.0047,-4.0262,-3.99,-4.0281,-4.1,-4.1339,-4.1283,-4.1086,-4.1824,-4.2448,-4.3073,-4.3967,-4.4776,-4.571,-4.6558,-4.7537,-4.8702,-5.007,-5.0351,-5.0573,-5.2235,-5.2425,-5.2002,-5.2002,-5.2367,-5.2966,-5.3844,-5.6252,-5.8274,-5.8274,-5.9004,-5.9716,-5.9716,-5.9716,-5.9781,-6.0151,-6.0369,-6.0515,-6.072,-6.0986,-6.1119,-6.1119,-6.1499,-6.187,-6.2381,-6.2381,-6.2651,-6.3328,-6.3971,-6.4843,-6.5995,-6.6758,-6.7295,-6.7763,-6.8231,-6.8613,-6.913,-6.8355,-6.8004,-6.8004,-6.7302,-6.6918,-6.6742,-6.6075,-6.5794,-3.0336,-2.9004,-2.8028,-2.6286,-2.4946,-2.3888,-2.2991,-2.2152,-2.1575,-2.1665,0.0,0.0,0.0,0.0,0.0,0.0,-2.334,-2.3694,-2.3633,-2.4257,-2.5518,-2.7708,-2.8209,-2.8734,-2.9745,-3.0717,-3.1508,-3.2043,-3.2561,-3.2792,-3.2682,-3.2847,-3.3159,-3.3594,-3.3938,-3.4287,-3.459,-3.5243,-3.5878,-3.6359,-3.7572,-3.8667,-3.9459,-3.9528,-3.9751,-4.0041,-3.9518,-3.9298,-3.9321,-3.9943,-4.0432,-4.0887,-4.1511,-4.1369,-4.0971,-4.1959,-4.2672,-4.3307,-4.4395,-4.547,-4.6737,-4.8086,-4.8747,-4.9262,-5.0301,-5.0674,-5.1113,-5.254,-5.2758,-5.258,-5.2641,-5.3219,-5.4231,-5.6073,-5.7421,-5.8274,-5.8274,-5.8642,-5.9094,-5.9628,-5.9716,-5.9749,-5.9934,-6.025,-6.0712,-6.1231,-6.1198,-6.115,-6.1119,-6.1252,-6.1662,-6.2302,-6.3159,-6.3632,-6.3531,-6.458,-6.5522,-6.6106,-6.7146,-6.7879,-6.8241,-6.8551,-6.8932,-6.9376,-6.906,-6.8884,-6.8884,-6.8568,-6.843,-6.8467,-6.7236,-6.6919,-3.2687,-3.1661,-3.065,-2.8627,-2.692,-2.545,-2.4169,-2.2656,-2.1605,-2.1904,-2.1306,0.0,0.0,0.0,-2.1216,-2.1395,0.0,-2.21,-2.2141,-2.2647,-2.366,-2.5422,-2.6151,-2.7148,-2.8783,-2.962,-3.0292,-3.087,-3.1185,-3.1484,-3.1884,-3.1616,-3.1723,-3.2496,-3.2946,-3.3349,-3.3734,-3.4381,-3.5022,-3.5656,-3.7196,-3.8093,-3.8572,-3.8581,-3.8736,-3.8832,-3.8589,-3.8558,-3.8689,-3.9671,-4.0294,-4.0572,-4.1303,-4.1275,-4.0994,-4.2149,-4.2899,-4.3424,-4.4619,-4.6016,-4.7556,-4.8997,-4.9633,-4.9911,-5.0862,-5.1363,-5.1837,-5.3183,-5.3493,-5.3406,-5.3433,-5.4044,-5.534,-5.774,-5.8274,-5.8274,-5.8274,-5.8367,-5.8733,-5.954,-5.9716,-5.9716,-5.9716,-6.0011,-6.0771,-6.1817,-6.1706,-6.1363,-6.1002,-6.1136,-6.1499,-6.2223,-6.3518,-6.4241,-6.3835,-6.4952,-6.5846,-6.633,-6.7249,-6.7959,-6.8397,-6.8628,-6.8932,-6.9376,-6.9376,-6.9376,-6.9376,-6.9449,-6.9487,-6.9562,-6.8258,-6.7941,-3.3455,-3.2185,-3.0783,-2.9848,-2.8545,-2.7003,-2.4987,-2.4029,-2.334,-2.2772,-2.1605,-2.0917,-2.1575,-2.0617,0.0,0.0,0.0,0.0,0.0,-2.1334,-2.2225,-2.3529,-2.4171,-2.5083,-2.6666,-2.7621,-2.8906,-3.0651,-3.0323,-3.0456,-3.1388,-3.0785,-3.0831,-3.1596,-3.1963,-3.25,-3.3293,-3.3998,-3.4934,-3.6107,-3.6697,-3.7296,-3.7642,-3.7494,-3.7303,-3.7049,-3.7097,-3.7585,-3.8532,-3.856,-3.9088,-4.0051,-4.0536,-4.0935,-4.1435,-4.2495,-4.3076,-4.3453,-4.4436,-4.5967,-4.7557,-4.8792,-4.9721,-5.0707,-5.2269,-5.2665,-5.2903,-5.4395,-5.4622,-5.4326,-5.4145,-5.457,-5.5579,-5.774,-5.8274,-5.8274,-5.8274,-5.8642,-5.9094,-5.9628,-5.9716,-5.9716,-5.9716,-5.9716,-6.0379,-6.2199,-6.2496,-6.1995,-6.0754,-6.1086,-6.1628,-6.1837,-6.3134,-6.4106,-6.4546,-6.5256,-6.6083,-6.7112,-6.7557,-6.7959,-6.8397,-6.8628,-6.8932,-6.9376,-6.9376,-6.9376,-6.9376,-6.956,-6.9598,-6.9598,-6.8822,-6.854,-3.5685,-3.5195,-3.4702,-3.3282,-3.1348,-2.9666,-2.9273,-2.7615,-2.6135,-2.5914,-2.439,-2.3079,-2.2948,-2.1824,0.0,0.0,0.0,0.0,0.0,-2.0228,-2.0528,-2.0946,-2.2127,-2.3475,-2.5015,-2.6362,-2.7576,-2.866,-2.9419,-2.9901,-3.0053,-2.9913,-3.0215,-3.1198,-3.1942,-3.2509,-3.2874,-3.4126,-3.4986,-3.5466,-3.6281,-3.6744,-3.6828,-3.6749,-3.6693,-3.6766,-3.6899,-3.7841,-3.9396,-3.9865,-4.0304,-4.0686,-4.1645,-4.1653,-4.1224,-4.2433,-4.316,-4.393,-4.5888,-4.6936,-4.7643,-4.9193,-5.0397,-5.1394,-5.2447,-5.3354,-5.4201,-5.5274,-5.5323,-5.5061,-5.5316,-5.6062,-5.6745,-5.7235,-5.7832,-5.8274,-5.8274,-5.8459,-5.8824,-5.954,-5.9716,-5.9716,-5.9716,-5.9716,-5.9878,-6.0574,-6.1739,-6.2448,-6.2411,-6.1733,-6.1417,-6.1709,-6.329,-6.4546,-6.5019,-6.6098,-6.6743,-6.6896,-6.7475,-6.7959,-6.8162,-6.8551,-6.8932,-6.9376,-6.9376,-6.9376,-6.9376,-6.956,-6.967,-6.9813,-6.9637,-6.9671,-3.6472,-3.6023,-3.5509,-3.4501,-3.2688,-3.1184,-3.1392,-2.9787,-2.8285,-2.8526,-2.6639,-2.499,-2.4879,-2.3054,0.0,0.0,0.0,0.0,0.0,-1.969,-1.969,-1.969,-2.0834,0.0,0.0,-2.5026,-2.613,-2.7565,-2.8115,-2.857,-2.9016,-2.9108,-2.9645,-3.0646,-3.1365,-3.1961,-3.2588,-3.3695,-3.4654,-3.5328,-3.5946,-3.627,-3.6138,-3.6111,-3.6163,-3.627,-3.6661,-3.7757,-3.9391,-4.0041,-4.0584,-4.1078,-4.2065,-4.2076,-4.1562,-4.2546,-4.3473,-4.4591,-4.6698,-4.7549,-4.8019,-4.9735,-5.0817,-5.1757,-5.2702,-5.3751,-5.4933,-5.5797,-5.5938,-5.5892,-5.6306,-5.69,-5.7434,-5.7149,-5.774,-5.8274,-5.8274,-5.8367,-5.861,-5.9241,-5.954,-5.9716,-5.9716,-5.9716,-5.9716,-5.9716,-6.0771,-6.1877,-6.2908,-6.1881,-6.1252,-6.1628,-6.3348,-6.4873,-6.5631,-6.6641,-6.7097,-6.6896,-6.7475,-6.7959,-6.8162,-6.8551,-6.8932,-6.9376,-6.9376,-6.9449,-6.9487,-6.9633,-6.9813,-6.9991,-7.0202,-7.0272]},{"header":{"parameterUnit":"m.s-1","parameterCategory":1,"la1":30.6,"la2":29.2853,"lo1":-89.7004,"lo2":-87.6739,"dx":0.0162,"dy":0.0183,"nx":112,"ny":82,"refTime":"2022-11-22T18:00:00:Z","depth":0,"parameterNumber":3,"parameterNumberName":"V-component_of_WINDS"},"data":[0.0,0.0,0.0,0.0,0.0,0.0,0.0,0.0,0.0,0.0,0.0,0.0,0.0,0.0,0.0,0.0,0.0,0.0,0.0,0.0,0.0,0.0,0.0,0.0,0.0,0.0,0.0,0.0,0.0,0.0,0.0,0.0,0.0,0.0,0.0,0.0,0.0,0.0,0.0,0.0,0.0,0.0,0.0,0.0,0.0,0.0,0.0,0.0,0.0,0.0,0.0,0.0,0.0,0.0,0.0,0.0,0.0,0.0,0.0,0.0,0.0,0.0,0.0,0.0,0.0,0.0,0.0,0.0,0.0,0.0,0.0,0.0,0.0,0.0,0.0,0.0,0.0,0.0,0.0,0.0,0.0,0.0,0.0,0.0,0.0,0.0,0.0,0.0,0.0,0.0,1.4998,1.4015,1.3077,1.2196,1.1369,1.1246,1.0912,1.0234,0.0,0.0,0.0,0.0,0.0,0.0,0.0,0.0,0.0,0.0,0.0,0.0,0.0,0.0,0.0,0.0,0.0,0.0,0.0,0.0,0.0,0.0,0.0,0.0,0.0,0.0,0.0,0.0,0.0,0.0,0.0,0.0,0.0,0.0,0.0,0.0,0.0,0.0,0.0,0.0,0.0,0.0,0.0,0.0,0.0,0.0,0.0,0.0,0.0,0.0,0.0,0.0,0.0,0.0,0.0,0.0,0.0,0.0,0.0,0.0,0.0,0.0,0.0,0.0,0.0,0.0,0.0,0.0,0.0,0.0,0.0,0.0,0.0,0.0,0.0,0.0,0.0,0.0,0.0,0.0,0.0,0.0,0.0,0.0,0.0,0.0,0.0,0.0,0.0,0.0,0.0,0.0,0.0,0.0,0.0,0.0,0.0,0.0,0.0,0.0,0.0,0.0,0.0,0.0,1.4794,1.3164,1.2225,1.1326,1.039,1.035,1.0312,1.022,0.0,0.0,0.0,0.0,0.0,0.0,0.0,0.0,0.0,0.0,0.0,0.0,0.0,0.0,0.0,0.0,0.0,0.0,0.0,0.0,0.0,0.0,0.0,0.0,0.0,0.0,0.0,0.0,0.0,0.0,0.0,0.0,0.0,0.0,0.0,0.0,0.0,0.0,0.0,0.0,0.0,0.0,0.0,0.0,0.0,0.0,0.0,0.0,0.0,0.0,0.0,0.0,0.0,0.0,0.0,0.0,0.0,0.0,0.0,0.0,0.0,0.0,0.0,0.0,0.0,0.0,0.0,0.0,0.0,0.0,0.0,0.0,0.0,0.0,0.0,0.0,0.0,0.0,0.0,0.0,0.0,0.0,0.0,0.0,0.0,0.0,0.0,0.0,0.0,0.0,0.0,0.0,0.0,0.0,0.0,0.0,0.0,0.0,0.0,0.0,0.0,0.0,0.0,1.3573,1.3357,1.2176,1.1245,1.0582,1.0186,1.0186,1.0215,1.0185,0.9723,0.0,0.0,0.0,0.0,0.0,0.0,0.0,0.0,0.0,0.0,0.0,0.0,0.0,0.0,0.0,0.0,0.0,0.0,0.0,0.0,0.0,0.0,0.0,0.0,0.0,0.0,0.0,0.0,0.0,0.0,0.0,0.0,0.0,0.0,0.0,0.0,0.0,0.0,0.0,0.0,0.0,0.0,0.0,0.0,0.0,0.0,0.0,0.0,0.0,0.0,0.0,0.0,0.0,0.0,0.0,0.0,0.0,0.0,0.0,0.0,0.0,0.0,0.0,0.0,0.0,0.0,0.0,0.0,0.0,0.0,0.0,0.0,0.0,0.0,0.0,0.0,0.0,0.0,0.0,0.0,0.0,0.0,0.0,0.0,0.0,0.0,0.0,0.0,0.0,0.0,0.0,0.0,0.0,0.0,0.0,0.0,0.0,0.0,0.0,0.0,0.0,0.0,1.2448,1.1953,1.1377,1.0574,1.0068,1.0137,1.0127,1.0069,0.9831,0.9121,0.0,0.0,0.0,0.0,0.0,0.0,0.0,0.0,0.0,0.0,0.0,0.0,0.0,0.0,0.0,0.0,0.0,0.0,0.0,0.0,0.0,0.0,0.0,0.0,0.0,0.0,0.0,0.0,0.0,0.0,0.0,0.0,0.0,0.0,0.0,0.0,0.0,0.0,0.0,0.0,0.0,0.0,0.0,0.0,0.0,0.0,0.0,0.0,0.0,0.0,0.0,0.0,0.0,0.0,0.0,0.0,0.0,0.0,0.0,0.0,0.0,0.0,0.0,0.0,0.0,0.0,0.0,0.0,0.0,0.0,0.0,0.0,0.0,0.0,0.0,0.0,0.0,0.0,0.0,0.0,0.0,0.0,0.0,0.0,0.0,0.0,0.0,0.0,0.0,0.0,0.0,0.0,0.0,0.0,0.0,0.0,0.0,0.0,0.0,0.0,0.0,0.0,1.2177,1.1196,1.1114,1.0411,0.9924,0.9914,0.9972,0.9633,0.8674,0.8627,0.0,0.0,0.0,0.0,0.0,0.0,0.0,0.0,0.0,0.0,0.0,0.0,0.0,0.0,0.0,0.0,0.0,0.0,0.0,0.0,0.0,0.0,0.0,0.0,0.0,0.0,0.0,0.0,0.0,0.0,0.0,0.0,0.0,0.0,0.0,0.0,0.0,0.0,0.0,0.0,0.0,0.0,0.0,0.0,0.0,0.0,0.0,0.0,0.0,0.0,0.0,0.0,0.0,0.0,0.0,0.0,0.0,0.0,0.0,0.0,0.0,0.0,0.0,0.0,0.0,0.0,0.0,0.0,0.0,0.0,0.0,0.0,0.0,0.0,0.0,0.0,0.0,0.0,0.0,0.0,0.0,0.0,0.0,0.0,0.0,0.0,0.0,0.0,0.0,0.0,0.0,0.0,0.0,0.0,0.0,0.0,0.0,0.0,0.0,0.0,0.0,0.0,1.1126,1.0555,1.0142,0.9899,0.9769,0.9781,0.9312,0.883,0.8463,0.0,0.0,0.0,0.0,0.0,0.0,0.0,0.0,0.0,0.0,0.0,0.0,0.0,0.0,0.0,0.0,0.0,0.0,0.0,0.0,0.0,0.0,0.0,0.0,0.0,0.0,0.0,0.0,0.0,0.0,0.0,0.0,0.0,0.0,0.0,0.0,0.0,0.0,0.0,0.0,0.0,0.0,0.0,0.0,0.0,0.0,0.0,0.0,0.0,0.0,0.0,0.0,0.0,0.0,0.0,0.0,0.0,0.0,0.0,0.0,0.0,0.0,0.0,0.0,0.0,0.0,0.0,0.0,0.0,0.0,0.0,0.0,0.0,0.0,0.0,0.0,0.0,0.0,0.0,0.0,0.0,0.0,0.0,0.0,0.0,0.0,0.0,0.0,0.0,0.0,0.0,0.0,0.0,0.0,0.0,0.0,0.0,0.0,0.0,0.0,0.0,0.0,1.039,1.0327,1.0075,0.9412,0.9461,0.9518,0.9389,0.8889,0.8373,0.7927,0.0,0.0,0.0,0.0,0.0,0.0,0.0,0.0,0.0,0.0,0.0,0.0,0.0,0.0,0.0,0.0,0.0,0.0,0.0,0.0,0.0,0.0,0.0,0.0,0.0,0.0,0.0,0.0,0.0,0.0,0.0,0.0,0.0,0.0,0.0,0.0,0.0,0.0,0.0,0.0,0.0,0.0,0.0,0.0,0.0,0.0,0.0,0.0,0.0,0.0,0.0,0.0,0.0,0.0,0.0,0.0,0.0,0.0,0.0,0.0,0.0,0.0,0.0,0.0,0.0,0.0,0.0,0.0,0.0,0.0,0.0,0.0,0.0,0.0,0.0,0.0,0.0,0.0,0.0,0.0,0.0,0.0,0.0,0.0,0.0,0.0,0.0,0.0,0.0,0.0,0.0,0.0,0.0,0.0,0.0,0.0,0.0,0.0,0.0,0.0,0.0,0.0,0.9852,0.9912,0.9737,0.905,0.9119,0.9074,0.8716,0.8801,0.827,0.0,0.0,0.0,0.0,0.0,0.0,0.0,0.0,0.0,0.0,0.0,0.0,0.0,0.0,0.0,0.0,0.0,0.0,0.0,0.0,0.0,0.0,0.0,0.0,0.0,0.0,0.0,0.0,0.0,0.0,0.0,0.0,0.0,0.0,0.0,0.0,0.0,0.0,0.0,0.0,0.0,0.0,0.0,0.0,0.0,0.0,0.0,0.0,0.0,0.0,0.0,0.0,0.0,0.0,0.0,0.0,0.0,0.0,0.0,0.0,0.0,0.0,0.0,0.0,0.0,0.0,0.0,0.0,0.0,0.0,0.0,0.0,0.0,0.0,0.0,0.0,0.0,0.0,0.0,0.0,0.0,0.0,0.0,0.0,0.0,0.0,0.0,0.0,0.0,0.0,0.0,0.0,0.0,0.0,0.0,0.0,0.0,0.0,0.0,0.0,0.0,0.0,0.0,0.9407,0.9075,0.8685,0.8211,0.8416,0.8375,0.795,0.7406,0.6895,0.6535,0.0,0.0,0.0,0.0,0.0,0.0,0.0,0.0,0.0,0.0,0.0,0.0,0.0,0.0,0.0,0.0,0.0,0.0,0.0,0.0,0.0,0.0,0.0,0.0,0.0,0.0,0.0,0.0,0.0,0.0,0.0,0.0,0.0,0.0,0.0,0.0,0.0,0.0,0.0,0.0,0.0,0.0,0.0,0.0,0.0,0.0,0.0,0.0,0.0,0.0,0.0,0.0,0.0,0.0,0.0,0.0,0.0,0.0,0.0,0.0,0.0,0.0,0.0,0.0,0.0,0.0,0.0,0.0,0.0,0.0,0.0,0.0,0.0,0.0,0.0,0.0,0.0,0.0,0.0,0.0,0.0,0.0,0.0,0.0,0.0,0.0,0.0,0.0,0.0,0.0,0.0,0.0,0.0,0.0,0.0,0.0,0.0,0.0,0.0,0.0,0.0,0.0,0.8637,0.8207,0.7921,0.7778,0.7857,0.7727,0.7328,0.6826,0.6515,0.6409,0.0,0.0,0.0,0.0,0.0,0.0,0.0,0.0,0.0,0.0,0.0,0.0,0.0,0.0,0.0,0.0,0.0,0.0,0.0,0.0,0.0,0.0,0.0,0.0,0.0,0.0,0.0,0.0,0.0,0.0,0.0,0.0,0.0,0.0,0.0,0.0,0.0,0.0,0.0,0.0,0.0,0.0,0.0,0.0,0.0,0.0,0.0,0.0,0.0,0.0,0.0,0.0,0.0,0.0,0.0,0.0,0.0,0.0,0.0,0.0,0.0,0.0,0.0,0.0,0.0,0.0,0.0,0.0,0.0,0.0,0.0,0.0,0.0,0.0,0.0,0.0,0.0,0.0,0.0,0.0,0.0,0.0,0.0,0.0,0.0,0.0,0.0,0.0,0.0,0.0,0.0,0.0,0.0,0.0,0.0,0.0,0.0,0.0,0.0,0.0,0.0,0.0,0.7715,0.7423,0.7367,0.7561,0.7382,0.708,0.672,0.6739,0.663,0.6313,0.0,0.0,0.0,0.0,0.0,0.0,0.0,0.0,0.0,0.0,0.0,0.0,0.0,0.0,0.0,0.0,0.0,0.0,0.0,0.0,0.0,0.0,0.0,0.0,0.0,0.0,0.0,0.0,0.0,0.0,0.0,0.0,0.0,0.0,0.0,0.0,0.0,0.0,0.0,0.0,0.0,0.0,0.0,0.0,0.0,0.0,0.0,0.0,0.0,0.0,0.0,0.0,0.0,0.0,0.0,0.0,0.0,0.0,0.0,0.0,1.7385,1.8766,0.0,0.0,0.0,0.0,0.0,0.0,0.0,0.0,0.0,0.0,0.0,0.0,0.0,0.0,0.0,0.0,0.0,0.0,0.0,0.0,0.0,0.0,0.0,0.0,0.0,0.0,0.0,0.0,0.0,0.0,0.0,0.0,0.0,0.0,0.0,0.0,0.0,0.0,0.0,0.0,0.7726,0.7369,0.7035,0.6786,0.6792,0.6587,0.5988,0.5752,0.5651,0.561,0.5256,0.0,0.0,0.0,0.0,0.0,0.0,0.0,0.0,0.0,0.0,0.0,0.0,0.0,0.0,0.0,0.0,0.0,0.0,0.0,0.0,0.0,0.0,0.0,0.0,0.0,0.0,0.0,0.0,0.0,0.0,0.0,0.0,0.0,0.0,0.0,0.0,0.0,0.0,0.0,0.0,0.0,0.0,0.0,0.0,0.0,0.0,0.0,0.0,0.0,0.0,0.0,0.0,0.0,0.0,0.0,0.0,0.0,0.0,0.0,1.4121,1.5977,0.0,0.0,0.0,0.0,0.0,0.0,0.0,0.0,0.0,0.0,0.0,0.0,0.0,0.0,0.0,0.0,0.0,0.0,0.0,0.0,0.0,0.0,0.0,0.0,0.0,0.0,0.0,0.0,0.0,0.0,0.0,0.0,0.0,0.0,0.0,0.0,0.0,0.0,0.0,0.0,0.7235,0.6918,0.6718,0.6596,0.6447,0.6107,0.5614,0.5373,0.5204,0.5122,0.4727,0.0,0.0,0.0,0.0,0.0,0.0,0.0,0.0,0.0,0.0,0.0,0.0,0.0,0.0,0.0,0.0,0.0,0.0,0.0,0.0,0.0,0.0,0.0,0.0,0.0,0.0,0.0,0.0,0.0,0.0,0.0,0.0,0.0,0.0,0.0,0.0,0.0,0.0,0.0,0.0,0.0,0.0,0.0,0.0,0.0,0.0,0.0,0.0,0.0,0.0,0.0,0.0,0.0,1.0398,1.0207,1.0172,0.9941,0.9612,0.9208,0.8612,1.0761,1.4749,1.5852,0.0,0.0,0.0,0.0,0.0,0.0,0.0,0.0,0.0,0.0,0.0,0.0,0.0,0.0,0.0,0.0,0.0,0.0,0.0,0.0,0.0,0.0,1.5193,1.0857,0.9532,0.9384,0.9749,0.0,0.0,0.0,0.0,0.0,0.0,0.0,0.0,0.0,0.0,0.0,0.6711,0.6463,0.6369,0.645,0.6102,0.5675,0.5223,0.5078,0.4893,0.467,0.4223,0.3925,0.0,0.0,0.0,0.0,0.0,0.0,0.0,0.0,0.0,0.0,0.0,0.0,0.0,0.0,0.0,0.0,0.0,0.0,0.0,0.0,0.0,0.0,0.0,0.0,0.0,0.0,0.0,0.0,0.0,0.0,0.0,0.0,0.8692,1.3168,0.0,0.0,0.0,0.0,0.0,0.0,0.0,0.0,0.0,0.0,0.0,0.0,0.0,1.0828,1.0592,1.0301,1.0173,1.0034,0.7058,0.5656,0.5526,0.2339,0.109,0.1456,0.1623,0.0,1.2681,1.5939,0.0,0.0,0.0,0.0,0.0,0.0,0.0,0.0,0.0,0.0,0.0,0.0,0.0,0.0,0.0,0.0,0.0,0.0,0.0,0.0,0.0,0.0,1.6345,1.0776,0.9107,0.8822,0.9028,0.936,0.96,0.937,0.8847,0.8403,0.0,0.0,0.0,0.0,0.0,0.0,0.6734,0.6369,0.5931,0.5613,0.5647,0.5358,0.4446,0.4229,0.414,0.4118,0.3706,0.3355,0.3064,0.299,0.0,0.0,0.0,0.0,0.0,0.0,0.0,0.0,0.0,0.0,0.0,0.0,0.0,0.0,0.0,0.0,0.0,0.0,0.0,0.0,0.0,0.0,0.0,0.0,0.0,0.0,0.0,0.0,0.0,1.2351,1.161,1.7034,1.5501,1.5982,0.0,0.0,0.0,0.0,0.0,0.0,0.0,0.0,0.0,1.193,0.8182,0.6122,0.5964,0.3702,0.2553,0.2504,0.1334,0.083,0.0841,-0.0495,-0.0915,-0.0508,0.0,0.2247,0.6028,1.0212,1.3072,1.4985,0.0,0.0,0.0,0.0,1.826,1.8405,1.8512,1.8654,1.8815,1.8789,0.0,0.0,0.0,0.0,0.0,0.0,0.0,2.2258,1.8178,1.5983,1.3842,0.9918,0.868,0.8407,0.8332,0.8532,0.8758,0.8849,0.8325,0.7832,0.786,0.7114,0.0,0.0,0.0,0.5875,0.606,0.5689,0.5415,0.5366,0.5065,0.4594,0.3987,0.3906,0.38,0.3625,0.3362,0.3181,0.3078,0.275,0.2456,0.0,0.0,0.0,0.0,0.0,0.0,0.0,0.0,0.0,0.0,0.0,0.0,0.0,0.0,0.0,0.0,0.0,0.0,0.0,0.0,0.0,0.0,0.0,0.0,0.0,0.0,0.0,0.0,1.367,1.2191,1.9435,1.6192,1.5271,0.0,0.0,0.0,0.0,0.0,0.0,1.4296,1.0026,0.7465,0.7138,0.3221,0.1091,0.0935,-0.1948,-0.3315,-0.3164,-0.2707,-0.2337,-0.2163,-0.1671,-0.1367,-0.1052,-0.0415,0.0205,0.0999,0.5672,0.9109,1.1657,1.3385,1.413,1.4387,1.4831,1.5138,1.5446,1.5558,1.5736,1.5883,1.6052,1.6299,1.6632,1.6788,0.0,0.0,0.0,0.0,2.0066,1.713,1.4492,1.1862,0.9072,0.8086,0.7747,0.7592,0.749,0.7538,0.7898,0.7586,0.7197,0.7,0.634,0.0,0.578,0.5424,0.5174,0.5137,0.4871,0.4668,0.47,0.4325,0.3894,0.3477,0.3407,0.3255,0.3053,0.2907,0.2828,0.2754,0.2449,0.2173,0.1959,0.0,0.0,0.0,0.0,0.0,0.0,0.0,0.0,0.0,0.0,0.0,0.0,0.0,0.0,0.0,0.0,0.0,0.0,0.0,0.0,0.0,0.0,0.0,0.0,0.0,0.0,0.0,0.0,0.0,1.6524,1.2831,0.0,0.0,0.0,0.0,0.8551,0.8143,0.8104,0.7944,0.4119,0.1869,0.1873,-0.1676,-0.3788,-0.399,-0.3513,-0.3224,-0.3226,-0.2927,-0.2624,-0.2425,-0.2127,-0.1825,-0.152,-0.0708,-0.0202,0.0401,0.5437,0.7651,0.8277,1.2327,1.4012,1.4154,1.4276,1.4599,1.4937,1.5099,1.5081,1.5056,1.5424,1.5879,1.6298,1.6305,1.6619,0.0,0.0,1.7271,1.7057,1.3188,1.2605,1.2163,0.8533,0.7191,0.6723,0.6597,0.6294,0.608,0.645,0.6717,0.6684,0.5898,0.0,0.5004,0.513,0.4338,0.3802,0.4135,0.3931,0.3598,0.3143,0.3436,0.3379,0.2812,0.2395,0.223,0.2335,0.221,0.1947,0.1519,0.1959,0.1855,0.1086,0.1303,0.0,0.0,0.0,0.0,0.0,0.0,0.0,0.0,0.0,0.0,0.0,0.0,0.0,0.0,0.0,0.0,0.0,0.0,0.0,0.0,0.0,0.0,0.0,0.0,0.0,0.0,0.0,0.0,1.0325,0.6412,0.0,0.9939,1.1157,1.0717,0.8344,0.5617,0.4028,0.3917,-0.0798,-0.3331,-0.3099,-0.438,-0.5129,-0.5031,-0.4464,-0.4306,-0.4464,-0.3828,-0.3422,-0.3137,-0.2627,-0.2201,-0.165,-0.0979,-0.0433,0.0108,0.2332,0.3472,0.3981,0.618,0.7121,0.7397,0.7944,0.8487,0.8939,0.921,0.9476,0.9849,1.0317,1.0489,1.0949,1.3252,1.4101,1.4582,1.6564,1.5775,1.3999,1.2445,1.0546,0.8655,0.714,0.6558,0.6239,0.5766,0.5733,0.5583,0.4916,0.5257,0.562,0.5457,0.4829,0.4309,0.4279,0.3804,0.3473,0.35,0.306,0.2725,0.2732,0.2245,0.1896,0.1796,0.1631,0.1551,0.1666,0.1546,0.1465,0.1471,0.1262,0.1104,0.1003,0.074,0.0569,0.0,0.0,0.0,0.0,0.0,0.0,0.0,0.0,0.0,0.0,0.0,0.0,0.0,0.0,0.0,0.0,0.0,0.0,0.0,0.0,0.0,0.0,0.0,0.0,0.0,0.9207,0.533,0.7091,0.3063,0.1405,0.4659,0.57,0.5328,0.326,0.0341,-0.1357,-0.1437,-0.4753,-0.6546,-0.6154,-0.6122,-0.6059,-0.5747,-0.529,-0.5137,-0.5306,-0.455,-0.4032,-0.3859,-0.3347,-0.2805,-0.213,-0.1551,-0.0992,-0.044,0.0323,0.0947,0.1441,0.2572,0.3186,0.3588,0.4354,0.4956,0.5459,0.5746,0.6165,0.6739,0.698,0.7129,0.7605,1.0012,1.0765,1.1191,1.3365,1.2255,1.0327,1.004,0.8202,0.6316,0.594,0.5763,0.5497,0.4875,0.4885,0.4723,0.3817,0.429,0.4787,0.4456,0.393,0.3414,0.3235,0.2843,0.2621,0.2698,0.2034,0.1666,0.185,0.1188,0.078,0.0891,0.0765,0.074,0.086,0.0754,0.0732,0.0835,0.0537,0.0414,0.0462,0.0041,-0.012,-0.008,0.0,0.0,0.0,0.0,0.0,0.0,0.0,0.0,0.0,0.0,0.0,0.0,0.0,0.0,0.0,0.0,0.0,0.0,0.0,0.0,0.0,0.0,0.0,1.5879,0.5468,0.0217,0.6789,0.2725,-0.0401,0.0161,0.0,-0.2295,-0.7459,-0.797,-0.8012,-0.7948,-0.7792,-0.7545,-0.7217,-0.7018,-0.6701,-0.6484,-0.5859,-0.5647,-0.5642,-0.501,-0.4589,-0.4273,-0.4063,-0.3529,-0.2995,-0.2459,-0.1816,-0.1281,-0.032,0.0321,0.0962,0.2133,0.2875,0.3498,0.4096,0.4493,0.4941,0.5367,0.5711,0.5973,0.5953,0.628,0.677,0.6807,0.6739,0.6634,0.657,0.6417,0.6208,0.5832,0.567,0.545,0.5034,0.4764,0.4448,0.396,0.3633,0.3376,0.3145,0.3845,0.4114,0.2876,0.2542,0.2342,0.2013,0.1412,0.0,0.1605,0.0901,0.0392,0.0353,0.0235,0.0118,0.0078,-0.0156,-0.0236,-0.0039,-0.0082,-0.0253,-0.0505,-0.0219,-0.0219,-0.063,-0.0798,-0.0882,-0.0842,0.0,0.0,0.0,0.0,0.0,0.0,0.0,0.0,0.0,0.0,0.0,0.0,0.0,0.0,0.0,0.0,0.0,0.0,0.0,0.0,0.0,0.6813,0.0999,0.1758,-0.0295,-0.2613,-0.455,-0.6368,-0.7121,-0.6239,-0.6321,-0.7032,-0.8306,-0.8378,-0.8377,-0.8314,-0.8355,-0.8282,-0.7861,-0.763,-0.7356,-0.7141,-0.6691,-0.6294,-0.6074,-0.5588,-0.5174,-0.4845,-0.4156,-0.3595,-0.321,-0.2295,-0.1709,-0.1351,-0.0556,0.0,0.0662,0.1614,0.2451,0.3194,0.3476,0.4136,0.4762,0.5118,0.5285,0.5237,0.5666,0.5686,0.5447,0.5857,0.5872,0.5729,0.5786,0.5656,0.5513,0.5249,0.5067,0.4778,0.4288,0.3893,0.3469,0.2893,0.2427,0.2076,0.1639,0.176,0.2066,0.2219,0.1936,0.1594,0.1189,0.0993,0.079,0.0387,0.0043,-0.0216,-0.0259,-0.0691,-0.0821,-0.0517,-0.0821,-0.1007,-0.0993,-0.1006,-0.106,-0.129,-0.107,-0.101,-0.1189,-0.1233,-0.1472,0.0,0.0,0.0,0.0,0.0,0.0,0.0,0.0,0.0,0.0,0.0,0.0,0.0,0.0,0.0,0.0,0.0,0.0,0.0,0.0,0.0,0.0,0.2098,-0.5743,-0.8002,-0.7147,-0.7418,-1.0195,-1.0649,-1.0325,-0.9429,-0.9533,-0.9477,-0.9168,-0.9227,-0.921,-0.9104,-0.9262,-0.9089,-0.8454,-0.8375,-0.8232,-0.7796,-0.7472,-0.7193,-0.6971,-0.6345,-0.5796,-0.5454,-0.485,-0.4394,-0.3883,-0.3178,-0.2577,-0.1973,-0.115,-0.0456,0.0339,0.0,0.0,0.0,0.0,0.4123,0.4732,0.4964,0.4967,0.5063,0.5326,0.5167,0.489,0.5201,0.5155,0.5068,0.5214,0.5083,0.4794,0.4613,0.4333,0.3944,0.3374,0.3042,0.2692,0.2044,0.1564,0.1224,0.0803,0.0478,0.0,0.0836,0.0836,0.0543,0.0,-0.0137,-0.0359,-0.0795,-0.1082,-0.1269,-0.1269,-0.1695,-0.1886,-0.1789,-0.1836,0.0,0.0,0.0,-0.1792,-0.1903,-0.1856,0.0,0.0,0.0,-0.211,-0.2578,-0.2578,0.0,0.0,-0.2139,-0.2075,0.0,0.0,0.0,0.0,0.0,0.0,0.0,0.0,0.0,0.0,0.0,0.0,0.0,0.0,0.0,0.0,-0.095,-0.8167,-1.4014,-1.3731,-1.2745,-1.2047,-1.1737,-1.1235,-1.0422,-1.0526,-1.0439,-0.9983,-1.0225,-1.0329,-1.0154,-1.0202,0.0,0.0,0.0,-0.9064,-0.8388,-0.8159,-0.8096,-0.7979,-0.7062,-0.6481,-0.6124,-0.5785,-0.5314,-0.484,-0.4483,-0.3771,-0.2943,-0.2002,-0.1051,0.0,0.1017,0.1908,0.28,0.3521,0.4111,0.4567,0.4515,0.0,0.0,0.4856,0.4733,0.464,0.4727,0.4524,0.4407,0.4671,0.4489,0.4068,0.3832,0.3455,0.3019,0.2387,0.2138,0.1857,0.1293,0.0864,0.0485,0.0268,-0.0375,-0.0954,-0.0974,-0.0673,-0.0647,-0.124,-0.1582,-0.1795,-0.1802,-0.217,-0.248,-0.2572,-0.2732,0.0,-0.3357,-0.3034,-0.2828,-0.2948,-0.269,-0.255,-0.2525,-0.2608,-0.2647,-0.2599,-0.2699,-0.2888,-0.3084,-0.3084,-0.3296,-0.3723,-0.3034,-0.2823,0.0,0.0,0.0,0.0,0.0,0.0,0.0,0.0,0.0,0.0,0.0,0.0,0.0,0.0,0.0,0.6698,-0.5084,-1.4654,-1.5752,-1.521,-1.4096,-1.2478,-1.2159,-1.1843,-1.1327,-1.1216,-1.1024,-1.0983,-1.0839,-1.0775,-1.085,-1.0563,-1.0303,-1.0089,-1.0126,-0.9795,-0.9225,-0.8891,-0.8439,-0.7985,-0.7375,0.0,-0.6712,-0.6431,-0.5702,-0.492,-0.4558,-0.3931,-0.3296,-0.2825,-0.188,-0.0585,0.1022,0.2132,0.2688,0.3079,0.3379,0.3685,0.3607,0.3653,0.3711,0.3885,0.3688,0.3491,0.3668,0.3585,0.0,0.3439,0.3303,0.3063,0.281,0.2474,0.222,0.1661,0.1151,0.0697,0.0248,-0.0365,-0.0945,-0.1291,-0.1552,-0.1937,-0.2524,-0.2174,-0.1791,-0.1652,-0.1992,-0.2339,-0.2509,-0.2577,-0.2885,-0.3464,-0.3516,-0.3609,-0.3869,-0.3579,-0.3505,-0.3767,-0.3626,-0.3609,-0.3851,-0.3748,-0.3694,-0.3694,-0.3694,-0.37,-0.3724,-0.3724,-0.3785,-0.3941,-0.3613,-0.3518,0.0,0.0,0.0,0.0,0.0,0.0,0.0,0.0,0.0,0.0,0.0,1.4401,1.6054,0.0,-0.11,-0.0072,-0.948,-1.6819,-1.6594,-1.5972,-1.4937,-1.3335,-1.303,-1.2673,-1.2084,-1.2019,-1.2059,-1.2051,-1.2064,-1.2092,-1.2069,-1.195,-1.1591,-1.0993,-1.0965,-1.0661,-0.9966,-0.9912,-0.9473,-0.8885,-0.8418,-0.7994,-0.7633,-0.7069,-0.6447,-0.5912,-0.538,-0.4734,-0.3853,-0.2868,-0.1669,-0.0357,0.058,0.1488,0.227,0.2923,0.3344,0.3534,0.3471,0.3518,0.3569,0.3327,0.3136,0.2943,0.3041,0.3011,0.2956,0.2956,0.2846,0.255,0.2088,0.1787,0.1353,0.0586,0.0277,-0.0066,-0.0776,-0.1322,-0.1763,-0.2032,-0.2557,-0.2962,-0.3258,-0.3452,-0.3431,-0.2946,-0.3032,-0.3343,-0.3785,-0.3803,-0.3989,-0.456,-0.4567,-0.4595,-0.4671,-0.4539,-0.4498,-0.4725,-0.4482,-0.4379,-0.4628,-0.4504,-0.4429,-0.4301,-0.4301,-0.4334,-0.4353,-0.4408,-0.4482,-0.4622,-0.4622,-0.4467,0.0,0.0,0.0,0.0,0.0,0.0,0.0,1.2308,1.0583,0.1285,-0.0404,0.0591,0.3151,-0.2853,-0.7836,-0.6799,-1.2873,-1.7589,-1.7298,-1.6703,-1.5849,-1.4564,-1.415,-1.367,-1.3002,-1.3056,-1.3176,-1.3257,-1.3317,-1.3335,-1.3423,-1.3146,-1.2675,-1.2026,-1.182,-1.143,-1.0837,-1.0846,-1.0543,-0.9943,-0.9354,-0.9044,-0.8801,-0.7822,-0.7321,-0.7166,-0.62,-0.5302,-0.4312,-0.2923,-0.1575,-0.0605,-0.0358,0.0353,0.1392,0.2419,0.2963,0.3148,0.3093,0.3257,0.3308,0.2831,0.2549,0.2378,0.2457,0.2489,0.2407,0.2449,0.2187,0.1846,0.1292,0.086,0.0303,-0.052,-0.0707,-0.0946,-0.1817,-0.2259,-0.2526,-0.2747,-0.3445,-0.3996,-0.3875,-0.4585,-0.4862,-0.4176,-0.4191,-0.4443,-0.4998,-0.511,-0.5272,-0.5636,-0.5595,-0.5595,-0.5653,-0.5576,-0.5581,-0.5743,-0.5321,-0.5144,-0.5365,-0.524,-0.5122,-0.4997,-0.4989,-0.5041,-0.5027,-0.5137,-0.5336,-0.5502,-0.5723,-0.5431,0.5615,-0.2322,-0.363,0.9231,0.7302,0.3266,0.0,0.9169,0.7081,-0.3488,-0.5424,-0.3155,0.3467,-0.223,-0.7676,-0.6443,-1.3586,-1.8977,-1.8222,-1.7862,-1.7357,-1.6534,-1.5368,-1.4573,-1.4404,-1.4188,-1.4254,-1.4449,-1.3951,-1.381,-1.4215,-1.3432,-1.2949,-1.3012,-1.268,-1.2329,-1.1727,-1.1382,-1.1027,-1.0671,-0.9854,-0.9548,-0.9417,-0.8919,-0.8276,-0.7416,-0.6073,-0.5053,-0.4315,-0.3571,-0.3077,-0.2583,-0.1719,-0.1094,-0.0478,0.093,0.1493,0.1602,0.1575,0.1548,0.1631,0.1816,0.1573,0.1436,0.1687,0.1354,0.0851,0.0742,0.0626,0.0432,-0.0172,-0.0492,-0.086,-0.1557,-0.206,-0.2489,-0.3032,-0.3401,-0.3804,-0.4053,-0.4406,-0.4809,-0.522,-0.5395,-0.5218,-0.4448,-0.502,-0.5506,-0.5447,-0.5667,-0.6122,-0.6676,-0.6387,-0.6267,-0.6685,-0.6607,-0.652,-0.6533,-0.6216,-0.6103,-0.6341,-0.6349,-0.6395,-0.6493,-0.6493,-0.6292,-0.5967,-0.5967,-0.618,-0.6625,-0.6661,-0.6155,-0.239,-0.3587,-0.1301,-0.0733,-0.1642,-0.2682,-0.2916,-0.1025,-0.2403,-1.3852,-1.613,-1.5188,-1.1906,-1.3899,-1.5863,-1.5197,-1.769,-1.9599,-1.9072,-1.8696,-1.8253,-1.7811,-1.7118,-1.621,-1.5235,-1.5209,-1.5298,-1.5395,-1.5233,-1.5145,-1.5109,-1.4662,-1.4361,-1.4227,-1.3742,-1.331,-1.3058,-1.2687,-1.2192,-1.1697,-1.1247,-1.0813,-1.0431,-0.9729,-0.891,-0.7896,-0.6656,-0.5745,-0.5115,-0.4577,-0.3822,-0.296,-0.2344,-0.172,-0.1096,0.0472,0.1044,0.1147,0.1241,0.1331,0.1308,0.1286,0.1053,0.0724,0.0906,0.0684,0.038,0.0,-0.009,-0.0259,-0.1009,-0.1474,-0.1916,-0.2832,-0.3178,-0.3555,-0.4097,-0.4535,-0.4791,-0.4829,-0.5416,-0.5982,-0.6203,-0.663,-0.6821,-0.6598,-0.6267,-0.6285,-0.6794,-0.6806,-0.7048,-0.7726,-0.7397,-0.724,-0.7747,-0.7429,-0.7226,-0.7264,-0.6963,-0.6867,-0.7067,-0.6948,-0.7066,-0.7372,-0.7372,-0.7325,-0.7154,-0.7361,-0.7407,-0.7288,-0.7437,-0.7288,0.0696,-0.0269,-0.0583,-0.8161,-1.0033,-1.0785,-1.374,-1.2311,-1.2772,-2.1453,-2.3232,-2.3174,-2.3152,-2.2501,-2.191,-2.164,-2.0829,-2.0183,-1.9953,-1.9497,-1.9139,-1.8926,-1.8773,-1.8085,-1.6897,-1.6535,-1.6576,-1.6612,-1.6535,-1.6426,-1.6263,-1.6042,-1.5654,-1.546,-1.4789,-1.4394,-1.4307,-1.3931,-1.3421,-1.2792,-1.2594,-1.204,-1.1394,-1.0493,-0.9528,-0.8274,-0.7394,-0.6575,-0.5792,-0.5353,-0.4577,-0.3576,-0.3083,-0.2589,-0.1966,-0.0598,0.0117,0.0462,0.0682,0.067,0.0659,0.0324,0.0106,-0.0104,-0.0102,-0.0197,-0.0478,-0.0838,-0.1081,-0.1389,-0.2172,-0.2542,-0.2992,-0.3972,-0.4323,-0.4566,-0.5177,-0.5537,-0.5834,-0.5762,-0.6555,-0.7231,-0.7269,-0.7807,-0.8361,-0.8596,-0.7916,-0.7555,-0.7947,-0.8007,-0.8174,-0.8712,-0.8473,-0.8354,-0.8627,-0.8213,-0.8004,-0.7987,-0.7832,-0.7713,-0.7729,-0.7731,-0.7837,-0.8128,-0.8196,-0.8127,-0.807,-0.8362,-0.8392,-0.8013,-0.8224,-0.8394,1.9636,0.712,-0.409,-0.903,-1.6492,-2.2756,-2.3553,-2.3063,-2.2737,-2.3474,-2.2931,-2.2587,-2.3242,-2.2702,-2.2113,-2.2209,-2.1518,-2.0978,-2.0834,-2.0484,-2.035,-2.0182,-2.0166,-2.0071,-1.9823,-1.8727,-1.8154,-1.8385,-1.7869,-1.742,-1.7455,-1.6777,-1.6442,-1.6442,-1.606,-1.568,-1.5307,-1.5047,-1.4548,-1.3815,-1.3616,-1.3199,-1.2564,-1.1142,-0.9707,-0.8524,-0.8017,-0.7272,-0.6553,-0.5796,-0.5492,-0.5176,-0.4189,-0.382,-0.3689,-0.2786,-0.1789,-0.0822,-0.0809,-0.0796,-0.0894,-0.1208,-0.1296,-0.1268,-0.1223,-0.1692,-0.2236,-0.2429,-0.2822,-0.3295,-0.3917,-0.4026,-0.4057,-0.494,-0.5234,-0.5544,-0.6122,-0.6596,-0.6899,-0.71,-0.795,-0.857,-0.8358,-0.8827,-0.9411,-0.9774,-0.9808,-0.948,-0.8679,-0.9019,-0.9389,-0.958,-0.9533,-0.9501,-0.9411,-0.9243,-0.9009,-0.8787,-0.8986,-0.8907,-0.83,-0.872,-0.8845,-0.8644,-0.8855,-0.8785,-0.8353,-0.8584,-0.8765,-0.8968,-0.8958,-0.93,1.2297,0.1556,-0.8777,-1.662,-2.0985,-2.3466,-2.3406,-2.362,-2.364,-2.3105,-1.7476,-1.2016,-0.9853,-1.0995,-1.2376,-1.2294,-1.7948,-2.2195,-2.2062,-2.1804,-2.1554,-2.1415,-2.1248,-2.1063,-2.0752,-1.9778,-1.925,-1.9343,-1.8964,-1.8609,-1.8314,-1.8188,-1.8034,-1.8013,-1.7372,-1.7119,-1.7147,-1.6381,-1.5613,-1.4842,-1.3873,-1.3257,-1.2743,-1.1563,-1.0643,-0.9971,-0.9181,-0.8582,-0.7889,-0.7486,-0.6652,-0.5745,-0.5193,-0.4435,-0.3817,-0.3554,-0.303,-0.2503,-0.1741,-0.1705,-0.1789,-0.1868,-0.2161,-0.2437,-0.2379,-0.2589,-0.2877,-0.3311,-0.3493,-0.3831,-0.4619,-0.5083,-0.5443,-0.6083,-0.6699,-0.735,-0.7926,-0.8494,-0.8969,-0.9249,-0.9558,-0.9777,-0.9902,-1.0125,-1.0599,-1.1477,-1.0937,-1.0395,-1.0239,-1.0208,-1.0366,-1.0775,-1.0511,-1.0299,-1.0313,-1.0227,-1.0027,-0.9672,-0.9673,-0.957,-0.9364,-0.9232,-0.9292,-0.9525,-0.9669,-0.9746,-0.9595,-0.99,-0.9944,-0.9574,-0.9723,-1.0003,0.4351,-0.3655,-1.0649,-2.029,-2.3051,-2.3398,-2.3271,-2.3564,-2.3839,-2.3299,-1.4131,-0.5886,-0.4857,-0.1107,0.1032,-0.1629,-0.7281,-1.2777,-1.6742,-1.5802,-1.6706,-2.191,-2.2237,-2.2024,-2.1861,-2.1332,-2.0754,-2.0189,-2.0007,-1.9811,-1.9311,-1.9253,-1.9292,-1.9262,-1.8506,-1.8267,-1.8419,-1.7529,-1.6613,-1.5964,-1.453,-1.3613,-1.3095,-1.2173,-1.138,-1.0717,-1.009,-0.9496,-0.8785,-0.8503,-0.7749,-0.6791,-0.6106,-0.5324,-0.4561,-0.4315,-0.4151,-0.3962,-0.3043,-0.2752,-0.2815,-0.2863,-0.3134,-0.3395,-0.354,-0.3704,-0.3936,-0.4383,-0.464,-0.5041,-0.5725,-0.6196,-0.6639,-0.723,-0.786,-0.847,-0.9037,-0.9604,-1.014,-1.0405,-1.0659,-1.0953,-1.1307,-1.1702,-1.2241,-1.2929,-1.2342,-1.1741,-1.1644,-1.1378,-1.132,-1.1853,-1.1663,-1.1408,-1.1439,-1.1361,-1.115,-1.0622,-1.061,-1.0468,-1.0254,-1.0039,-0.9974,-1.0132,-1.0279,-1.0479,-1.0579,-1.0948,-1.093,-1.0627,-1.0781,-1.0873,-0.2673,-0.7947,-1.0541,-2.0425,-2.2961,-2.3133,-2.3477,-2.3693,-2.3722,-2.3441,-1.2544,-0.381,-0.6723,0.6539,1.5566,0.8614,0.7496,0.3781,-0.6892,-0.4894,-0.7624,-2.1742,-2.3154,-2.2987,-2.3055,-2.3054,-2.2487,-2.0974,-2.1067,-2.1054,-2.0447,-2.0347,-2.0283,-2.0296,-1.9574,-1.9212,-1.9224,-1.8454,-1.768,-1.7044,-1.5613,-1.4697,-1.4033,-1.3244,-1.2188,-1.0864,-1.0857,-1.0373,-0.9596,-0.9199,-0.8665,-0.8073,-0.7055,-0.6372,-0.5802,-0.5183,-0.5129,-0.529,-0.4618,-0.4079,-0.3888,-0.4315,-0.4324,-0.4351,-0.4594,-0.5052,-0.5552,-0.5641,-0.6182,-0.6788,-0.7101,-0.7469,-0.7905,-0.8313,-0.8613,-0.8968,-0.9698,-1.0187,-1.0496,-1.0767,-1.1573,-1.2271,-1.2566,-1.3487,-1.413,-1.4002,-1.3887,-1.3596,-1.2988,-1.2338,-1.2204,-1.2782,-1.2925,-1.2772,-1.2606,-1.2606,-1.2272,-1.1627,-1.1764,-1.1614,-1.1016,-1.1091,-1.1027,-1.0651,-1.0813,-1.1082,-1.1397,-1.1552,-1.1751,-1.1982,-1.1982,-1.1926,-0.6642,-1.2991,-1.8966,-2.2791,-2.3654,-2.3667,-2.4043,-2.4362,-2.2255,-1.4503,-0.3815,0.6201,1.2948,1.1681,0.8908,0.7041,-0.622,-1.7347,-2.03,-1.9694,-2.0345,-2.4014,-2.4226,-2.3817,-2.3456,-2.3827,-2.3789,-2.2944,-2.2518,-2.2216,-2.1997,-2.2047,-2.1864,-2.1603,-2.1182,-2.0961,-2.0915,-1.9412,-1.8327,-1.7928,-1.6737,-1.6067,-1.5519,-1.4691,-1.3828,-1.2885,-1.2227,-1.1622,-1.1183,-1.0802,-0.9799,-0.8682,-0.8243,-0.7411,-0.638,-0.6434,-0.6267,-0.6107,-0.6372,-0.599,-0.5492,-0.5712,-0.5995,-0.6162,-0.6238,-0.6321,-0.6446,-0.6702,-0.7001,-0.7437,-0.8133,-0.8599,-0.903,-0.9489,-0.9978,-1.0562,-1.1479,-1.2068,-1.2596,-1.3382,-1.3754,-1.3887,-1.3747,-1.4263,-1.4609,-1.446,-1.4751,-1.4774,-1.4156,-1.3733,-1.3633,-1.4036,-1.4079,-1.3846,-1.3393,-1.3627,-1.3521,-1.2804,-1.2648,-1.257,-1.2427,-1.2313,-1.2252,-1.2172,-1.2625,-1.2663,-1.2363,-1.2525,-1.2531,-1.2246,-1.2246,-1.2277,-1.2991,-1.7889,-2.1841,-2.319,-2.3448,-2.2382,-1.8493,-1.7969,-1.5506,-0.5241,0.4864,1.3692,1.9832,1.6351,1.2595,1.272,-0.0725,-1.2951,-1.8036,-1.7155,-1.8391,-2.4837,-2.5441,-2.5238,-2.4788,-2.5057,-2.5127,-2.4678,-2.4016,-2.3607,-2.3217,-2.3122,-2.2915,-2.2606,-2.1978,-2.1497,-2.1278,-1.9976,-1.9189,-1.9055,-1.7723,-1.6912,-1.636,-1.5567,-1.4522,-1.3361,-1.2861,-1.2375,-1.1769,-1.1548,-1.0809,-0.9825,-0.941,-0.8523,-0.7421,-0.7232,-0.7178,-0.7123,-0.737,-0.7215,-0.7039,-0.6761,-0.6811,-0.7074,-0.7072,-0.7394,-0.7779,-0.7938,-0.8248,-0.8745,-0.9409,-1.0037,-1.0629,-1.1144,-1.1697,-1.2445,-1.3304,-1.3749,-1.4251,-1.5087,-1.5188,-1.5181,-1.5173,-1.5507,-1.5774,-1.5786,-1.5963,-1.6031,-1.5771,-1.5171,-1.4835,-1.4855,-1.4885,-1.4706,-1.4128,-1.4398,-1.4374,-1.3994,-1.3804,-1.3709,-1.3692,-1.347,-1.3182,-1.282,-1.3137,-1.315,-1.2985,-1.3067,-1.3136,-1.3097,-1.3097,-1.3105,-1.9713,-2.1839,-2.1679,-2.2606,-2.2961,-2.0607,-1.109,-0.9622,-0.7175,0.3986,1.2711,1.8955,2.0991,2.0637,1.969,1.8616,1.0325,0.0082,-1.0997,-0.9493,-1.2061,-2.5151,-2.6626,-2.6445,-2.6443,-2.6381,-2.639,-2.6168,-2.5748,-2.5098,-2.4295,-2.3947,-2.3604,-2.323,-2.2314,-2.1719,-2.1214,-2.0472,-2.0099,-1.9965,-1.862,-1.7684,-1.6868,-1.6294,-1.5073,-1.3528,-1.3369,-1.2861,-1.2173,-1.2041,-1.1694,-1.1171,-1.05,-0.955,-0.8699,-0.8051,-0.797,-0.8099,-0.7987,-0.8213,-0.8402,-0.7702,-0.7529,-0.769,-0.7755,-0.848,-0.9314,-0.9275,-0.974,-1.0355,-1.0827,-1.16,-1.2359,-1.285,-1.3485,-1.4195,-1.4838,-1.5161,-1.5521,-1.6072,-1.6152,-1.6236,-1.6582,-1.6958,-1.7236,-1.7423,-1.7398,-1.7383,-1.7439,-1.6525,-1.5795,-1.5453,-1.5675,-1.5583,-1.5034,-1.5259,-1.5319,-1.5158,-1.5021,-1.4893,-1.4723,-1.4494,-1.3984,-1.3316,-1.3316,-1.3387,-1.343,-1.343,-1.3728,-1.4233,-1.4233,-1.4162,-2.2095,-2.2176,-2.1913,-2.3038,-2.3281,-2.0926,-1.1922,-1.0349,-0.5639,1.2358,1.7179,2.0756,2.9412,2.4154,1.5822,0.755,-0.2379,-1.271,-2.2808,-2.3391,-2.373,-2.6318,-2.6336,-2.6244,-2.6299,-2.6828,-2.7035,-2.6842,-2.7038,-2.6537,-2.5391,-2.5071,-2.4487,-2.3479,-2.349,-2.3148,-2.216,-2.1758,-2.1208,-2.0533,-1.9692,-1.886,-1.8165,-1.7824,-1.6919,-1.5615,-1.5175,-1.459,-1.3884,-1.3367,-1.2692,-1.1987,-1.1583,-1.0642,-0.9576,-0.9331,-0.9205,-0.9092,-0.9303,-0.9367,-0.9231,-0.8944,-0.9037,-0.9205,-0.9234,-0.98,-1.044,-1.052,-1.0913,-1.1522,-1.2245,-1.2732,-1.3121,-1.3718,-1.4153,-1.4723,-1.563,-1.641,-1.6813,-1.6613,-1.6764,-1.6992,-1.7446,-1.7662,-1.7861,-1.8051,-1.8324,-1.8479,-1.8288,-1.7266,-1.649,-1.6226,-1.6656,-1.6775,-1.6329,-1.6759,-1.6855,-1.6199,-1.5965,-1.5789,-1.5492,-1.526,-1.5028,-1.4886,-1.4899,-1.4704,-1.4276,-1.4276,-1.4475,-1.4774,-1.4774,-1.4998,-2.212,-2.2087,-2.2054,-2.2688,-2.3082,-1.954,-0.5513,-0.3085,0.1791,2.1139,2.4381,2.5391,3.069,2.3579,1.5411,1.0752,-0.2863,-1.4488,-1.9124,-2.4275,-2.7498,-2.7378,-2.7229,-2.7434,-2.7823,-2.8219,-2.8347,-2.8002,-2.8152,-2.7677,-2.6067,-2.5226,-2.4487,-2.3604,-2.3701,-2.3436,-2.279,-2.2338,-2.1816,-2.127,-2.0455,-1.9692,-1.8703,-1.8313,-1.7254,-1.5817,-1.5462,-1.4855,-1.4137,-1.3752,-1.349,-1.307,-1.224,-1.1426,-1.0756,-0.9975,-0.9704,-0.9822,-0.9943,-1.0101,-1.017,-1.0433,-1.0181,-0.9861,-1.0031,-1.0716,-1.1494,-1.1579,-1.1996,-1.2576,-1.353,-1.4002,-1.4465,-1.5299,-1.5993,-1.6463,-1.6976,-1.7493,-1.7844,-1.7945,-1.8062,-1.8179,-1.8493,-1.8598,-1.8683,-1.8775,-1.9096,-1.9318,-1.9318,-1.8725,-1.8065,-1.7588,-1.777,-1.7626,-1.6937,-1.7265,-1.7244,-1.6698,-1.6713,-1.6606,-1.6415,-1.6091,-1.5819,-1.5486,-1.5486,-1.526,-1.4856,-1.5021,-1.5177,-1.5353,-1.5353,-1.5436,-2.1083,-2.1943,-2.2157,-2.224,-2.2629,-1.8229,0.027,0.3673,0.8259,2.6904,2.9803,2.9161,2.977,2.3821,1.8256,1.6369,0.3299,-0.8172,-1.2529,-1.9889,-2.5619,-2.7744,-2.8172,-2.8552,-2.907,-2.9427,-2.9336,-2.9157,-2.8773,-2.7917,-2.6537,-2.5578,-2.4734,-2.3976,-2.3933,-2.3716,-2.322,-2.2786,-2.2284,-2.1745,-2.1083,-2.0249,-1.9262,-1.8589,-1.7528,-1.6089,-1.5596,-1.4988,-1.4268,-1.4137,-1.3979,-1.3926,-1.2742,-1.2171,-1.1713,-1.0468,-1.032,-1.0664,-1.0664,-1.0925,-1.1224,-1.1799,-1.1318,-1.0623,-1.0897,-1.1709,-1.2547,-1.279,-1.3232,-1.3811,-1.4783,-1.5248,-1.5818,-1.703,-1.7781,-1.8229,-1.8321,-1.8529,-1.882,-1.9127,-1.9193,-1.9295,-1.9519,-1.94,-1.9418,-1.969,-1.9991,-2.0246,-2.0337,-2.0289,-1.9986,-1.9301,-1.8875,-1.8321,-1.7554,-1.7705,-1.7683,-1.7219,-1.7325,-1.7383,-1.7254,-1.6965,-1.6613,-1.623,-1.6159,-1.6002,-1.5673,-1.5913,-1.6041,-1.6041,-1.6041,-1.6041,-1.9738,-2.2244,-2.2259,-2.1987,-2.2351,-1.8229,-0.0665,0.3326,0.8178,2.5615,2.9059,2.9028,2.9059,2.8925,2.5851,1.6771,1.4888,0.7961,-1.1034,-1.3549,-1.7119,-2.7093,-2.832,-2.8435,-2.8766,-2.9234,-2.9468,-2.9512,-2.8068,-2.697,-2.6415,-2.6432,-2.5961,-2.498,-2.4953,-2.4492,-2.3588,-2.305,-2.2553,-2.1745,-2.1358,-2.0804,-1.9959,-1.9427,-1.8494,-1.7577,-1.6542,-1.6054,-1.5704,-1.48,-1.4428,-1.4382,-1.3465,-1.2606,-1.1929,-1.1542,-1.1425,-1.176,-1.1993,-1.2225,-1.2488,-1.2831,-1.2441,-1.1928,-1.2248,-1.2936,-1.3757,-1.4328,-1.4854,-1.5343,-1.5913,-1.64,-1.7059,-1.8071,-1.8688,-1.9141,-1.9229,-1.9729,-1.9974,-1.9316,-1.9571,-1.983,-1.9992,-1.978,-1.9901,-2.0712,-2.1024,-2.1287,-2.1454,-2.1508,-2.1605,-2.1501,-2.0121,-1.8969,-1.8572,-1.883,-1.8732,-1.8041,-1.8041,-1.7991,-1.8133,-1.7849,-1.7804,-1.8058,-1.7774,-1.7502,-1.7287,-1.7316,-1.7331,-1.7252,-1.7252,-1.7252,-1.8545,-2.1315,-2.1703,-2.1797,-1.8028,-1.1246,0.0389,0.6924,1.3791,2.5255,2.7266,2.6962,2.6962,2.7571,2.7057,2.4018,1.956,1.3784,0.6073,0.0931,-0.6356,-1.775,-1.8731,-2.1508,-2.9309,-2.9996,-3.0035,-3.002,-2.8838,-2.8122,-2.7953,-2.6969,-2.6222,-2.5488,-2.4999,-2.4439,-2.3547,-2.3236,-2.2766,-2.2151,-2.1771,-2.1109,-2.015,-1.9605,-1.881,-1.7895,-1.726,-1.6718,-1.6234,-1.5844,-1.5326,-1.4856,-1.397,-1.326,-1.2759,-1.2028,-1.1938,-1.2363,-1.2715,-1.294,-1.3174,-1.3744,-1.3891,-1.3762,-1.3184,-1.3653,-1.4364,-1.4824,-1.514,-1.5629,-1.6466,-1.7272,-1.7873,-1.8222,-1.8856,-1.9362,-1.9567,-2.0167,-2.0551,-2.0234,-2.0526,-2.0825,-2.089,-2.0979,-2.1103,-2.1015,-2.1666,-2.2055,-2.1671,-2.177,-2.1786,-2.1508,-2.0729,-2.0029,-1.9602,-1.952,-1.9201,-1.8659,-1.8659,-1.8624,-1.8783,-1.8479,-1.8373,-1.8495,-1.8168,-1.7988,-1.7885,-1.7908,-1.7814,-1.7527,-1.7714,-1.7621,-1.4316,-1.9081,-2.1674,-2.1779,-1.5348,-0.6976,0.0825,0.8949,1.704,2.4764,2.5778,2.527,2.527,2.6048,2.7131,2.8416,2.4224,1.9955,1.7641,1.2623,0.4963,-0.6537,-0.7309,-1.1754,-2.4368,-2.8636,-3.0443,-3.0157,-2.9505,-2.903,-2.8708,-2.7488,-2.6604,-2.6222,-2.5349,-2.4657,-2.4003,-2.3574,-2.312,-2.2772,-2.2178,-2.134,-2.0539,-1.9638,-1.8858,-1.8147,-1.7629,-1.7141,-1.6753,-1.6431,-1.587,-1.5266,-1.4298,-1.372,-1.3405,-1.2535,-1.2595,-1.3195,-1.3684,-1.3839,-1.4107,-1.4735,-1.5054,-1.5164,-1.4402,-1.457,-1.5181,-1.5595,-1.6008,-1.6358,-1.7208,-1.801,-1.8611,-1.8767,-1.9351,-2.0004,-2.0375,-2.0943,-2.1259,-2.128,-2.1471,-2.1701,-2.168,-2.1789,-2.1787,-2.1482,-2.2178,-2.2554,-2.1874,-2.21,-2.217,-2.1725,-2.1483,-2.1114,-2.0312,-2.0162,-1.9915,-1.9383,-1.9303,-1.9364,-1.9527,-1.9131,-1.8993,-1.9186,-1.8783,-1.8616,-1.8659,-1.8621,-1.8384,-1.8052,-1.8239,-1.8097,-0.5985,-1.5418,-2.261,-2.193,-1.5821,-0.7879,0.0,0.7906,1.583,2.3945,2.5,2.4523,2.4523,2.571,2.6928,2.7671,3.0239,2.8589,1.8437,1.9097,1.6515,0.55,0.4846,0.05,-1.1895,-2.3921,-3.0606,-2.9922,-2.9661,-2.9067,-2.802,-2.7953,-2.7712,-2.7073,-2.6222,-2.5525,-2.5124,-2.4426,-2.3839,-2.349,-2.2418,-2.1758,-2.134,-1.9724,-1.8959,-1.8935,-1.7629,-1.7141,-1.7389,-1.6126,-1.5645,-1.566,-1.444,-1.3873,-1.3693,-1.3324,-1.3555,-1.4272,-1.4867,-1.5117,-1.5331,-1.5927,-1.6042,-1.5981,-1.61,-1.6212,-1.6381,-1.7042,-1.7699,-1.8103,-1.8218,-1.8739,-1.9356,-1.9972,-2.0518,-2.1284,-2.2154,-2.2367,-2.2377,-2.2336,-2.2187,-2.2128,-2.2354,-2.1969,-2.1785,-2.2337,-2.2499,-2.2514,-2.2281,-2.2749,-2.2947,-2.2753,-2.2753,-2.2162,-2.0627,-2.1104,-2.1117,-2.0346,-2.0055,-2.0019,-2.0369,-1.9899,-1.9799,-2.0384,-1.9899,-1.9729,-1.986,-1.9665,-1.9299,-1.8956,-1.8686,-1.8662,0.2944,-0.1309,-0.3555,-0.4308,0.2178,0.901,1.0082,1.6628,2.2943,2.451,2.4255,2.3883,2.4421,2.4864,2.5947,2.8247,3.0277,3.0767,2.8543,2.3605,1.5845,0.4137,-1.1066,-2.1895,-2.5195,-2.9564,-3.1767,-3.0976,-3.0665,-3.0077,-2.9331,-2.8874,-2.8157,-2.7073,-2.6466,-2.5805,-2.5122,-2.4374,-2.4013,-2.389,-2.275,-2.1992,-2.146,-2.0166,-1.9516,-1.9064,-1.8594,-1.8431,-1.8162,-1.7401,-1.6768,-1.6404,-1.5432,-1.4842,-1.4639,-1.452,-1.4748,-1.5224,-1.5817,-1.6035,-1.5955,-1.66,-1.6723,-1.6693,-1.7078,-1.7035,-1.6878,-1.7421,-1.8426,-1.9191,-1.9023,-1.9571,-2.0348,-2.0676,-2.0979,-2.1332,-2.202,-2.2269,-2.2391,-2.2274,-2.2494,-2.2734,-2.2592,-2.2888,-2.3165,-2.3057,-2.3088,-2.3198,-2.2963,-2.2677,-2.2554,-2.2649,-2.2611,-2.2195,-2.1371,-2.1411,-2.1332,-2.0982,-2.0605,-2.0571,-2.0684,-2.03,-2.009,-2.0035,-1.974,-1.9486,-1.9319,-1.9458,-1.9521,-1.9605,-1.912,-1.9085,1.1039,0.6635,0.4094,0.3195,0.9721,1.5984,1.4591,2.0313,2.5609,2.4692,2.368,2.3207,2.3951,2.432,2.5404,2.8112,3.004,3.0245,2.7457,2.2929,1.5606,0.4049,-1.4176,-2.5526,-2.4959,-2.9609,-3.2342,-3.1325,-3.1092,-3.0762,-3.0294,-2.945,-2.8618,-2.7797,-2.6571,-2.574,-2.5423,-2.4802,-2.4316,-2.3969,-2.2994,-2.2187,-2.1424,-2.0488,-1.9886,-1.9456,-1.92,-1.8896,0.0,-1.7885,-1.7258,-1.6753,-1.6035,-1.56,-1.5472,-1.5472,-1.5698,-1.6172,-1.6762,-1.6887,-1.68,-1.7443,-1.7653,-1.7681,-1.8333,-1.8237,-1.7963,-1.8628,-1.9442,-2.0229,-2.0382,-2.0772,-2.1283,-2.15,-2.1618,-2.1808,-2.2415,-2.2555,-2.2625,-2.2948,-2.31,-2.3161,-2.3575,-2.3786,-2.3895,-2.3879,-2.3762,-2.3647,-2.3578,-2.3162,-2.2876,-2.2971,-2.3044,-2.2804,-2.221,-2.2085,-2.1953,-2.1778,-2.1362,-2.1098,-2.0982,-2.0456,-2.0098,-2.0071,-1.9681,-1.9474,-1.9462,-1.9571,-1.9763,-1.986,-1.9709,-1.9673,0.0,1.0325,0.4005,0.394,0.979,1.5498,1.5245,2.0068,0.0,2.4591,2.3444,2.2699,2.341,2.4154,2.5372,2.7604,2.9837,2.7858,1.8066,1.71,1.3372,0.2602,-0.8962,-1.587,-1.5512,-2.5952,-3.2342,-3.1441,-3.1092,-3.0976,-3.0898,-2.9705,-2.8975,-2.8975,-2.6571,-2.5488,-2.5855,-2.5324,-2.4755,-2.4071,-2.3145,-2.2209,-2.1537,-2.0618,-2.0106,-2.0106,-1.9468,-1.9054,-1.8662,-1.7777,-1.7265,-1.7,-1.6391,-1.6172,-1.6172,-1.629,-1.6644,-1.7232,-1.7818,-1.7901,-1.7741,-1.8568,-1.8803,-1.8892,-1.9841,-1.9767,-1.9428,-2.0298,-2.0823,-2.1247,-2.2005,-2.2189,-2.219,-2.2255,-2.2391,-2.2644,-2.3332,-2.3121,-2.3171,-2.4277,-2.3866,-2.3591,-2.4828,-2.445,-2.4253,-2.4824,-2.4328,-2.3988,-2.4007,-2.3873,-2.3758,-2.3584,-2.3932,-2.3854,-2.309,-2.3055,-2.2955,-2.2653,-2.2062,-2.1561,-2.1313,-2.041,-2.0053,-2.0362,-1.9826,-1.981,-2.0313,-2.0103,-2.0005,-2.0037,-2.0273,-2.0432,2.3436,0.0,2.2545,2.1916,2.324,2.4531,0.0,2.461,2.5338,2.5338,2.4628,2.4188,2.4966,2.5676,2.6928,2.9194,3.0954,2.8602,1.8802,0.3351,-1.1048,-2.202,-2.6741,-2.8897,-2.8376,-3.1333,-3.3161,-3.2457,-3.1903,-3.1325,-3.0879,-3.0176,-2.945,-2.8975,-2.7418,-2.6449,-2.6083,-2.5077,-2.4538,-2.4461,-2.3451,-2.265,-2.1923,-2.1243,-2.0615,-2.0106,-1.9979,-1.9688,-1.9424,-1.8507,-1.8228,-1.82,-1.7221,-1.7114,-1.7467,-1.7701,-1.8064,-1.8519,-1.9448,-1.9237,-1.8547,-1.9064,-1.9974,-2.087,-2.1458,-2.0788,-1.9911,-2.0814,-2.1841,-2.2608,-2.2963,-2.3243,-2.3502,-2.3572,-2.3255,-2.3174,-2.389,-2.3621,-2.3609,-2.4611,-2.4516,-2.4448,-2.4735,-2.5237,-2.54,-2.5077,-2.4659,-2.451,-2.4808,-2.3914,-2.3463,-2.387,-2.3782,-2.3562,-2.3373,-2.3314,-2.3155,-2.2653,-2.2537,-2.2316,-2.203,-2.1325,-2.1192,-2.1393,-2.0915,-2.067,-2.0966,-2.0752,-2.07,-2.0974,-2.1054,-2.1001,2.4391,2.5981,2.7402,2.7334,2.73,2.7199,2.6793,2.6116,2.5609,2.5609,2.527,2.5139,2.5614,2.658,2.7802,2.9461,2.678,2.1274,1.2123,0.0308,-1.1398,-2.2429,-2.4758,-2.7432,-3.2511,-3.342,-3.338,-3.2778,-3.2227,-3.1672,-3.0879,-3.0528,-3.0176,-2.9941,-2.8618,-2.7539,-2.6571,-2.5349,-2.4673,-2.4538,-2.3745,-2.3006,-2.2356,-2.1683,-2.1109,-2.0602,-2.0219,-2.0013,-1.973,-1.8813,-1.8526,-1.8631,-1.8114,-1.8052,-1.8402,-1.8752,-1.91,-1.9693,-2.05,-2.0553,-2.0354,-2.0394,-2.1043,-2.1977,-2.2829,-2.2299,-2.1644,-2.239,-2.2997,-2.3445,-2.3913,-2.4137,-2.4079,-2.3794,-2.3745,-2.375,-2.3969,-2.3945,-2.4219,-2.5113,-2.4839,-2.46,-2.5197,-2.5412,-2.5427,-2.5289,-2.4989,-2.4796,-2.5088,-2.4288,-2.3969,-2.4454,-2.4226,-2.4086,-2.4171,-2.4012,-2.3683,-2.3169,-2.2997,-2.2722,-2.2417,-2.1878,-2.1595,-2.1695,-2.1561,-2.1528,-2.1628,-2.1328,-2.1325,-2.1623,-2.142,-2.1318,2.3511,2.3582,2.4115,2.6051,2.6623,2.6725,2.6724,2.632,2.5915,2.5883,2.595,2.6016,2.6143,2.7238,2.8466,2.9571,2.0373,1.0027,0.1125,-0.1969,-0.686,-1.6116,-1.81,-2.2536,-3.242,-3.368,-3.3526,-3.2901,-3.253,-3.1998,-3.1228,-3.0995,-3.0879,-3.0762,-2.9587,-2.8379,-2.7073,-2.5717,-2.4857,-2.4502,-2.3903,-2.3384,-2.2606,-2.2104,-2.1614,-2.1222,-2.0677,-2.0262,-1.9985,-1.9309,-1.8906,-1.8765,-1.8997,-1.9113,-1.9113,-1.9564,-2.0026,-2.0486,-2.1126,-2.1775,-2.2378,-2.1948,-2.2196,-2.2935,-2.4162,-2.4224,-2.3952,-2.4244,-2.4121,-2.4047,-2.4604,-2.4742,-2.45,-2.3874,-2.4251,-2.4631,-2.4315,-2.4461,-2.4947,-2.5852,-2.5204,-2.4941,-2.5875,-2.5527,-2.5217,-2.5452,-2.5244,-2.5069,-2.5181,-2.4883,-2.4771,-2.508,-2.4951,-2.493,-2.5122,-2.4754,-2.4316,-2.3857,-2.3408,-2.3065,-2.2703,-2.2165,-2.1811,-2.1694,-2.203,-2.2181,-2.2232,-2.1928,-2.1928,-2.203,-2.1689,-2.1603,2.3985,1.9587,1.6441,2.3882,2.6251,2.6758,2.6829,2.7183,2.7356,2.7008,2.7369,2.7722,2.7721,2.8467,2.9713,3.1547,1.5936,-0.0232,-1.1226,-2.1344,-2.8131,-2.9586,-3.0364,-3.1564,-3.3123,-3.359,-3.3704,-3.3681,-3.3043,-3.2571,-3.2457,-3.146,-3.0645,-3.0039,-2.9331,-2.8379,-2.7073,-2.5717,-2.5103,-2.498,-2.4285,-2.3664,-2.2981,-2.2856,-2.248,-2.1964,-2.1534,-2.123,-2.0925,-2.0264,-1.9965,-2.004,-1.9693,-1.9809,-2.0155,-2.0931,-2.1174,-2.1086,-2.1557,-2.2405,-2.3408,-2.3332,-2.3851,-2.4752,-2.5816,-2.6162,-2.6013,-2.5685,-2.5027,-2.4436,-2.4763,-2.5227,-2.5583,-2.5229,-2.5451,-2.5776,-2.6105,-2.5858,-2.5852,-2.6601,-2.6754,-2.6486,-2.5839,-2.6448,-2.6621,-2.5686,-2.571,-2.5824,-2.5732,-2.5312,-2.5099,-2.5338,-2.5374,-2.5331,-2.5432,-2.4809,-2.4545,-2.4576,-2.4015,-2.3338,-2.2719,-2.3114,-2.2927,-2.2064,-2.2622,-2.2758,-2.2535,-2.2434,-2.2232,-2.1725,-2.2262,-2.2308,2.3714,2.1906,1.9672,1.9315,1.6548,1.3836,1.3382,1.3637,1.5177,1.9598,2.112,2.3161,2.7906,2.5358,1.9086,0.8372,0.33,-0.3018,-1.3957,-1.5325,-1.7281,-2.2982,-2.4146,-2.6996,-3.2993,-3.3749,-3.3854,-3.377,-3.345,-3.3027,-3.2685,-3.1787,-3.0995,-3.0411,-2.9823,-2.9331,-2.9112,-2.7177,-2.5855,-2.5103,-2.4734,-2.4239,-2.3355,-2.323,-2.2644,-2.1838,-2.153,-2.1343,-2.1152,-2.0489,-2.0512,-2.073,-2.0385,-2.0615,-2.1074,-2.1987,-2.2539,-2.2895,-2.322,-2.4017,-2.4697,-2.4846,-2.5156,-2.5703,-2.6688,-2.6742,-2.6609,-2.6493,-2.5841,-2.5124,-2.5036,-2.5454,-2.5875,-2.5603,-2.6085,-2.662,-2.6372,-2.639,-2.6526,-2.7166,-2.7033,-2.6781,-2.6646,-2.6626,-2.6507,-2.5848,-2.5867,-2.5843,-2.5507,-2.5461,-2.5544,-2.5743,-2.5693,-2.5858,-2.6045,-2.5469,-2.4826,-2.417,-2.3874,-2.3511,-2.2927,-2.3184,-2.3014,-2.235,-2.2706,-2.2826,-2.286,-2.286,-2.286,-2.2753,-2.2921,-2.2778,2.3613,2.3349,2.1645,1.5796,1.1621,0.7699,0.2967,0.3749,0.6666,1.088,1.2359,1.568,2.4899,2.1338,1.0745,-0.8427,-0.714,-0.7392,-1.8087,-1.2906,-1.1166,-1.9465,-2.0779,-2.4354,-3.3206,-3.3889,-3.386,-3.392,-3.3723,-3.3353,-3.3027,-3.2248,-3.1496,-3.1031,-3.0316,-3.0043,-3.0411,-2.8372,-2.6695,-2.5349,-2.5226,-2.4734,-2.3852,-2.3479,-2.293,-2.1996,-2.1562,-2.1489,-2.1525,-2.0859,-2.096,-2.1402,-2.1174,-2.1531,-2.2214,-2.2893,-2.3776,-2.4488,-2.4802,-2.527,-2.5703,-2.6102,-2.6271,-2.638,-2.7241,-2.7296,-2.7096,-2.7395,-2.6865,-2.6161,-2.5597,-2.5868,-2.6313,-2.6041,-2.6755,-2.7253,-2.6692,-2.6907,-2.7338,-2.757,-2.7431,-2.7239,-2.7401,-2.7023,-2.6567,-2.642,-2.628,-2.6078,-2.5657,-2.5881,-2.6095,-2.6166,-2.6114,-2.6206,-2.6318,-2.5882,-2.5072,-2.4049,-2.3734,-2.3528,-2.3134,-2.3203,-2.3151,-2.2946,-2.3032,-2.3186,-2.3374,-2.3269,-2.3389,-2.3593,-2.3448,-2.3268,2.4222,1.972,1.5029,1.5742,2.1152,2.2085,0.6032,0.9057,1.2892,0.438,0.2734,0.6017,1.6537,1.8015,1.362,0.1385,-0.8695,-1.8985,-3.0642,-3.191,-3.2065,-3.3335,-3.3138,-3.3151,-3.3965,-3.3752,-3.3763,-3.4261,-3.3682,-3.348,-3.3952,-3.3161,-3.221,-3.1228,-3.0418,-2.9757,-2.9094,-2.8363,-2.7405,-2.6067,-2.5717,-2.5226,-2.4487,-2.4239,-2.3794,-2.346,-2.2556,-2.2231,-2.2473,-2.1795,-2.1774,-2.2116,-2.2343,-2.3022,-2.368,-2.3776,-2.4445,-2.5168,-2.5326,-2.5569,-2.5806,-2.6484,-2.6741,-2.6955,-2.7715,-2.807,-2.8351,-2.8609,-2.8659,-2.8212,-2.6605,-2.6913,-2.7527,-2.7232,-2.7522,-2.7904,-2.7579,-2.7935,-2.8174,-2.7729,-2.8587,-2.9021,-2.7662,-2.7901,-2.8141,-2.7663,-2.7226,-2.704,-2.7195,-2.6986,-2.6717,-2.6608,-2.6536,-2.6281,-2.5702,-2.5362,-2.5021,-2.4645,-2.3995,-2.3528,-2.3134,-2.346,-2.3802,-2.411,-2.447,-2.4487,-2.4145,-2.3837,-2.356,-2.3364,-2.3594,-2.3762,2.4634,1.9478,1.4224,1.5839,1.901,1.7051,-0.1055,-0.2348,-0.0962,-0.5528,-0.6543,-0.3551,0.6388,0.2138,-0.41,-0.7928,-1.9093,-2.8834,-3.3582,-3.503,-3.5596,-3.5787,-3.5307,-3.492,-3.4531,-3.4109,-3.4005,-3.453,-3.4155,-3.3988,-3.4289,-3.3501,-3.2571,-3.1717,-3.0684,-2.9852,-2.9295,-2.8584,-2.7694,-2.6692,-2.6587,-2.5961,-2.4857,-2.4515,-2.3975,-2.3261,-2.2822,-2.262,-2.2642,-2.2503,-2.2683,-2.3022,-2.3472,-2.3904,-2.4223,-2.4778,-2.5551,-2.6372,-2.6505,-2.6721,-2.7016,-2.738,-2.7421,-2.7431,-2.8092,-2.8589,-2.911,-2.9205,-2.9708,-2.9803,-2.8278,-2.8169,-2.8299,-2.8021,-2.815,-2.8271,-2.8285,-2.8305,-2.8502,-2.8869,-2.9164,-2.9229,-2.8609,-2.8874,-2.889,-2.8153,-2.8121,-2.793,-2.7492,-2.7289,-2.7056,-2.6682,-2.6811,-2.6774,-2.6262,-2.6274,-2.5993,-2.5523,-2.4585,-2.4076,-2.4179,-2.4316,-2.4453,-2.459,-2.4504,-2.4504,-2.4607,-2.4241,-2.4064,-2.4275,-2.4319,-2.4387,2.4868,2.1631,1.7763,1.6569,1.6974,1.2798,-0.5563,-0.724,-0.7049,-1.4286,-1.3462,-0.9669,-0.3511,-0.9332,-1.49,-1.4545,-2.5483,-3.4181,-3.4765,-3.5655,-3.6358,-3.6546,-3.6048,-3.5475,-3.5017,-3.4346,-3.4185,-3.459,-3.4252,-3.4206,-3.4383,-3.3866,-3.3092,-3.1927,-3.1014,-3.0221,-2.9536,-2.8975,-2.837,-2.7604,-2.7607,-2.6745,-2.5173,-2.4811,-2.4205,-2.3513,-2.3177,-2.2996,-2.3022,-2.3231,-2.3568,-2.4128,-2.4479,-2.4795,-2.5,-2.5679,-2.6445,-2.7168,-2.7419,-2.7668,-2.7965,-2.8037,-2.8028,-2.804,-2.8567,-2.9226,-2.984,-3.0223,-3.0845,-3.115,-2.998,-2.9393,-2.9124,-2.8899,-2.8718,-2.8666,-2.8924,-2.8964,-2.9141,-2.9572,-2.9722,-2.9622,-2.9282,-2.9448,-2.9404,-2.8691,-2.87,-2.8506,-2.7891,-2.7592,-2.7262,-2.6866,-2.7123,-2.7249,-2.7118,-2.705,-2.6911,-2.654,-2.5579,-2.5078,-2.4984,-2.5104,-2.5172,-2.5172,-2.513,-2.5078,-2.5001,-2.4727,-2.4675,-2.4812,-2.4701,-2.4607,2.483,2.6135,2.542,1.8093,1.6498,1.2042,-0.5597,-0.2327,-0.1163,-2.1125,-1.7784,-1.1652,-1.2792,-1.385,-1.4663,-1.5145,-2.5781,-3.4272,-3.497,-3.5655,-3.6263,-3.7015,-3.6452,-3.5787,-3.5211,-3.4433,-3.4152,-3.4365,-3.4071,-3.4039,-3.4183,-3.4361,-3.3634,-3.1818,-3.1558,-3.0894,-2.9667,-2.9557,-2.9315,-2.8834,-2.8637,-2.7432,-2.5539,-2.494,-2.4553,-2.4351,-2.3415,-2.334,-2.3921,-2.3888,-2.4445,-2.5221,-2.5221,-2.5569,-2.6118,-2.6445,-2.6989,-2.753,-2.8067,-2.8237,-2.8207,-2.8507,-2.8667,-2.8948,-2.9336,-2.9891,-3.0566,-3.1728,-3.2097,-3.1999,-3.1825,-3.0793,-2.9884,-2.9786,-2.9451,-2.916,-2.9458,-3.0006,-3.0306,-2.98,-3.0303,-3.0516,-2.9764,-2.9574,-2.9632,-2.9451,-2.9025,-2.8721,-2.8671,-2.7952,-2.7394,-2.7253,-2.7545,-2.7765,-2.7765,-2.7555,-2.7488,-2.7885,-2.7335,-2.6516,-2.5412,-2.5737,-2.5943,-2.5943,-2.6537,-2.6347,-2.5378,-2.5378,-2.5189,-2.483,-2.4496,-2.4624,2.5136,1.7641,1.0502,1.4684,0.7456,-0.2417,-0.8998,-0.8096,-0.9823,-2.3779,-2.4604,-2.0931,-1.4988,-2.076,-2.4002,-1.6847,-2.6411,-3.4996,-3.5506,-3.6299,-3.7015,-3.7572,-3.7108,-3.6546,-3.6073,-3.5114,-3.4647,-3.497,-3.4486,-3.4252,-3.4508,-3.4142,-3.3508,-3.2469,-3.1482,-3.0622,-3.0238,-2.9695,-2.9355,-2.891,-2.8627,-2.7677,-2.6236,-2.5747,-2.5144,-2.4449,-2.4507,-2.4452,-2.4256,-2.4906,-2.5459,-2.5898,-2.6336,-2.6663,-2.7098,-2.7833,-2.8262,-2.8608,-2.8716,-2.8734,-2.8723,-2.854,-2.8942,-2.967,-2.9992,-3.1004,-3.2195,-3.23,-3.2764,-3.3231,-3.3073,-3.2216,-3.13,-3.0745,-3.068,-3.0723,-3.0904,-3.0557,-3.0312,-3.0448,-3.058,-3.0577,-3.013,-3.0554,-3.0701,-2.9968,-2.9739,-2.94,-2.8699,-2.8385,-2.8238,-2.792,-2.8292,-2.8418,-2.8205,-2.8111,-2.821,-2.8336,-2.7723,-2.7138,-2.6533,-2.6385,-2.6317,-2.6273,-2.6278,-2.6226,-2.6099,-2.5887,-2.572,-2.5617,-2.599,-2.611,2.0952,1.3772,0.6633,0.5814,-0.1537,-0.9867,-1.5144,-1.6404,-1.8543,-2.582,-2.7496,-2.6349,-2.1845,-2.6726,-2.947,-2.3681,-2.9668,-3.5197,-3.5783,-3.6687,-3.7417,-3.778,-3.7508,-3.7083,-3.6452,-3.5596,-3.5065,-3.5083,-3.4676,-3.4566,-3.4645,-3.4263,-3.37,-3.3071,-3.1977,-3.1147,-3.0566,-3.0148,-2.9726,-2.9068,-2.8932,-2.8089,-2.6725,-2.6151,-2.5515,-2.4913,-2.5343,-2.5459,-2.5348,-2.6008,-2.6354,-2.655,-2.7131,-2.7542,-2.7835,-2.8628,-2.9217,-2.9786,-2.974,-2.9721,-2.9655,-2.9654,-3.003,-3.048,-3.1172,-3.2175,-3.3021,-3.3036,-3.3337,-3.3738,-3.3536,-3.3366,-3.2959,-3.1927,-3.1494,-3.144,-3.152,-3.1257,-3.1073,-3.1248,-3.1254,-3.1162,-3.0926,-3.1162,-3.1227,-3.0298,-3.0063,-2.9634,-2.8933,-2.9032,-2.8993,-2.8384,-2.8719,-2.896,-2.8627,-2.8728,-2.8755,-2.8755,-2.814,-2.7723,-2.7335,-2.7103,-2.688,-2.6848,-2.6615,-2.6632,-2.6848,-2.6615,-2.6585,-2.6741,-2.7086,-2.7071,1.4247,1.2506,0.8794,-0.5937,-1.0073,-1.3013,-2.2595,-2.5348,-2.6139,-2.7113,-2.7548,-2.8373,-3.0679,-3.1304,-3.1845,-3.2978,-3.4126,-3.5201,-3.6018,-3.6977,-3.7723,-3.7776,-3.778,-3.7453,-3.664,-3.5978,-3.5404,-3.492,-3.4809,-3.4722,-3.467,-3.438,-3.396,-3.3515,-3.2757,-3.1798,-3.0849,-3.0756,-3.0348,-2.9332,-2.9315,-2.8577,-2.7289,-2.6376,-2.5828,-2.5789,-2.6118,-2.6336,-2.6772,-2.6989,-2.7176,-2.7361,-2.7893,-2.8219,-2.8508,-2.9076,-2.9953,-3.0888,-3.0781,-3.0708,-3.0741,-3.1359,-3.1371,-3.132,-3.2576,-3.3191,-3.3526,-3.3726,-3.3866,-3.3744,-3.3277,-3.3889,-3.4347,-3.3257,-3.2272,-3.1539,-3.1673,-3.2088,-3.2311,-3.2122,-3.2062,-3.2057,-3.186,-3.1683,-3.1264,-3.0711,-3.0172,-2.9892,-2.9545,-2.9789,-2.9648,-2.867,-2.9164,-2.9368,-2.8993,-2.8975,-2.8993,-2.903,-2.869,-2.8426,-2.8084,-2.7741,-2.7586,-2.7552,-2.7505,-2.7541,-2.7659,-2.7694,-2.7789,-2.8144,-2.792,-2.7817,1.3623,0.5211,-0.4463,-0.9071,-1.5869,-2.2124,-2.4637,-2.5852,-2.6747,-2.7533,-2.7582,-2.8295,-3.0848,-3.163,-3.2255,-3.3208,-3.4555,-3.5785,-3.6577,-3.7243,-3.7945,-3.8871,-3.8496,-3.7939,-3.7572,-3.6709,-3.5953,-3.5475,-3.5008,-3.4661,-3.4472,-3.3959,-3.3546,-3.3235,-3.2251,-3.1499,-3.0916,-3.0822,-3.0397,-2.9414,-2.9303,-2.8684,-2.7826,-2.716,-2.6829,-2.6772,-2.6772,-2.7098,-2.7638,-2.7853,-2.7921,-2.7969,-2.8846,-2.9184,-2.925,-3.0099,-3.0703,-3.1111,-3.0756,-3.0656,-3.063,-3.0841,-3.1361,-3.2088,-3.298,-3.3837,-3.4485,-3.4213,-3.4162,-3.3876,-3.2476,-3.2856,-3.3775,-3.4256,-3.384,-3.3265,-3.2849,-3.2423,-3.2275,-3.3116,-3.2614,-3.2121,-3.2343,-3.2188,-3.1848,-3.1277,-3.1074,-3.0994,-3.0658,-3.1022,-3.0876,-2.986,-2.9897,-2.9702,-2.9012,-2.8975,-2.9122,-2.9434,-2.921,-2.9197,-2.9678,-2.8546,-2.7961,-2.7786,-2.8157,-2.8478,-2.872,-2.8799,-2.873,-2.8569,-2.9118,-2.9025,0.8699,0.1688,-0.5776,-1.4289,-2.0737,-2.5094,-2.5278,-2.6019,-2.6989,-2.7898,-2.8224,-2.9076,-3.1301,-3.214,-3.2743,-3.3714,-3.491,-3.5811,-3.6356,-3.7148,-3.783,-3.8369,-3.8228,-3.7986,-3.773,-3.6989,-3.6332,-3.5953,-3.5478,-3.5155,-3.5194,-3.438,-3.3954,-3.4004,-3.2915,-3.2148,-3.146,-3.136,-3.0739,-2.9707,-2.9659,-2.9105,-2.8071,-2.7525,-2.7303,-2.7422,-2.7422,-2.7745,-2.8262,-2.8601,-2.8436,-2.8206,-2.9601,-2.9971,-2.977,-3.0939,-3.1629,-3.1949,-3.1493,-3.1517,-3.1763,-3.2086,-3.2558,-3.3244,-3.415,-3.48,-3.5114,-3.4628,-3.4359,-3.4256,-3.4704,-3.3993,-3.343,-3.3958,-3.3868,-3.3569,-3.3175,-3.3046,-3.2918,-3.2944,-3.2891,-3.2917,-3.2938,-3.2727,-3.2601,-3.2554,-3.2296,-3.1816,-3.1213,-3.1405,-3.1066,-2.9721,-2.9851,-2.9795,-2.9012,-2.9278,-2.9601,-2.9562,-2.9764,-2.9965,-3.0185,-2.9737,-2.9288,-2.901,-2.9166,-2.9472,-2.9919,-2.9619,-2.9563,-2.974,-2.9824,-2.9655,0.4967,0.0371,-0.461,-1.9429,-2.4078,-2.5125,-2.5445,-2.6308,-2.7282,-2.8341,-2.8921,-2.9834,-3.1778,-3.246,-3.3064,-3.4297,-3.5223,-3.5898,-3.6248,-3.709,-3.7645,-3.7588,-3.7844,-3.7971,-3.7573,-3.715,-3.6777,-3.6489,-3.5928,-3.5768,-3.5819,-3.4918,-3.4426,-3.4551,-3.3777,-3.2869,-3.1913,-3.1919,-3.121,-2.9994,-3.0028,-2.9474,-2.8388,-2.796,-2.7745,-2.796,-2.8174,-2.8495,-2.89,-2.9132,-2.8857,-2.8471,-2.9866,-3.0285,-3.0122,-3.1583,-3.2443,-3.2901,-3.2286,-3.2517,-3.3144,-3.3529,-3.3863,-3.4316,-3.5353,-3.567,-3.5647,-3.5066,-3.4772,-3.517,-3.7154,-3.577,-3.3706,-3.3361,-3.3292,-3.3288,-3.3285,-3.3848,-3.4062,-3.2771,-3.3369,-3.3855,-3.3401,-3.3265,-3.3252,-3.3558,-3.3174,-3.2509,-3.1512,-3.1531,-3.102,-2.9601,-2.9841,-2.9999,-2.9352,-2.9749,-3.0092,-2.9904,-3.034,-3.0562,-3.0406,-3.0717,-3.0736,-3.0281,-3.0013,-3.0176,-3.0774,-3.0119,-3.017,-3.075,-3.0083,-2.9822,1.0407,0.0412,-1.1927,-2.149,-2.4323,-2.511,-2.6261,-2.7282,-2.8293,-2.9145,-2.9174,-2.9732,-3.1911,-3.254,-3.3224,-3.4682,-3.5683,-3.6488,-3.731,-3.7637,-3.7917,-3.8034,-3.8215,-3.8189,-3.7741,-3.7742,-3.7456,-3.6599,-3.6175,-3.5709,-3.5219,-3.4703,-3.4162,-3.3738,-3.3515,-3.2768,-3.1629,-3.1695,-3.1077,-2.9994,-2.9615,-2.9298,-2.9026,-2.892,-2.8601,-2.8281,-2.9026,-2.9448,-2.9448,-2.9784,-2.9497,-2.9001,-2.8956,-2.9409,-3.0417,-3.1984,-3.2869,-3.3009,-3.2071,-3.2602,-3.3577,-3.3407,-3.3857,-3.4625,-3.5353,-3.594,-3.621,-3.5647,-3.6186,-3.6788,-3.6601,-3.6179,-3.5428,-3.3706,-3.3292,-3.3492,-3.4164,-3.5199,-3.5636,-3.4427,-3.421,-3.4001,-3.3518,-3.3752,-3.3862,-3.3236,-3.3234,-3.2962,-3.2219,-3.197,-3.1558,-3.1053,-3.084,-3.0585,-3.0426,-3.034,-3.0383,-3.109,-3.0932,-3.0864,-3.1212,-3.1267,-3.1157,-3.0846,-3.0717,-3.0624,-3.0419,-3.0419,-3.0178,-2.9935,-2.9822,-2.9691,0.6648,-0.3245,-1.34,-2.203,-2.4545,-2.5254,-2.6334,-2.7478,-2.8613,-2.9542,-2.9928,-3.0572,-3.2121,-3.2857,-3.37,-3.5197,-3.6084,-3.6828,-3.7186,-3.74,-3.7545,-3.7593,-3.7564,-3.7443,-3.719,-3.7306,-3.7182,-3.6625,-3.659,-3.642,-3.6006,-3.5639,-3.5211,-3.4531,-3.4237,-3.3505,-3.2117,-3.2409,-3.1936,-3.0724,-3.0287,-2.9764,-2.9343,-2.9659,-2.9659,-2.9258,-2.9448,-2.9724,-2.991,-3.0013,-2.9614,-2.8985,-2.9771,-3.0144,-3.0515,-3.2406,-3.317,-3.3201,-3.3036,-3.3051,-3.3126,-3.3642,-3.4548,-3.5396,-3.5904,-3.6472,-3.6823,-3.6897,-3.7048,-3.7262,-3.7287,-3.7227,-3.6908,-3.5363,-3.5818,-3.6466,-3.5666,-3.595,-3.5817,-3.4289,-3.4197,-3.4159,-3.3859,-3.4201,-3.4411,-3.3962,-3.3877,-3.3466,-3.2131,-3.2248,-3.1998,-3.0803,-3.1015,-3.1127,-3.047,-3.0885,-3.109,-3.1025,-3.1265,-3.1468,-3.1377,-3.1377,-3.112,-3.062,-3.075,-3.075,-3.0378,-3.023,-2.9952,-2.9805,-2.9561,-2.943,0.5217,-0.1874,-0.8236,-1.8769,-2.1833,-2.3041,-2.6118,-2.7823,-2.8963,-3.0043,-3.076,-3.1363,-3.2228,-3.301,-3.3977,-3.5244,-3.6253,-3.6908,-3.6985,-3.7204,-3.7303,-3.7118,-3.7097,-3.6961,-3.6748,-3.6963,-3.6954,-3.6776,-3.6936,-3.6996,-3.6692,-3.6471,-3.5978,-3.5114,-3.4775,-3.3977,-3.265,-3.2986,-3.2566,-3.1322,-3.0909,-3.0474,-2.9869,-3.0391,-3.0495,-3.0287,-3.0057,-3.0013,-3.0205,-3.0092,-2.9629,-2.9049,-3.1118,-3.1743,-3.163,-3.2994,-3.3568,-3.3668,-3.3965,-3.3667,-3.3244,-3.4335,-3.5273,-3.6098,-3.6358,-3.6784,-3.719,-3.7513,-3.7593,-3.7731,-3.7887,-3.7974,-3.7655,-3.658,-3.7816,-3.8757,-3.6714,-3.6059,-3.5468,-3.4161,-3.4222,-3.4412,-3.4295,-3.4631,-3.4759,-3.4346,-3.4262,-3.3689,-3.2312,-3.2546,-3.239,-3.1294,-3.1766,-3.1884,-3.1206,-3.1608,-3.172,-3.123,-3.1542,-3.1653,-3.1377,-3.1377,-3.112,-3.0378,-3.062,-3.062,-3.0118,-2.9822,-2.9691,-2.9691,-2.9533,-2.9402,1.1697,0.9616,0.5754,-0.9634,-1.4039,-1.6901,-2.5828,-2.8695,-2.9848,-3.1014,-3.1421,-3.1708,-3.2292,-3.2777,-3.3418,-3.4649,-3.5864,-3.6814,-3.6962,-3.7329,-3.7471,-3.7035,-3.7171,-3.7071,-3.6687,-3.6976,-3.7155,-3.7155,-3.7078,-3.6858,-3.6651,-3.643,-3.5883,-3.4823,-3.434,-3.3707,-3.291,-3.2745,-3.2386,-3.1629,-3.1527,-3.1219,-3.0724,-3.1034,-3.1116,-3.1094,-3.0969,-3.0651,-3.0443,-3.0273,-2.9829,-2.9685,-3.2712,-3.419,-3.4557,-3.4139,-3.4359,-3.4628,-3.4261,-3.4311,-3.4751,-3.5451,-3.5953,-3.6358,-3.6358,-3.6668,-3.6824,-3.6538,-3.7568,-3.8558,-3.808,-3.7974,-3.7655,-3.658,-3.7816,-3.8757,-3.6714,-3.54,-3.4684,-3.488,-3.4955,-3.4889,-3.4773,-3.5086,-3.5005,-3.4003,-3.3819,-3.3693,-3.332,-3.3019,-3.32,-3.3931,-3.3407,-3.3293,-3.3539,-3.2543,-3.2077,-3.245,-3.1838,-3.1377,-3.1377,-3.1377,-3.112,-3.0378,-3.0378,-3.01,-2.9316,-2.9316,-2.9316,-2.9316,-2.9693,-2.9658,1.0626,0.9322,0.758,-0.308,-0.9982,-1.5189,-1.9152,-2.5083,-3.0047,-3.1066,-3.1447,-3.175,-3.2159,-3.3001,-3.3993,-3.5395,-3.6436,-3.7271,-3.7899,-3.7861,-3.7777,-3.7596,-3.7409,-3.7247,-3.6989,-3.6961,-3.6926,-3.6731,-3.7025,-3.6985,-3.6625,-3.6893,-3.6734,-3.5883,-3.5273,-3.4508,-3.3596,-3.254,-3.2112,-3.2117,-3.1627,-3.1287,-3.1038,-3.1164,-3.1526,-3.1927,-3.1905,-3.1605,-3.0965,-3.0935,-3.0376,-2.9758,-3.2291,-3.4318,-3.5692,-3.4823,-3.4628,-3.4726,-3.4628,-3.6036,-3.7989,-3.8191,-3.8392,-3.8366,-3.7638,-3.7515,-3.7417,-3.6634,-3.7866,-3.9154,-3.821,-3.7974,-3.8227,-3.926,-3.936,-3.9101,-3.8367,-3.7282,-3.6282,-3.5765,-3.5489,-3.5388,-3.5077,-3.525,-3.5108,-3.4346,-3.4443,-3.4312,-3.3564,-3.3778,-3.3999,-3.3777,-3.4027,-3.3917,-3.3406,-3.3256,-3.2916,-3.2652,-3.2372,-3.2166,-3.2166,-3.2166,-3.1774,-3.0751,-3.0981,-3.046,-2.9316,-2.9573,-2.9693,-2.9693,-3.0069,-3.0155,1.2818,1.232,1.1388,0.3671,-0.2361,-0.8093,-1.4709,-2.1169,-2.6895,-3.0729,-3.1669,-3.1963,-3.2372,-3.3179,-3.4225,-3.5487,-3.6518,-3.7405,-3.8194,-3.8161,-3.8081,-3.8052,-3.7767,-3.7451,-3.7171,-3.707,-3.6934,-3.6753,-3.6983,-3.6955,-3.6661,-3.7001,-3.6775,-3.5787,-3.5276,-3.4637,-3.3696,-3.2887,-3.242,-3.2474,-3.1959,-3.1628,-3.1396,-3.1606,-3.2049,-3.2532,-3.2794,-3.2512,-3.1878,-3.1938,-3.1481,-3.1066,-3.27,-3.4603,-3.6263,-3.55,-3.5138,-3.5017,-3.4823,-3.6922,-3.9697,-3.9697,-3.9697,-3.9546,-3.8793,-3.8567,-3.8467,-3.8088,-3.8609,-3.8945,-3.8185,-3.8503,-3.9307,-4.0378,-3.9896,-3.9308,-3.9308,-3.8335,-3.7199,-3.6566,-3.6221,-3.5876,-3.5659,-3.5706,-3.5458,-3.5098,-3.5133,-3.4832,-3.432,-3.4701,-3.4863,-3.4483,-3.4848,-3.4871,-3.4088,-3.3841,-3.3479,-3.3077,-3.2814,-3.2533,-3.2404,-3.2381,-3.2005,-3.0946,-3.1202,-3.088,-2.9808,-2.995,-3.0069,-3.0087,-3.0446,-3.0617,0.0,0.0,0.0,1.0843,0.9017,0.4577,-1.2535,-1.6886,-2.0032,-2.9533,-3.1675,-3.2064,-3.2889,-3.3339,-3.3915,-3.4711,-3.5979,-3.7146,-3.7794,-3.8267,-3.8427,-3.8202,-3.8216,-3.789,-3.7141,-3.7171,-3.7289,-3.7289,-3.688,-3.6623,-3.6777,-3.6635,-3.5941,-3.4537,-3.4385,-3.3995,-3.322,-3.3718,-3.3473,-3.2586,-3.2466,-3.2173,-3.1703,-3.2271,-3.2666,-3.2823,-3.3473,-3.3431,-3.2928,-3.3007,-3.3289,-3.3908,-3.436,-3.5318,-3.6358,-3.6003,-3.5837,-3.5645,-3.5114,-3.7071,-3.9697,-3.9697,-3.9697,-3.9697,-3.9697,-3.98,-3.994,-4.091,-3.9657,-3.8046,-3.807,-3.9633,-4.0826,-3.9661,-3.9308,-3.9308,-3.9308,-3.838,-3.7461,-3.7418,-3.6932,-3.6491,-3.6561,-3.6394,-3.616,-3.6207,-3.5666,-3.53,-3.5766,-3.5884,-3.5929,-3.5976,-3.6016,-3.5879,-3.547,-3.4425,-3.3774,-3.3774,-3.3095,-3.2423,-3.2056,-3.2005,-3.1622,-3.0963,-3.0968,-3.1025,-3.099,-3.0582,-3.0446,-3.0463,-3.0857,-3.1028,1.7745,0.0,0.0,0.0,0.0,0.0,0.2554,-0.3535,-1.0898,-2.017,-2.2358,-2.4797,-3.2083,-3.4002,-3.4923,-3.6131,-3.6623,-3.7187,-3.8091,-3.8529,-3.8723,-3.8649,-3.8527,-3.8351,-3.8097,-3.7636,-3.727,-3.7234,-3.688,-3.6491,-3.6146,-3.6077,-3.5865,-3.5646,-3.4926,-3.4693,-3.4848,-3.4268,-3.372,-3.3313,-3.2579,-3.2241,-3.2316,-3.2218,-3.2785,-3.3796,-3.429,-3.4318,-3.403,-3.4214,-3.4621,-3.5276,-3.573,-3.642,-3.7041,-3.676,-3.69,-3.7505,-3.8987,-4.0079,-4.072,-4.0006,-3.9697,-3.98,-4.0593,-4.0821,-4.0798,-4.0234,-4.017,-4.0293,-4.0322,-4.0739,-4.0826,-3.9661,-3.9308,-3.9544,-4.0479,-4.0068,-3.9274,-3.8575,-3.7924,-3.7465,-3.7466,-3.698,-3.6531,-3.6398,-3.6192,-3.6002,-3.5845,-3.6142,-3.6265,-3.5996,-3.6268,-3.6132,-3.5626,-3.4659,-3.4026,-3.3774,-3.3095,-3.268,-3.2881,-3.2566,-3.2295,-3.1779,-3.2049,-3.1964,-3.1408,-3.0995,-3.0995,-3.1271,-3.1374,-3.1422,1.7015,1.742,1.8059,1.8642,0.0,0.0,0.3649,-0.1634,-0.881,-2.2151,-2.4893,-2.6829,-3.3184,-3.4816,-3.5524,-3.6556,-3.7287,-3.7923,-3.8792,-3.9068,-3.9162,-3.9162,-3.9033,-3.8865,-3.8678,-3.813,-3.7636,-3.7354,-3.6821,-3.6361,-3.5938,-3.5726,-3.5626,-3.5583,-3.5098,-3.4931,-3.5203,-3.444,-3.3974,-3.3551,-3.2675,-3.2442,-3.2744,-3.2535,-3.322,-3.4775,-3.5042,-3.5039,-3.4903,-3.5544,-3.5694,-3.5724,-3.6564,-3.7134,-3.7598,-3.7227,-3.7689,-3.8608,-4.0115,-4.0937,-4.1224,-4.0618,-4.0108,-3.9903,-4.0997,-4.1023,-4.0516,-4.0086,-4.0676,-4.1443,-4.1217,-4.1208,-4.0826,-3.9661,-3.9308,-3.9893,-4.2066,-4.1365,-4.0105,-3.9558,-3.8743,-3.8103,-3.8103,-3.759,-3.7156,-3.7082,-3.6638,-3.6343,-3.639,-3.6495,-3.6384,-3.6016,-3.6268,-3.6268,-3.5743,-3.4931,-3.4507,-3.4289,-3.349,-3.309,-3.3211,-3.2809,-3.2534,-3.2373,-3.2349,-3.2298,-3.1792,-3.1513,-3.1513,-3.167,-3.1614,-3.1559,1.6598,1.7024,1.74,1.7451,1.8555,0.0,-0.0631,-0.3474,-0.7747,-2.5721,-2.9144,-2.948,-3.1681,-3.2286,-3.2624,-3.3168,-3.5292,-3.7535,-3.9294,-3.9576,-3.9576,-3.9505,-3.9416,-3.9209,-3.862,-3.8428,-3.811,-3.7567,-3.6822,-3.6224,-3.5915,-3.5601,-3.5245,-3.5089,-3.4977,-3.4915,-3.4906,-3.452,-3.4131,-3.3576,-3.2932,-3.2798,-3.3212,-3.3143,-3.3908,-3.5596,-3.5596,-3.5515,-3.5629,-3.6565,-3.6488,-3.5697,-3.7088,-3.769,-3.7939,-3.769,-3.8277,-3.9155,-3.9596,-4.0473,-4.1324,-4.1324,-4.0695,-4.0158,-4.0948,-4.0517,-3.9844,-4.0557,-4.1261,-4.1736,-4.1348,-4.1193,-4.0826,-3.9661,-3.9469,-4.0495,-4.3445,-4.2061,-4.0279,-4.0279,-3.9412,-3.8593,-3.8593,-3.8073,-3.7715,-3.8129,-3.7289,-3.6636,-3.7018,-3.6789,-3.6403,-3.6016,-3.6268,-3.6384,-3.6016,-3.5259,-3.4931,-3.4902,-3.4153,-3.3576,-3.3358,-3.3013,-3.2752,-3.2708,-3.2298,-3.2175,-3.2175,-3.214,-3.1982,-3.1559,-3.1559,-3.1559,1.6314,1.7626,1.7476,1.7928,1.8279,0.0,1.5112,1.5043,1.2468,0.1575,-0.0846,-0.3278,-1.069,-1.2414,-1.2773,-1.285,-1.9987,-2.8612,-3.7386,-3.8813,-3.8742,-3.846,-3.7961,-3.7452,-3.7051,-3.7171,-3.7118,-3.6882,-3.657,-3.6301,-3.6089,-3.5602,-3.5571,-3.6049,-3.542,-3.5345,-3.5797,-3.5149,-3.4474,-3.387,-3.3504,-3.3367,-3.3514,-3.3722,-3.4356,-3.5308,-3.5486,-3.55,-3.5506,-3.6376,-3.6431,-3.6248,-3.7521,-3.8122,-3.8122,-3.833,-3.9111,-3.9997,-4.0114,-4.0671,-4.1324,-4.1324,-4.1748,-4.2087,-4.0465,-3.9903,-4.0045,-4.2027,-4.2224,-4.1859,-4.1379,-4.1184,-4.0826,-3.9661,-4.0548,-4.1857,-4.25,-4.1421,-4.0279,-4.0279,-3.9801,-3.9344,-3.9082,-3.8687,-3.8465,-3.8171,-3.7688,-3.738,-3.7327,-3.7079,-3.6674,-3.6016,-3.6268,-3.6384,-3.6016,-3.5665,-3.5256,-3.4921,-3.4433,-3.4251,-3.4165,-3.3552,-3.3287,-3.3678,-3.3001,-3.2593,-3.2593,-3.2562,-3.2281,-3.1559,-3.1559,-3.1559,1.67,1.8405,1.8129,1.7852,1.8003,0.0,0.0,1.2407,1.0255,0.1167,-0.064,-0.2038,-0.6623,-0.7804,-0.8094,-0.7995,-1.6703,-2.353,-2.3699,-3.2174,-3.8288,-3.8219,-3.7713,-3.7297,-3.7089,-3.6892,-3.6489,-3.59,-3.5871,-3.5681,-3.5182,-3.5326,-3.5385,-3.5413,-3.4926,-3.4944,-3.5372,-3.4573,-3.4075,-3.3929,-3.3607,-3.377,-3.4363,-3.4371,-3.4842,-3.5724,-3.5719,-3.5747,-3.5927,-3.6547,-3.6845,-3.6948,-3.7885,-3.8395,-3.8602,-3.8922,-3.9588,-4.0319,-4.0439,-4.0848,-4.1376,-4.1768,-4.2267,-4.2502,-4.1282,-4.0732,-4.0732,-4.1842,-4.2051,-4.1859,-4.1736,-4.1444,-4.0826,-3.9661,-4.0869,-4.2339,-4.2339,-4.1315,-4.0279,-4.0279,-4.0149,-3.9888,-3.9341,-3.8946,-3.8549,-3.8325,-3.7904,-3.7636,-3.7852,-3.7254,-3.6674,-3.6016,-3.6132,-3.6132,-3.6016,-3.5879,-3.5703,-3.5482,-3.5086,-3.4995,-3.4963,-3.4144,-3.3533,-3.3599,-3.3388,-3.3138,-3.3012,-3.2963,-3.2524,-3.1559,-3.1559,-3.1662,1.7368,1.951,1.9108,1.8103,1.8103,1.6359,0.0,0.0,0.0,-0.2047,-0.3293,-0.3049,-0.306,-0.3392,-0.3545,-0.3182,-1.1962,-1.5808,-0.7345,-2.1197,-3.2225,-3.2264,-3.5288,-3.6522,-3.439,-3.3731,-3.3916,-3.5096,-3.3547,-3.3036,-3.4293,-3.492,-3.5068,-3.4522,-3.4231,-3.4233,-3.4495,-3.3744,-3.355,-3.3824,-3.3666,-3.4107,-3.4984,-3.4916,-3.5259,-3.6134,-3.5957,-3.6069,-3.6367,-3.6753,-3.7258,-3.7732,-3.8119,-3.8549,-3.8989,-3.9425,-3.9947,-4.0414,-4.0738,-4.1123,-4.1529,-4.2186,-4.2398,-4.2501,-4.2494,-4.1998,-4.1544,-4.1682,-4.1742,-4.172,-4.1972,-4.1655,-4.0826,-3.9661,-4.0869,-4.2339,-4.2339,-4.1315,-4.0279,-4.0279,-4.0279,-4.0149,-3.9516,-3.9099,-3.8681,-3.8283,-3.7883,-3.7791,-3.8182,-3.7408,-3.6539,-3.6016,-3.6016,-3.6055,-3.6133,-3.6211,-3.6307,-3.6176,-3.599,-3.5755,-3.5662,-3.4667,-3.3956,-3.337,-3.3594,-3.3541,-3.3266,-3.3179,-3.2671,-3.1782,-3.1713,-3.1833,1.7852,2.1217,2.0313,1.9685,1.9233,1.8511,1.6979,0.0,1.6968,1.547,0.0,1.546,1.6395,0.0,0.0,1.7167,0.9013,0.291,0.3971,-0.4869,-1.1269,-1.0731,-2.5764,-3.2565,-2.3311,-2.2162,-2.5754,-3.4973,-2.7261,-2.584,-3.4315,-3.4827,-3.4796,-3.4513,-3.3941,-3.3688,-3.3697,-3.3993,-3.3831,-3.3338,-3.4022,-3.4418,-3.4666,-3.5161,-3.5366,-3.5519,-3.5895,-3.6376,-3.6893,-3.6883,-3.7563,-3.8738,-3.8549,-3.8666,-3.8989,-3.9516,-4.0106,-4.0696,-4.1,-4.1391,-4.1702,-4.2105,-4.2242,-4.2336,-4.3143,-4.2815,-4.2248,-4.3059,-4.2643,-4.211,-4.211,-4.1655,-4.0826,-3.9661,-4.0869,-4.2339,-4.2339,-4.1315,-4.0279,-4.0279,-4.0279,-4.0323,-4.0192,-3.958,-3.8925,-3.8312,-3.8109,-3.8191,-3.8191,-3.7502,-3.6809,-3.6016,-3.6016,-3.6172,-3.6562,-3.6934,-3.7061,-3.677,-3.7005,-3.692,-3.622,-3.533,-3.4584,-3.3717,-3.3524,-3.3352,-3.3352,-3.3008,-3.2638,-3.2552,-3.2227,-3.209,1.9048,1.7861,1.4513,1.8235,1.5287,1.2568,1.6935,1.8018,1.8103,1.8179,0.0,0.0,0.0,0.0,0.0,0.0,1.1133,0.6794,1.2632,0.0212,-0.9036,-0.7814,-1.4841,-2.012,-2.0924,-2.0331,-2.4068,-3.4212,-2.5325,-2.3715,-3.3549,-3.4312,-3.4337,-3.4186,-3.379,-3.3547,-3.3403,-3.3738,-3.3751,-3.3463,-3.4278,-3.4816,-3.5219,-3.5435,-3.5479,-3.527,-3.5738,-3.6326,-3.6989,-3.7411,-3.8202,-3.9141,-3.9221,-3.9258,-3.9222,-4.0167,-4.0495,-4.0561,-4.1399,-4.1849,-4.2082,-4.2918,-4.2938,-4.2823,-4.3534,-4.328,-4.2699,-4.3119,-4.2914,-4.2389,-4.1499,-4.1393,-4.1425,-4.1114,-4.1719,-4.2339,-4.2339,-4.1829,-4.1187,-4.0409,-4.0279,-4.0301,-4.0236,-3.969,-3.9052,-3.8821,-3.88,-3.8583,-3.8191,-3.7904,-3.7233,-3.6152,-3.6465,-3.6738,-3.668,-3.7285,-3.7449,-3.7211,-3.7029,-3.6664,-3.5903,-3.5306,-3.4556,-3.3837,-3.3683,-3.3597,-3.3597,-3.3443,-3.3191,-3.3025,-3.2431,-3.2278,1.5942,1.3685,1.033,1.7802,1.4845,1.1598,1.724,1.8265,1.8129,1.838,1.7877,0.0,0.0,0.0,1.7802,1.7953,0.0,1.0188,1.7533,0.6334,-0.207,-0.061,-0.2691,-0.7785,-1.6786,-1.4208,-1.7139,-2.9551,-2.0543,-2.0154,-3.3016,-3.3756,-3.387,-3.3945,-3.3673,-3.3495,-3.3441,-3.3786,-3.3968,-3.3985,-3.4686,-3.5213,-3.55,-3.5663,-3.5495,-3.5273,-3.5827,-3.6431,-3.7199,-3.7812,-3.8573,-3.9523,-4.006,-4.0033,-3.9761,-4.0703,-4.071,-4.0494,-4.179,-4.2351,-4.2632,-4.354,-4.3527,-4.3387,-4.4019,-4.3675,-4.3112,-4.3259,-4.3124,-4.2671,-4.1372,-4.1283,-4.1513,-4.2143,-4.2339,-4.2339,-4.2339,-4.2212,-4.1701,-4.0539,-4.0279,-4.0279,-4.0279,-3.9909,-3.9465,-3.9572,-3.9311,-3.8904,-3.8304,-3.8017,-3.7502,-3.6287,-3.6857,-3.709,-3.6855,-3.75,-3.7825,-3.7528,-3.7085,-3.6516,-3.5605,-3.5157,-3.4556,-3.3837,-3.3837,-3.3837,-3.3837,-3.3685,-3.3517,-3.318,-3.2557,-3.2406,0.5974,0.9763,1.0901,1.9944,2.1315,2.0441,2.0598,2.0162,1.9585,1.9108,1.8129,1.7551,1.8103,1.73,0.0,0.0,0.0,0.0,0.0,1.7353,1.7678,1.88,1.1015,0.1919,-0.7333,0.1387,-0.0189,-1.906,-1.0441,-1.2928,-3.2788,-3.3303,-3.3207,-3.3882,-3.3536,-3.3508,-3.3879,-3.4446,-3.4782,-3.4869,-3.5438,-3.5548,-3.541,-3.5736,-3.571,-3.5467,-3.5981,-3.6935,-3.7865,-3.7893,-3.8748,-4.0051,-4.0891,-4.0935,-4.054,-4.068,-4.0522,-4.052,-4.1984,-4.2865,-4.3387,-4.3358,-4.3604,-4.4079,-4.484,-4.4192,-4.3416,-4.4245,-4.3839,-4.302,-4.2303,-4.1496,-4.1126,-4.2143,-4.2339,-4.2339,-4.2339,-4.1829,-4.1187,-4.0409,-4.0279,-4.0279,-4.0279,-4.0279,-4.0344,-4.0779,-3.9815,-3.8927,-3.8333,-3.7801,-3.7213,-3.6789,-3.6819,-3.7012,-3.7266,-3.7676,-3.7961,-3.797,-3.7255,-3.6516,-3.5605,-3.5157,-3.4556,-3.3837,-3.3837,-3.3837,-3.3837,-3.3365,-3.3196,-3.3196,-3.2826,-3.2509,-0.2026,-0.526,-0.6745,0.7607,0.695,0.5834,1.7416,1.9607,1.8988,1.8827,1.7802,1.7078,1.7769,1.7051,0.0,0.0,0.0,0.0,0.0,1.6974,1.7225,1.7576,1.0318,0.4086,0.1092,-0.0518,-0.662,-1.9331,-1.6056,-1.9511,-3.3231,-3.3514,-3.3558,-3.4196,-3.4254,-3.4257,-3.434,-3.5032,-3.5447,-3.5466,-3.5809,-3.5951,-3.6033,-3.6113,-3.6058,-3.5816,-3.6739,-3.7676,-3.8546,-3.9518,-4.0129,-4.0686,-4.1827,-4.1653,-4.0866,-4.1699,-4.1679,-4.1325,-4.2605,-4.3198,-4.3466,-4.3906,-4.4197,-4.4479,-4.4992,-4.4769,-4.4482,-4.496,-4.4401,-4.3602,-4.3024,-4.2631,-4.2373,-4.1775,-4.2017,-4.2339,-4.2339,-4.2084,-4.1572,-4.0539,-4.0279,-4.0279,-4.0279,-4.0279,-4.0388,-4.0474,-3.9332,-3.8644,-3.8999,-3.8388,-3.7636,-3.7079,-3.7095,-3.7266,-3.7539,-3.7778,-3.8147,-3.8428,-3.7402,-3.6516,-3.6052,-3.5306,-3.4556,-3.3837,-3.3837,-3.3837,-3.3837,-3.3365,-3.3044,-3.274,-3.2472,-3.2119,-1.1238,-1.5106,-1.6464,-0.2186,-0.286,-0.3003,1.2287,1.4932,1.5198,1.897,1.848,1.7499,1.7993,1.7373,0.0,0.0,0.0,0.0,0.0,1.6522,1.6522,1.6522,1.2272,0.0,0.0,0.3796,-0.2056,-1.4045,-1.4171,-1.8114,-2.8266,-3.1766,-3.3803,-3.4639,-3.4835,-3.5033,-3.5253,-3.5662,-3.6043,-3.6424,-3.642,-3.6429,-3.6615,-3.6587,-3.648,-3.6429,-3.7306,-3.8255,-3.9219,-4.0392,-4.1118,-4.1619,-4.262,-4.2445,-4.1744,-4.2361,-4.2535,-4.2501,-4.3167,-4.357,-4.3809,-4.4002,-4.4369,-4.4597,-4.4814,-4.4903,-4.4882,-4.5183,-4.4695,-4.4062,-4.3596,-4.3464,-4.3083,-4.2288,-4.2143,-4.2339,-4.2339,-4.2212,-4.1806,-4.0906,-4.0539,-4.0279,-4.0279,-4.0279,-4.0279,-4.0279,-3.9465,-3.9041,-3.9309,-3.8667,-3.7904,-3.7213,-3.7688,-3.8023,-3.8275,-3.8088,-3.8155,-3.8428,-3.7402,-3.6516,-3.6052,-3.5306,-3.4556,-3.3837,-3.3837,-3.3685,-3.3517,-3.3213,-3.274,-3.2452,-3.1993,-3.184]}]]